GFSSGP_sfc_rhum_000.txt.gz
RH
29 10 11 8 10 10 12 11 11 10 10 19 26 26 33 34 39 40 46 58 72 66 57 52 88 84 84 86 86 86 83 85 85 77 81 83 78 80 78 78 81 81 76 76 75 74 78 80 88
12 9 7 7 11 12 11 11 11 10 7 10 22 31 28 43 38 46 44 58 73 65 50 48 91 87 85 87 85 84 81 84 84 82 82 83 83 79 88 84 80 79 77 76 76 74 75 78 85
14 4 6 8 11 12 13 11 9 6 7 10 27 29 35 47 46 49 55 57 60 58 54 58 90 89 88 86 85 83 83 81 81 78 78 80 78 85 84 89 82 80 78 76 74 73 78 86 89
8 5 5 8 10 10 10 9 8 6 12 18 24 40 49 58 73 54 51 54 59 57 53 76 91 89 87 83 82 83 83 82 82 82 77 77 74 73 75 81 82 77 75 71 73 75 80 84 86
5 5 7 9 10 8 8 8 10 12 20 24 26 39 53 58 65 50 51 52 55 58 55 57 94 88 82 76 75 81 84 82 81 80 82 80 79 80 82 82 81 83 77 75 75 83 82 83 86
6 7 8 9 9 7 7 8 11 17 20 26 31 36 47 52 61 66 54 55 48 49 54 55 85 93 91 86 81 82 83 84 83 83 83 83 84 82 82 84 84 86 86 82 83 87 86 84 87
7 7 9 9 10 9 9 8 14 14 19 28 28 34 44 50 64 71 58 51 51 50 52 51 53 67 89 91 90 92 89 86 87 87 88 90 90 90 87 84 82 82 83 83 84 85 84 81 82
6 6 9 8 9 10 9 11 15 17 20 22 24 28 41 49 62 55 51 52 49 48 46 52 51 51 57 55 87 86 89 90 90 92 93 95 94 91 89 88 84 85 84 84 85 86 85 82 82
7 7 9 10 9 9 8 8 18 21 21 27 28 32 40 48 46 50 50 44 38 40 45 58 54 58 56 48 51 70 81 85 87 84 92 84 63 76 79 91 88 90 87 88 87 89 89 90 89
6 8 12 13 11 9 8 10 14 17 20 29 34 34 36 39 41 42 36 34 34 38 36 43 59 58 54 40 48 58 58 57 57 57 64 58 76 80 89 92 90 88 90 90 91 89 88 85 49
12 12 12 14 16 14 9 11 16 14 14 19 26 32 31 31 30 30 26 26 29 33 33 38 50 58 55 53 46 49 73 63 56 64 62 74 82 90 82 97 98 95 89 92 93 86 75 71 63
15 18 18 18 16 14 14 14 14 15 18 22 25 27 26 26 24 23 23 24 26 31 31 33 46 55 56 44 44 46 44 47 50 60 68 72 76 78 88 92 94 96 93 93 91 95 97 88 71
17 20 22 20 18 18 18 17 18 17 20 22 22 23 22 20 20 22 22 24 24 28 30 30 37 45 47 49 45 46 45 43 46 47 56 54 61 74 76 78 81 86 94 96 94 78 80 91 92
23 23 24 21 20 20 21 18 19 18 20 22 22 20 19 20 19 21 22 24 23 24 26 26 29 37 37 42 46 42 39 35 35 40 50 58 56 71 73 85 84 88 91 91 86 89 82 87 84
22 22 23 21 20 21 19 19 18 16 20 20 21 20 19 19 20 20 20 22 21 20 23 23 25 30 33 36 32 28 27 28 32 39 53 55 54 64 68 62 66 66 82 87 92 94 93 89 84
23 20 16 17 18 21 19 12 14 15 18 18 18 20 20 19 19 18 20 20 20 18 20 21 16 25 28 29 24 22 24 26 29 37 41 48 49 49 52 52 58 62 65 74 82 89 90 97 97
16 15 18 16 17 18 18 15 10 15 18 16 14 16 19 19 19 19 20 20 20 19 18 22 24 24 24 26 25 30 33 25 26 31 31 39 37 40 36 39 44 47 43 50 53 59 65 64 75
22 20 20 22 14 17 16 15 10 9 11 15 15 14 16 19 19 20 21 21 20 22 20 22 22 26 26 24 26 25 26 26 25 25 26 31 31 33 31 31 39 34 32 34 36 39 37 44 61
23 23 18 14 16 22 18 17 13 11 12 14 16 17 17 18 18 19 23 23 23 24 22 21 23 26 23 23 23 23 24 25 26 23 27 30 26 28 32 26 29 32 34 38 37 34 36 34 43
21 23 20 17 18 23 20 18 13 12 13 17 18 17 18 19 20 22 23 26 28 24 23 20 20 23 22 19 20 22 23 21 21 24 30 30 32 30 27 30 28 32 29 34 37 39 34 31 35
22 25 23 24 22 17 21 12 13 13 15 18 17 19 20 20 20 22 24 27 29 29 27 23 20 20 22 23 21 22 24 26 23 23 23 28 34 34 37 34 34 34 34 32 37 36 38 34 30
26 24 25 26 27 21 23 18 15 15 14 15 18 19 18 19 20 22 22 25 30 30 29 26 22 20 21 26 22 28 21 20 19 24 23 26 32 36 36 38 40 44 39 39 36 28 37 38 36
26 25 27 29 30 28 25 25 17 18 16 16 16 18 19 20 22 22 22 23 24 29 32 31 24 23 22 27 30 28 30 24 25 28 34 34 34 35 35 37 43 46 43 43 46 46 41 36 36
25 27 27 31 31 41 28 26 18 16 18 18 16 19 21 20 22 22 22 24 24 31 34 34 28 24 26 29 33 36 35 32 30 30 31 28 28 28 32 32 38 41 43 44 43 46 47 46 42
27 31 45 48 46 37 28 31 23 19 18 20 21 22 22 22 23 23 22 22 24 26 32 31 28 27 26 32 34 37 38 38 35 33 29 32 29 30 30 32 36 32 35 38 39 42 43 42 41
31 32 51 86 48 39 26 34 18 18 18 19 22 22 23 23 23 24 23 24 24 27 28 28 25 28 26 33 37 38 36 30 29 32 30 30 32 33 35 37 36 36 36 38 38 37 36 39 44
37 42 33 47 58 58 32 25 21 17 20 22 20 22 24 25 25 24 23 26 27 27 29 33 29 26 28 35 39 37 36 34 30 32 35 31 34 28 32 37 40 40 42 43 44 41 42 43 49
35 30 51 50 94 74 31 31 26 24 23 22 23 24 27 28 28 27 26 27 27 28 27 33 34 28 31 34 37 34 35 33 31 35 36 37 37 35 36 39 40 40 41 42 44 43 43 44 46
42 45 38 39 48 72 68 39 24 26 25 26 25 26 28 29 29 28 27 27 27 30 32 36 33 29 33 34 39 39 32 31 33 35 36 35 37 36 38 39 41 42 42 42 44 46 46 48 47
38 44 42 64 57 58 74 59 27 26 26 28 28 27 27 28 28 27 30 30 29 31 30 33 33 30 32 34 38 36 33 35 37 36 36 38 40 41 42 42 41 40 39 40 42 46 45 47 49

GFSSGP_sfc_rhum_003.txt.gz
RH
35 10 6 7 9 7 8 9 7 8 10 18 16 18 27 27 36 54 40 53 65 55 44 46 82 77 82 83 84 83 83 85 84 76 81 79 79 83 85 81 82 89 82 71 71 74 74 74 81
9 4 6 6 9 9 8 8 8 7 7 12 19 16 21 38 28 38 35 48 59 61 48 42 85 81 78 82 81 82 80 82 86 84 81 78 87 87 82 78 74 81 83 90 70 70 73 78 85
12 4 5 6 7 10 13 9 8 6 8 10 18 21 26 40 35 37 39 44 48 50 48 56 88 87 81 79 79 78 78 78 80 84 80 76 82 79 74 76 80 82 84 79 73 70 77 84 87
5 4 5 8 9 9 10 9 8 6 10 11 15 33 40 46 42 36 38 41 53 58 56 74 88 84 78 70 72 76 76 75 78 82 82 80 74 83 76 78 86 87 82 81 74 76 84 88 86
4 4 6 7 8 7 7 8 8 9 15 17 16 27 44 50 53 48 47 47 46 53 61 65 92 87 80 74 68 73 78 78 77 79 82 80 78 80 79 78 80 81 92 92 76 79 89 86 83
5 4 7 8 8 7 7 8 10 13 15 20 20 29 38 47 53 57 42 38 36 41 50 59 86 89 87 86 84 82 79 78 79 76 79 79 81 81 78 82 84 83 82 84 85 86 83 81 80
6 6 7 7 8 8 7 6 8 9 14 19 20 23 35 40 51 53 41 38 38 38 41 42 44 66 87 85 83 85 85 81 81 84 83 82 85 84 82 89 87 85 79 82 78 84 82 78 81
5 5 6 6 7 8 7 8 8 8 9 14 13 18 31 36 50 46 43 42 41 40 36 40 40 40 47 49 79 81 85 85 84 88 89 88 82 84 87 81 81 82 79 78 89 84 82 80 81
4 6 7 7 7 7 6 6 9 10 9 11 13 15 27 36 42 41 38 37 34 34 38 48 44 48 47 38 45 73 79 78 82 81 83 81 57 69 64 83 84 81 83 80 84 82 85 86 88
6 7 8 7 6 6 5 6 8 9 11 13 17 24 30 34 32 32 32 31 29 31 31 35 52 54 50 34 39 48 52 49 50 50 57 49 59 62 63 79 88 86 86 84 84 86 81 88 64
8 8 7 8 9 8 7 7 8 8 10 10 14 20 28 29 29 31 26 23 22 27 28 35 47 55 54 47 43 62 56 54 51 56 52 64 59 63 62 69 67 76 83 78 88 92 92 92 93
11 10 10 11 11 10 10 10 10 10 10 12 13 16 22 26 26 24 22 19 21 25 28 33 47 52 50 38 38 43 42 44 43 52 56 59 56 68 66 69 66 75 78 81 89 97 95 88 85
13 13 14 13 14 14 14 13 14 12 12 14 16 20 21 21 20 18 17 19 20 24 27 29 37 45 47 45 42 43 41 38 40 40 48 44 46 58 56 59 57 61 65 79 84 87 90 93 89
14 15 16 15 14 14 16 11 12 11 13 15 16 17 16 16 16 16 18 19 21 21 25 28 31 36 37 40 43 41 37 34 33 38 45 52 50 57 55 55 57 56 70 78 88 90 87 89 86
16 17 15 14 12 13 13 11 14 9 13 13 15 16 15 14 15 16 17 18 19 20 22 25 26 30 33 34 31 26 25 28 32 38 47 47 45 52 48 45 45 48 60 73 78 81 87 89 87
15 15 10 10 12 12 11 10 8 8 11 13 12 13 15 15 15 14 16 17 18 18 20 20 13 23 26 27 24 21 23 27 31 35 38 43 43 42 43 40 42 45 44 48 55 65 75 78 81
10 12 13 12 9 11 10 12 7 7 9 11 11 10 12 14 14 14 15 17 19 19 19 20 20 22 24 25 20 26 31 24 25 30 30 37 35 34 32 34 37 39 33 36 35 36 47 50 54
15 16 15 14 10 12 13 13 10 8 8 8 9 10 10 11 13 14 16 18 18 21 20 20 20 22 24 22 25 23 24 25 26 25 25 31 28 29 29 29 35 34 31 33 37 39 33 36 40
17 17 16 13 13 17 16 15 11 8 8 10 10 12 12 12 11 13 18 20 21 23 23 21 22 23 22 21 22 23 26 25 25 22 26 28 24 28 31 26 28 32 31 35 40 39 41 35 34
15 18 17 15 13 17 16 14 10 10 11 11 12 13 14 15 14 16 18 22 25 24 24 21 20 22 23 19 21 21 23 21 22 23 29 31 30 30 28 30 30 31 32 38 38 41 39 38 36
16 21 21 21 18 15 16 13 11 12 11 12 13 15 14 16 15 16 19 22 26 27 27 23 20 20 23 23 18 21 24 26 23 23 25 30 34 32 32 33 33 35 36 35 38 38 40 38 40
21 20 22 22 23 21 16 16 12 12 12 12 14 15 16 16 16 16 18 20 24 28 28 25 23 21 20 24 23 29 23 22 21 22 20 20 26 31 32 32 33 36 36 40 42 33 43 46 42
23 22 25 24 26 24 19 19 12 13 13 13 14 15 16 17 17 18 18 18 19 24 30 30 26 24 22 23 32 31 35 30 24 25 28 31 31 31 30 32 35 38 36 40 47 50 51 43 46
22 24 21 23 26 37 24 21 14 13 14 14 14 15 18 18 19 18 18 18 20 26 30 32 29 26 24 25 27 40 43 37 32 35 36 40 35 36 33 28 35 38 39 39 43 49 50 50 49
23 28 42 44 40 36 21 26 20 14 14 14 16 17 18 20 21 21 20 20 20 22 26 30 30 29 26 28 31 37 40 40 40 36 35 33 34 31 34 36 43 36 35 35 37 44 48 46 46
30 30 51 71 44 37 22 26 17 13 13 14 17 18 20 20 23 23 23 23 22 23 24 26 26 27 26 27 30 33 35 35 35 32 34 34 31 31 32 34 34 34 34 35 39 40 42 45 46
32 40 31 47 44 56 33 20 16 14 14 17 18 18 21 23 24 24 24 26 25 26 27 29 27 27 26 27 30 34 38 38 34 33 35 33 32 27 30 34 36 36 36 36 39 42 45 46 50
32 28 48 51 90 65 32 31 25 20 18 17 19 22 24 24 25 25 25 27 28 28 28 32 30 28 28 26 31 36 36 35 34 35 36 36 35 34 34 34 34 34 35 37 40 43 43 48 49
35 39 36 33 44 68 63 37 22 24 24 23 22 23 24 25 26 26 26 26 28 30 29 30 30 29 31 27 36 38 35 34 33 33 32 34 35 34 34 33 34 35 36 37 40 42 43 46 47
29 35 36 58 55 53 61 57 24 24 23 23 24 24 25 25 26 26 27 30 30 30 27 28 30 31 28 31 35 36 35 32 33 35 34 36 36 37 36 35 34 34 34 35 36 40 37 41 43

GFSSGP_sfc_rhum_006.txt.gz
RH
35 10 12 8 12 10 11 8 7 8 11 17 15 25 35 39 44 71 51 60 58 51 50 54 83 78 80 83 85 86 87 85 85 80 80 84 84 85 85 84 85 81 68 71 80 80 76 78 82
14 8 5 8 13 12 11 8 8 8 8 12 15 27 49 45 40 45 56 53 55 50 54 61 87 83 76 77 78 83 84 85 85 83 78 84 83 80 82 74 72 78 75 71 77 84 84 80 84
20 8 7 9 10 13 15 9 8 6 8 10 16 35 61 48 37 42 48 52 53 54 55 70 87 84 78 77 78 80 82 84 86 86 80 80 83 81 79 80 78 77 81 81 78 88 93 78 87
6 6 6 9 9 10 10 9 8 7 9 9 13 38 48 39 37 41 40 47 51 53 54 84 89 84 77 71 75 80 81 84 88 88 86 86 85 75 72 77 79 82 82 81 87 79 94 91 88
6 7 8 8 8 7 8 8 8 8 13 14 15 60 55 50 44 41 43 40 48 53 58 67 90 88 84 80 82 85 84 83 82 86 86 84 84 84 83 83 84 82 83 75 81 81 88 92 92
7 6 8 8 8 7 8 8 9 12 14 16 53 75 52 46 47 45 38 36 39 51 56 64 87 88 86 85 85 85 84 83 82 83 83 86 87 85 88 89 88 86 84 84 82 85 88 84 83
7 8 8 7 8 8 7 7 8 9 14 15 31 65 57 49 48 44 35 36 37 37 42 49 65 77 87 86 84 85 83 82 80 80 78 85 90 91 89 89 87 82 85 88 81 83 85 85 85
6 6 6 6 8 8 6 7 7 8 8 6 7 24 63 40 46 43 41 39 41 43 41 46 47 62 79 73 81 82 85 83 80 84 84 87 90 91 88 86 83 79 86 85 81 79 90 86 87
4 7 7 7 7 7 5 6 8 8 8 9 10 17 33 39 42 41 41 37 38 36 47 57 53 58 58 56 68 80 84 84 87 86 86 88 78 77 82 85 84 79 78 77 76 74 77 80 83
7 9 8 6 6 7 6 6 7 7 8 10 14 16 24 33 37 36 31 34 34 37 37 46 62 67 66 43 50 72 62 68 72 70 75 75 75 85 81 87 87 84 82 82 80 80 78 77 84
8 9 8 8 10 7 8 7 8 8 9 12 12 17 20 24 26 29 27 25 28 34 39 45 60 68 69 65 68 66 67 71 71 69 71 79 74 80 82 78 84 85 85 91 88 89 92 90 94
11 10 10 11 11 11 12 12 11 10 10 11 12 13 18 22 24 26 28 26 26 30 34 43 60 65 67 61 58 65 59 63 67 70 69 78 81 82 82 78 80 83 83 82 88 97 94 95 92
12 12 12 12 13 12 12 12 12 11 10 12 11 16 18 20 22 23 27 27 32 33 34 40 52 61 64 60 66 66 64 62 60 63 63 69 71 80 76 80 78 80 80 88 93 93 94 95 96
13 13 13 12 11 11 14 12 10 9 10 12 13 17 18 19 19 21 22 23 26 27 34 40 45 54 54 59 63 66 62 59 57 61 65 65 74 78 77 75 74 75 78 84 90 95 93 92 94
13 16 15 14 10 9 11 10 10 10 11 12 12 15 16 16 16 18 20 23 22 27 31 38 41 48 52 55 56 57 52 49 57 62 60 61 65 66 64 67 66 70 74 78 85 86 90 95 94
15 14 11 9 10 10 10 12 8 8 9 12 12 13 15 16 15 15 19 20 24 29 30 33 23 40 45 49 45 43 45 53 55 62 63 59 57 56 60 62 66 65 67 65 65 68 73 82 86
12 14 14 13 9 10 10 13 9 8 8 10 12 12 12 15 15 15 17 22 25 28 29 32 32 34 40 42 41 44 47 48 50 58 58 55 51 49 52 58 66 61 56 57 56 60 61 59 59
20 19 17 17 12 13 16 16 12 10 9 10 10 11 12 13 12 16 18 23 25 33 32 33 33 36 40 41 44 46 48 46 47 50 48 50 49 45 49 54 54 53 54 56 61 63 62 61 60
15 16 16 15 12 15 17 16 13 9 9 12 13 14 15 16 14 18 23 28 30 36 33 32 32 38 37 42 46 46 50 48 49 46 44 49 45 47 50 53 50 53 54 57 56 60 61 66 63
13 16 19 17 15 18 18 17 12 11 12 12 13 16 17 17 16 19 24 31 35 35 35 34 33 35 36 36 40 43 46 42 41 45 51 47 51 47 46 53 49 50 56 58 62 63 64 66 62
16 23 24 24 20 16 16 14 13 12 12 13 15 16 16 18 20 20 26 33 38 40 42 35 33 33 37 39 36 41 44 46 44 44 45 51 51 53 53 52 54 54 57 61 64 63 62 66 65
23 19 23 25 26 29 20 22 13 12 14 14 16 21 22 21 20 21 28 30 36 41 44 40 38 34 33 43 37 46 39 36 35 43 39 36 52 55 50 52 54 58 59 60 64 52 71 68 68
24 23 26 24 27 26 20 20 15 13 13 14 17 18 23 24 25 25 25 26 34 37 47 46 42 41 38 42 46 43 48 45 47 49 48 46 48 45 43 46 53 58 62 64 66 67 67 69 70
21 24 23 22 27 51 24 24 21 15 14 14 14 17 22 25 28 26 27 28 29 39 43 49 47 38 41 43 47 54 52 53 54 53 55 52 51 54 54 48 57 59 60 60 62 63 62 64 64
25 32 57 64 61 55 22 26 25 18 14 15 18 21 26 31 31 32 30 30 34 38 41 47 44 40 41 49 51 51 58 59 58 57 56 52 52 49 51 51 54 54 54 55 56 58 60 60 57
30 33 69 73 57 52 30 31 19 13 13 14 16 22 24 30 32 30 31 35 35 39 40 40 36 38 38 43 47 53 54 55 56 56 54 53 51 50 47 48 51 51 52 56 58 57 57 59 61
32 41 32 55 58 68 43 28 20 15 15 18 19 20 28 29 31 29 31 36 38 40 42 47 43 38 38 45 52 53 55 55 55 52 54 53 51 38 50 52 53 55 58 59 60 60 57 57 58
31 29 51 67 92 66 38 40 34 25 27 26 26 26 29 31 31 32 32 37 38 38 39 47 50 41 39 40 48 46 51 53 50 52 51 50 50 48 51 52 53 53 54 54 57 59 58 59 60
33 39 41 37 55 76 77 48 31 32 30 30 28 28 30 31 32 33 34 35 37 40 40 40 40 39 42 44 48 56 51 52 49 47 47 47 52 49 50 50 50 48 48 49 53 54 54 54 53
27 35 36 79 69 65 71 62 31 30 28 29 28 27 28 30 30 31 32 34 39 43 45 44 43 42 42 44 51 51 50 48 50 49 49 52 52 52 52 48 45 44 44 47 49 51 47 50 51

GFSSGP_sfc_rhum_009.txt.gz
RH
51 20 28 18 21 23 23 16 14 14 19 42 42 52 62 60 68 93 78 73 60 64 64 75 85 84 85 87 88 89 86 86 86 83 82 85 85 86 83 82 83 80 72 68 69 75 74 84 87
47 19 12 15 24 27 21 14 12 13 17 35 36 36 58 73 66 73 77 67 62 62 76 78 86 85 85 85 87 88 85 85 86 86 88 85 85 84 80 78 73 71 70 70 82 83 77 85 95
38 22 13 18 25 22 20 14 12 13 11 14 54 42 57 67 56 70 69 62 65 73 82 83 86 82 81 86 87 87 88 88 87 88 84 86 80 76 74 81 79 75 74 78 74 76 85 90 93
19 14 13 16 28 15 14 13 12 14 12 35 54 67 64 59 59 66 63 63 70 89 94 91 88 84 81 86 88 87 88 90 89 89 90 86 80 76 74 75 76 77 81 82 85 72 80 92 92
19 14 16 16 14 13 13 12 12 21 45 53 57 71 72 62 56 56 62 59 73 87 91 91 91 88 86 83 84 88 87 86 89 89 89 88 85 83 81 83 85 85 81 80 80 78 76 81 92
13 14 17 17 15 11 10 11 12 16 24 44 58 70 75 57 57 56 53 63 62 73 82 83 88 87 87 85 83 85 85 85 85 87 91 89 89 92 90 91 91 90 84 77 75 77 78 77 81
14 16 17 14 14 11 10 9 12 13 14 27 50 71 74 56 59 60 59 49 60 68 80 90 88 86 86 85 84 82 82 85 86 86 88 93 93 93 91 88 86 88 88 89 89 89 89 89 88
10 13 14 13 13 14 10 12 13 12 13 16 42 66 68 48 60 63 56 55 54 60 63 82 87 88 89 87 84 84 82 84 88 89 88 95 92 91 90 87 86 87 84 82 81 88 91 90 88
10 15 17 14 11 12 10 12 14 14 14 15 22 54 54 57 60 68 60 59 54 53 68 66 72 82 87 78 79 84 84 85 88 88 86 94 96 92 83 87 84 79 80 77 74 77 84 77 79
14 17 13 14 14 14 12 11 12 11 12 20 28 49 52 55 62 63 60 56 47 48 61 69 72 75 74 58 84 85 83 90 90 86 87 89 88 86 86 86 87 84 82 82 80 78 76 77 87
16 18 16 16 16 14 15 17 13 15 17 21 23 37 52 56 56 53 40 40 44 47 53 64 75 79 78 76 87 91 82 86 83 81 86 82 87 92 97 98 96 97 86 97 92 93 95 89 93
18 15 16 17 16 17 20 19 17 20 20 16 17 28 29 33 36 35 34 34 36 47 53 66 70 74 75 76 82 81 81 80 86 82 83 90 96 93 93 93 93 93 95 94 94 98 95 93 94
19 18 18 15 16 18 17 17 18 17 14 16 16 22 28 31 33 33 27 29 33 36 47 61 68 73 71 71 76 71 72 72 71 76 71 80 89 92 91 89 87 92 94 93 96 97 96 96 95
21 18 19 17 17 16 18 19 20 13 15 17 17 25 36 30 28 33 27 28 29 29 45 54 61 64 64 75 70 70 67 60 66 74 73 73 82 86 85 87 84 88 90 94 94 95 92 98 97
18 22 22 18 16 15 17 16 17 13 17 17 18 21 23 24 26 26 26 27 29 32 41 48 50 60 59 68 66 65 62 62 67 70 66 65 74 68 71 73 78 78 82 87 88 90 91 94 94
24 27 27 19 15 16 14 19 15 14 18 19 18 20 21 22 22 24 25 28 28 34 39 40 34 54 55 62 61 59 51 57 66 72 70 61 60 64 67 71 73 62 69 70 58 68 65 73 71
24 31 24 21 15 17 20 22 18 16 15 18 19 18 21 23 23 23 25 26 30 33 36 38 31 44 46 46 49 53 52 57 63 75 70 63 59 53 56 69 64 57 65 63 58 60 65 64 64
29 28 23 29 20 20 24 25 21 17 18 19 20 21 23 24 22 21 26 29 32 36 34 36 36 32 42 45 44 51 50 48 59 66 66 59 59 52 51 62 66 57 60 66 62 60 65 67 67
22 22 27 27 21 26 28 27 22 21 18 20 22 24 24 23 26 30 31 32 36 39 32 32 35 38 41 42 46 48 55 53 56 51 54 57 56 50 50 55 61 62 60 62 59 65 62 63 68
23 29 35 28 24 28 29 27 24 18 19 20 25 24 25 24 25 28 33 36 33 36 37 36 34 38 40 43 45 46 49 50 50 52 56 57 56 55 52 55 55 54 58 55 59 70 70 71 67
27 34 36 36 32 29 31 30 20 21 18 21 22 23 23 23 25 25 25 35 41 40 39 39 38 37 43 40 42 47 53 51 46 49 55 55 53 56 56 56 61 60 62 63 66 63 62 69 71
31 30 31 34 42 48 32 46 24 22 21 22 22 28 28 28 26 27 29 32 39 42 45 41 40 40 40 46 44 43 41 44 44 46 47 51 58 59 58 57 61 64 67 65 70 66 73 72 77
30 31 34 37 44 47 35 37 25 24 25 24 28 30 31 32 30 29 30 32 35 43 47 49 45 44 44 47 51 49 47 55 50 52 50 54 62 60 56 58 59 65 70 64 64 66 69 76 78
28 38 40 44 44 66 40 41 39 27 23 24 28 31 32 32 33 34 37 34 34 41 45 51 49 45 47 49 51 56 52 47 55 54 59 59 60 57 54 51 58 60 59 57 59 59 56 62 67
36 52 80 73 77 74 35 41 38 28 24 26 29 31 31 31 38 36 37 37 43 53 43 49 52 51 51 55 56 56 57 52 49 58 66 58 60 57 52 52 53 54 54 55 54 56 60 62 65
43 47 87 81 87 76 43 52 34 24 21 23 25 28 33 32 34 37 43 44 45 45 47 49 49 49 49 56 60 62 63 60 53 60 67 66 61 58 55 57 58 56 57 60 65 62 54 65 69
44 66 46 64 76 89 66 44 26 29 29 29 30 30 35 35 38 40 43 47 48 49 51 58 57 56 54 54 57 61 68 68 66 64 60 61 58 50 59 62 62 68 73 71 60 68 68 69 67
40 41 68 85 94 88 61 59 49 43 36 34 39 38 40 42 43 43 44 48 50 53 56 59 57 54 50 50 54 57 63 59 62 63 59 57 59 58 66 73 79 75 67 60 61 62 64 68 70
49 55 55 52 75 94 98 78 44 40 38 44 33 34 40 41 45 45 44 46 53 58 61 64 59 58 51 50 59 61 60 57 57 55 55 57 59 63 70 70 69 61 56 54 57 62 62 66 65
36 48 48 88 92 89 92 75 38 42 41 33 35 39 43 41 44 45 49 53 56 58 64 59 59 64 51 54 60 61 58 55 55 54 55 58 59 61 57 60 56 54 56 58 62 62 60 58 58

GFSSGP_sfc_rhum_012.txt.gz
RH
52 32 29 18 20 24 25 19 17 22 53 58 57 58 67 72 75 89 81 70 71 75 79 80 86 88 89 90 90 88 88 88 86 85 83 84 85 84 83 83 83 75 70 69 74 74 79 77 79
45 21 14 19 25 28 23 16 15 28 51 46 46 62 70 89 80 86 82 68 70 72 81 84 86 88 88 89 89 87 85 85 86 86 87 87 85 84 80 78 75 71 69 78 78 76 75 82 88
28 23 12 20 27 25 22 16 14 34 47 42 62 65 74 78 77 81 77 70 74 87 89 84 84 87 89 89 89 88 87 87 89 89 87 84 82 80 78 80 79 76 74 77 76 78 83 88 84
21 14 14 16 22 20 18 15 16 20 47 53 63 79 75 67 71 76 70 75 85 93 92 90 86 85 90 90 88 89 89 89 90 92 90 83 80 77 74 75 75 78 80 83 78 81 86 85 83
18 16 17 17 17 17 12 13 27 48 58 57 57 71 80 70 69 69 69 75 87 93 93 91 89 85 85 85 86 88 88 90 90 91 90 89 86 86 86 86 83 85 81 79 79 81 90 91 84
14 15 19 20 18 12 12 13 17 36 59 57 59 71 75 71 68 67 66 75 78 85 91 89 87 85 84 84 85 86 88 88 89 92 91 89 90 90 91 91 91 88 82 76 75 77 82 83 90
14 17 20 18 16 14 13 13 15 13 15 43 53 64 75 65 69 60 69 74 78 83 90 94 92 87 87 85 84 84 85 88 89 92 94 93 93 94 90 90 89 88 90 90 88 82 85 87 87
14 14 18 18 14 16 9 13 15 13 14 44 56 62 60 59 64 62 64 73 77 86 90 94 94 92 91 91 88 87 86 85 90 91 94 93 93 92 90 91 89 86 85 83 87 90 90 89 88
13 16 21 21 16 16 12 16 15 15 14 22 49 50 55 50 67 67 69 69 71 76 89 95 95 93 89 83 81 88 85 87 88 89 95 94 96 94 91 89 88 82 80 78 78 79 82 79 82
15 20 26 16 14 20 19 19 15 13 19 34 59 63 65 67 70 70 70 64 61 72 72 78 84 88 90 66 83 90 87 92 93 92 95 97 97 96 91 90 86 81 82 81 81 80 80 81 90
40 25 19 20 20 21 24 20 18 17 24 34 62 71 71 73 69 71 67 52 52 57 70 77 79 84 82 82 93 98 98 97 96 92 93 95 94 97 98 98 98 97 90 97 94 94 96 92 94
21 21 19 20 20 21 24 24 21 42 18 19 55 62 68 67 67 64 51 47 50 56 65 77 80 78 81 90 95 94 92 95 95 93 90 95 98 97 97 98 97 97 97 96 97 98 97 94 92
23 22 20 18 18 20 20 20 19 20 18 19 32 40 55 56 56 45 39 42 51 53 64 75 78 80 77 76 78 78 80 82 80 80 79 89 96 96 96 95 92 95 97 97 97 96 95 94 96
25 22 21 19 20 22 21 22 22 18 19 20 28 31 34 36 37 36 35 38 42 48 60 73 73 73 75 76 74 73 70 69 75 80 80 82 92 94 95 95 94 95 95 95 94 94 93 95 96
22 25 22 22 22 18 17 19 18 16 19 20 25 28 28 29 34 32 29 32 32 44 52 64 68 68 67 75 70 68 65 64 74 76 73 74 79 76 84 86 90 89 92 91 89 86 84 84 84
28 28 31 22 22 16 17 20 15 18 21 22 22 26 28 28 28 33 31 30 34 40 50 53 47 63 66 71 68 64 64 68 70 76 75 68 70 71 74 78 76 73 81 82 65 68 63 67 69
29 32 30 24 18 22 22 23 20 22 20 22 23 24 26 28 27 28 30 32 34 41 46 45 49 60 59 65 65 59 58 58 66 78 76 68 66 64 67 78 72 64 71 70 63 65 66 65 65
33 30 26 34 24 30 31 28 26 24 22 21 22 23 23 23 22 23 29 33 39 43 42 42 36 48 49 51 53 58 60 57 65 77 75 67 66 60 62 72 70 63 69 70 69 62 70 68 65
30 32 37 32 27 32 36 35 29 23 26 27 30 30 31 32 36 38 37 41 41 42 39 40 37 38 49 50 51 53 56 57 59 66 68 67 64 61 59 64 68 69 66 68 67 66 68 66 72
27 38 39 34 29 37 36 35 28 22 24 28 29 30 30 32 35 35 36 40 37 37 36 37 36 40 43 46 47 47 49 53 53 57 61 69 67 63 58 61 64 66 70 68 69 71 74 73 74
32 41 41 40 39 39 36 35 24 23 27 26 28 28 27 29 31 34 36 38 41 40 40 37 38 38 44 45 47 50 56 58 56 56 59 60 63 61 61 60 66 65 69 68 64 67 68 71 77
35 30 35 39 46 51 38 55 34 25 26 27 28 29 29 30 30 28 30 39 45 41 45 45 42 42 42 48 48 48 41 41 43 47 54 58 60 59 62 63 67 68 73 71 74 71 78 78 76
32 33 40 44 53 53 43 46 31 25 26 29 34 35 37 36 34 35 37 35 34 40 45 48 46 46 46 50 55 54 51 47 44 58 54 56 62 64 64 68 69 77 77 69 62 60 60 68 73
34 42 48 52 53 70 47 46 42 37 32 36 37 33 35 39 38 37 37 40 45 45 48 50 51 49 51 53 57 61 59 52 56 58 64 66 71 73 70 62 62 63 61 61 64 61 61 63 62
43 59 81 69 80 73 46 50 42 36 31 29 32 38 38 35 39 39 39 40 46 50 50 50 53 50 50 59 62 63 66 64 62 56 59 64 65 62 63 61 65 65 70 72 74 75 76 68 68
47 57 85 82 88 77 51 58 42 34 36 35 29 33 33 35 39 44 48 50 50 50 57 53 53 55 53 59 61 65 70 76 73 69 67 72 64 65 64 69 76 77 79 82 83 86 83 77 71
47 64 52 67 83 90 70 54 36 32 39 37 39 40 42 43 51 49 50 53 56 60 62 62 62 62 56 64 65 65 67 73 78 72 71 68 63 63 74 80 85 90 88 88 87 81 72 70 70
46 45 68 84 87 91 75 68 57 45 46 41 43 52 53 52 50 50 52 56 61 64 65 69 66 59 60 66 62 59 67 69 68 67 67 69 72 76 81 87 90 92 86 75 70 72 71 72 72
54 66 62 62 84 97 98 86 54 46 48 54 47 50 53 53 55 57 56 56 53 54 57 64 70 71 73 65 60 66 60 64 64 63 68 68 74 77 83 86 80 76 76 72 71 68 68 72 71
53 61 65 91 84 92 90 74 40 49 42 48 51 49 52 53 61 64 64 63 62 64 68 68 68 72 65 58 64 68 62 62 62 65 66 67 67 70 71 72 68 69 68 65 67 71 66 70 66

GFSSGP_sfc_rhum_015.txt.gz
RH
66 33 30 20 18 23 32 19 17 35 80 73 62 63 76 88 71 79 79 73 81 86 87 86 90 91 91 90 88 88 89 88 85 84 85 86 85 85 86 83 81 74 71 68 74 76 77 78 81
50 23 15 21 23 26 22 19 32 63 72 66 65 73 82 92 88 92 82 69 74 82 88 86 89 90 89 89 88 89 84 85 87 87 86 84 84 85 81 77 77 76 70 74 73 76 76 81 86
33 19 13 22 28 27 24 21 54 61 57 51 75 72 80 91 84 84 77 75 83 91 89 85 89 90 89 88 87 87 86 90 91 90 86 84 82 79 80 80 80 77 73 73 73 75 77 86 88
21 14 15 19 22 21 22 27 41 54 57 62 73 86 78 75 78 80 76 78 88 92 90 86 89 90 89 88 86 86 86 89 91 92 88 84 81 77 73 80 82 78 78 81 75 78 86 88 85
16 16 18 18 21 19 26 44 45 54 61 60 61 78 88 77 82 81 86 79 87 93 92 86 89 87 88 84 83 87 88 90 90 90 92 87 85 87 88 87 80 85 82 80 82 81 89 90 82
14 16 18 22 19 15 15 29 37 54 59 53 63 70 83 78 83 83 82 87 78 88 93 90 85 82 81 83 86 88 88 89 91 91 91 90 90 91 90 90 90 86 79 75 74 78 86 85 88
14 16 21 19 17 15 16 18 15 26 45 44 55 77 82 78 77 78 86 91 86 90 94 94 91 86 87 86 86 87 89 89 92 92 92 91 91 92 91 91 89 90 90 89 84 81 85 84 87
15 15 19 19 16 16 12 16 17 15 24 56 62 63 88 71 72 75 83 91 93 93 93 93 92 91 91 92 89 89 90 90 91 93 93 93 92 90 92 93 88 87 84 86 88 91 90 88 88
15 20 24 21 18 23 16 18 17 17 36 38 61 54 53 64 72 75 81 83 90 90 94 94 94 93 91 88 82 88 87 89 91 94 93 96 97 95 92 90 88 82 82 82 80 80 80 80 81
17 24 25 19 16 21 20 28 18 22 52 62 62 68 65 74 75 75 79 81 85 93 91 96 95 95 93 72 82 90 89 94 94 96 98 98 96 95 93 89 86 84 83 82 82 84 84 87 93
25 25 19 20 19 19 26 24 22 20 47 56 47 68 79 82 76 76 74 68 78 83 78 85 89 92 93 92 91 98 98 98 97 93 95 97 98 97 98 98 98 97 90 97 95 96 97 93 95
21 24 20 22 20 23 26 43 25 43 18 37 46 64 81 79 74 80 76 61 60 64 72 81 89 87 84 96 97 96 98 97 97 96 94 97 98 98 98 99 98 98 98 96 97 98 97 94 94
23 24 21 21 20 23 22 21 22 20 19 23 58 70 76 74 74 74 65 58 55 61 68 81 88 88 80 88 87 91 92 97 94 93 85 95 97 97 97 97 97 96 98 97 98 97 96 95 95
26 24 22 23 22 24 25 24 25 20 21 24 60 71 74 67 68 62 51 54 56 57 67 79 86 86 78 79 78 77 78 77 83 85 84 86 96 96 96 96 96 96 97 96 95 93 92 93 93
26 26 25 26 26 23 22 19 19 19 22 24 47 59 59 56 54 46 43 46 50 54 63 79 78 82 81 78 77 74 72 70 77 81 81 84 88 88 94 96 96 96 95 93 90 86 76 76 75
26 28 30 22 26 20 19 23 16 20 22 23 30 36 37 40 39 41 38 39 44 53 62 71 60 73 75 81 78 74 73 74 73 81 83 76 82 78 83 85 89 85 91 88 67 70 65 68 71
31 34 33 26 27 30 24 24 19 27 22 22 25 29 33 35 32 34 38 37 39 50 59 62 63 71 71 78 78 74 70 69 70 81 83 77 74 77 79 82 81 75 79 80 66 68 67 64 65
37 34 31 34 28 35 39 32 29 29 26 25 28 29 28 30 27 28 30 36 39 53 56 52 55 67 66 65 64 64 64 66 67 72 82 77 76 74 70 78 80 72 75 76 73 66 74 70 67
31 39 45 37 31 37 43 42 35 33 29 31 33 30 35 38 43 44 40 45 47 52 49 46 39 54 57 57 57 57 59 60 64 64 69 77 75 72 71 72 77 74 73 70 72 70 68 74 75
35 42 40 37 33 43 41 40 26 24 27 34 36 37 36 40 40 42 46 46 42 42 44 45 41 39 47 50 50 51 53 56 58 60 63 70 74 71 68 65 68 72 73 73 76 74 79 76 81
34 42 42 41 41 43 43 39 28 26 28 28 29 32 33 39 38 40 38 43 44 42 41 40 40 41 46 49 49 52 57 58 60 57 62 59 69 69 69 63 60 68 71 69 72 76 74 74 79
40 33 40 41 49 53 44 51 35 28 29 32 34 35 38 33 34 36 38 41 42 39 43 44 44 44 44 49 51 51 49 43 43 44 48 52 65 62 65 62 62 64 70 76 74 73 80 80 78
37 39 46 49 55 62 45 47 39 36 30 38 42 36 38 39 36 34 34 32 38 43 46 52 56 54 52 55 57 60 60 55 52 55 62 59 62 69 65 65 61 67 76 76 74 69 65 69 69
37 48 52 57 58 68 55 51 51 43 40 40 38 37 39 37 35 38 41 41 42 50 54 57 55 52 57 59 62 67 69 65 66 64 70 64 71 72 77 75 76 70 68 72 74 67 66 67 68
46 64 76 65 79 72 53 52 50 40 37 36 34 36 33 37 42 44 44 44 50 55 61 58 62 59 61 63 62 62 65 71 75 74 73 72 78 76 75 72 69 76 79 85 85 87 82 82 82
52 61 85 70 89 82 56 64 46 35 40 37 37 37 44 47 45 54 56 59 62 66 66 65 63 63 62 63 63 70 70 74 78 81 84 84 78 81 83 86 84 87 86 88 90 93 94 95 96
53 67 58 74 85 92 76 60 45 40 46 48 48 50 57 58 57 56 59 63 65 64 64 69 68 66 67 70 77 74 68 69 75 78 81 83 80 78 91 93 94 90 88 92 95 94 90 86 82
47 50 72 87 88 88 79 76 64 51 54 46 51 58 59 59 61 64 64 63 62 62 65 72 74 71 74 76 72 55 61 70 74 75 78 81 80 88 93 90 89 90 91 93 92 84 77 79 81
62 70 69 68 86 97 98 85 61 56 55 55 60 60 63 66 67 68 68 67 67 69 69 72 74 76 80 75 63 66 72 69 72 73 79 82 87 87 88 77 76 87 85 81 78 79 75 74 76
56 67 69 91 86 92 93 78 48 51 55 63 69 66 66 63 67 70 68 66 71 73 74 75 78 82 72 62 64 70 73 67 69 72 72 75 72 70 66 72 76 76 75 75 73 75 70 72 71

GFSSGP_sfc_rhum_018.txt.gz
RH
68 35 28 20 17 20 25 22 18 56 81 77 72 68 84 96 74 69 86 82 85 91 92 93 92 91 90 89 90 90 89 87 85 86 85 84 85 86 83 82 77 72 70 70 72 71 73 77 79
61 24 16 21 22 27 25 25 47 71 80 77 72 75 89 93 93 94 83 72 79 86 90 92 90 90 89 88 89 89 86 87 88 86 85 84 85 85 82 76 74 75 71 70 70 72 74 77 84
34 15 14 24 31 30 29 30 80 81 74 58 83 82 86 97 91 90 80 73 84 89 89 93 91 89 88 87 87 87 88 91 90 89 86 84 83 82 80 82 84 78 73 71 71 74 75 85 88
20 14 16 24 38 30 28 31 71 70 63 67 84 87 82 82 84 82 77 80 90 92 89 92 91 88 87 86 85 85 86 90 92 91 87 83 82 80 80 79 81 80 77 77 75 78 84 90 87
16 16 19 22 25 26 41 36 51 60 63 64 67 89 89 89 88 82 84 82 91 92 90 89 92 88 87 82 82 86 88 89 90 91 91 86 87 87 87 83 81 85 83 81 84 82 89 91 88
14 17 21 23 21 16 20 36 51 56 59 63 73 79 88 88 89 89 86 89 86 93 92 88 85 82 83 85 85 86 88 90 90 89 92 90 90 90 88 90 90 86 81 79 78 78 88 86 84
14 18 22 20 19 18 17 18 40 46 50 51 64 85 88 87 89 88 91 90 89 93 93 92 90 85 85 85 86 87 88 89 91 91 91 90 91 93 92 91 90 88 89 90 87 85 90 90 90
16 15 19 29 17 17 15 17 18 23 36 59 60 86 88 81 80 88 93 93 92 93 92 92 91 91 91 90 87 87 89 91 92 92 92 92 91 91 92 91 87 84 84 84 86 84 83 82 82
18 19 22 19 19 28 20 34 21 24 45 44 64 64 67 71 84 90 92 93 94 90 93 93 92 91 90 86 82 88 86 90 91 94 92 96 96 94 92 90 86 82 82 80 80 81 82 81 82
19 22 36 18 17 46 33 26 17 31 59 66 68 74 81 81 86 89 92 94 93 95 94 94 94 93 91 77 84 90 89 94 95 97 97 97 96 95 92 89 86 83 83 82 82 82 83 85 93
44 24 23 23 20 22 26 24 22 39 60 49 41 70 87 87 85 87 90 90 91 92 93 94 95 95 95 95 93 98 98 98 97 94 98 98 98 97 98 98 98 97 89 97 95 95 97 91 94
22 24 22 23 24 24 26 42 27 32 19 28 46 70 87 86 83 82 86 81 83 88 87 89 90 92 92 95 97 96 98 98 98 97 95 99 99 99 98 99 98 98 98 96 97 98 97 95 94
24 26 23 24 20 23 24 25 23 21 18 26 56 76 86 84 85 83 78 78 77 78 76 82 90 92 87 95 97 97 97 97 96 96 94 97 98 98 98 98 98 98 98 97 98 97 97 95 93
29 29 28 26 27 27 27 26 30 21 23 26 63 74 85 85 82 83 80 76 64 66 70 80 90 92 88 93 90 95 94 95 95 93 88 87 96 97 98 98 97 97 98 97 95 92 90 90 88
30 27 24 24 28 24 36 22 21 22 23 24 53 72 78 78 75 68 66 64 61 61 66 78 88 90 86 82 82 82 82 80 85 88 85 87 93 95 95 98 97 97 97 94 94 92 80 77 75
26 28 30 24 26 25 20 28 19 21 26 22 28 64 72 70 64 67 60 57 60 60 64 77 70 84 87 86 85 82 78 79 78 83 87 85 88 87 93 97 97 96 97 96 81 73 68 69 70
33 38 38 28 33 36 34 34 25 25 28 26 27 37 54 54 43 38 44 46 50 56 62 73 75 76 78 82 86 85 80 80 77 80 86 84 82 86 86 89 90 92 89 96 77 72 69 68 68
45 35 37 40 31 38 47 38 36 35 33 30 30 31 38 40 33 32 32 42 43 51 61 67 66 72 76 78 77 73 72 70 74 74 80 81 83 80 86 86 85 84 83 86 80 71 76 70 68
33 40 47 43 37 42 49 47 34 29 32 36 34 33 33 35 45 50 45 45 48 56 61 59 55 60 71 67 63 62 61 62 65 66 66 75 78 80 82 78 83 85 77 72 76 75 71 78 81
37 42 39 38 39 48 45 44 32 31 36 40 42 42 43 44 47 47 51 55 52 52 56 54 47 44 59 58 56 56 57 58 62 64 63 68 78 81 77 76 72 79 76 78 77 76 80 77 83
40 40 42 42 43 47 46 39 33 28 32 32 33 37 39 41 40 44 44 49 47 47 49 46 46 44 47 51 52 52 55 57 57 54 58 56 64 67 80 73 70 70 74 70 68 71 75 69 86
47 36 40 43 54 54 48 49 41 39 34 36 34 34 36 36 40 41 41 43 44 44 46 47 48 48 47 52 55 58 58 56 53 57 57 49 60 66 69 76 74 70 70 71 74 74 79 79 82
41 48 54 53 60 65 50 46 38 41 39 40 39 39 40 38 38 36 37 38 45 52 57 60 59 60 62 64 66 69 69 72 70 69 69 66 66 69 68 70 73 78 79 77 76 78 77 71 76
42 54 51 61 61 68 61 54 54 49 44 42 42 39 37 38 40 41 44 46 52 63 66 68 65 62 64 66 67 69 77 77 76 69 79 78 82 81 80 80 86 86 82 77 71 72 71 76 76
49 62 68 67 78 72 57 57 56 45 41 45 48 49 55 57 50 58 61 63 65 60 65 63 67 64 61 63 66 76 77 77 74 69 74 81 87 83 88 86 88 89 91 91 91 87 89 90 94
56 64 80 61 89 84 62 64 53 45 46 45 47 58 60 62 63 66 66 68 60 60 65 67 65 66 64 72 77 79 71 66 65 70 80 91 88 92 93 93 94 94 95 96 95 96 97 97 98
60 72 63 78 86 92 79 65 52 52 55 53 60 59 64 66 69 68 68 67 65 62 63 71 74 74 73 79 83 76 69 68 65 72 83 88 90 87 95 94 95 94 92 90 92 95 94 94 94
52 53 72 88 88 87 79 78 64 62 59 58 65 70 67 64 67 66 66 65 67 71 73 76 76 77 77 83 76 61 66 70 75 81 82 87 89 94 94 92 89 89 86 90 93 95 92 91 88
65 72 73 73 88 96 98 83 64 64 63 68 76 73 74 66 65 69 70 72 73 74 77 80 80 81 85 78 68 71 66 70 75 76 81 87 91 93 92 84 79 79 78 88 93 88 81 78 76
66 70 71 87 80 94 95 81 57 57 64 73 78 74 74 70 66 69 73 75 77 76 75 80 82 84 85 71 70 70 74 76 73 77 79 82 78 74 71 73 73 76 80 79 78 77 75 75 73

GFSSGP_sfc_rhum_021.txt.gz
RH
44 22 18 15 14 16 18 20 15 52 57 58 56 48 55 75 56 50 72 66 64 68 72 73 91 89 89 91 90 89 87 85 84 84 85 86 85 85 82 78 72 71 69 69 70 70 71 72 75
31 15 14 17 20 28 33 22 24 57 62 61 59 64 65 70 76 73 66 64 57 64 69 72 90 88 88 89 90 89 86 88 88 87 85 85 84 83 80 74 73 73 70 66 67 70 75 78 82
19 10 12 18 21 25 40 36 56 63 54 52 64 64 69 76 74 65 62 59 60 63 67 73 90 88 86 86 87 89 89 91 91 90 86 85 83 82 80 87 82 78 73 71 71 75 80 86 88
12 10 13 22 27 22 26 47 57 56 49 57 60 59 66 64 68 65 56 60 57 61 64 80 90 87 84 84 84 84 86 92 92 91 87 83 82 79 77 78 76 80 78 77 75 80 87 88 86
12 13 21 25 29 29 34 45 53 49 50 54 54 71 74 70 69 60 63 62 57 60 63 67 91 86 85 81 81 86 88 88 89 90 90 88 87 87 85 79 79 85 80 78 81 83 88 88 85
11 13 20 26 21 14 25 36 39 45 48 54 59 64 71 74 67 66 63 62 58 55 61 63 82 86 86 85 86 88 89 89 88 91 89 89 89 88 88 89 88 86 86 86 80 84 84 85 87
12 14 15 15 16 14 15 12 35 39 45 40 49 62 74 76 68 68 68 62 61 58 59 61 61 69 85 86 87 88 88 90 89 90 89 89 91 92 90 89 87 87 88 88 89 90 88 87 86
12 12 13 12 12 11 10 12 14 18 31 44 44 53 72 63 68 70 69 62 63 66 62 66 67 64 66 64 86 87 90 90 91 91 89 89 89 90 89 89 85 84 84 85 85 83 82 81 82
12 13 14 12 13 14 13 12 13 22 36 31 40 46 46 57 70 76 73 68 68 67 68 70 65 69 68 60 67 80 85 90 92 89 90 86 68 68 69 85 85 81 80 79 80 80 81 79 80
14 16 15 12 12 14 15 12 12 20 32 39 43 51 60 66 71 74 70 69 70 72 67 66 73 73 71 59 64 68 68 67 71 73 76 69 76 70 69 76 85 83 82 83 82 80 78 65 52
18 17 17 16 12 15 17 16 15 23 22 25 23 47 66 68 70 70 64 59 60 63 66 69 74 78 78 71 62 60 63 67 70 77 78 78 76 75 71 70 70 74 80 66 69 68 67 71 69
18 18 16 15 18 17 15 15 16 20 13 17 29 49 64 67 69 68 66 62 62 65 65 69 76 79 78 68 67 64 64 68 68 71 79 78 77 82 80 72 73 78 71 73 72 76 78 74 72
19 18 17 17 17 16 17 16 15 16 14 18 37 62 63 62 60 62 60 60 61 65 64 66 70 70 69 72 69 73 72 70 71 72 76 74 75 79 75 76 73 73 72 69 72 72 69 68 64
21 20 20 19 19 18 18 18 17 14 14 23 45 55 61 62 59 60 63 59 58 58 63 60 62 69 69 66 75 73 73 71 71 71 72 78 74 76 72 72 70 70 69 66 74 71 57 54 56
22 18 19 21 20 18 18 17 15 14 14 17 34 48 60 63 61 58 55 56 53 53 55 57 60 66 70 66 67 66 63 66 66 68 74 72 71 72 74 71 70 67 68 77 71 65 58 48 47
20 21 20 19 22 22 18 22 16 17 18 16 20 29 51 57 58 55 53 53 51 52 50 51 52 60 67 66 61 57 54 57 56 57 60 69 70 71 72 68 69 68 72 71 68 61 52 45 42
22 20 23 23 26 26 25 23 21 21 26 24 23 22 33 50 49 40 34 40 42 48 48 50 57 58 62 63 58 62 64 58 53 56 53 61 65 68 67 62 63 71 70 72 69 61 55 45 41
26 24 28 28 24 29 31 29 25 22 24 25 24 23 24 34 39 28 28 31 36 48 48 50 53 56 59 56 59 54 54 52 53 50 48 56 55 64 64 60 64 65 64 67 68 67 54 46 42
24 28 30 28 28 31 35 32 23 25 27 30 30 28 25 26 29 31 35 32 36 45 46 48 48 52 52 51 49 45 44 41 41 40 46 51 49 56 64 58 60 64 63 62 66 64 64 53 51
27 29 27 29 30 35 33 27 24 25 28 30 29 30 30 29 29 33 34 38 40 37 42 45 46 42 41 43 43 43 43 39 40 42 46 47 50 53 56 61 57 60 60 66 66 66 56 54 52
33 29 31 32 33 35 32 28 28 23 25 25 27 28 29 31 30 31 33 39 42 43 45 38 38 40 42 46 39 40 42 44 40 38 39 40 48 50 53 55 58 59 61 60 64 64 64 54 51
37 29 36 40 40 36 37 30 31 31 28 30 32 31 29 28 28 30 33 38 45 48 51 47 48 45 46 50 48 53 48 48 45 48 44 46 52 53 53 56 58 62 60 62 62 58 63 61 54
37 41 43 42 44 42 39 31 32 31 33 34 33 35 37 37 35 34 38 42 48 55 56 53 48 48 50 53 55 53 52 49 50 52 54 52 52 54 56 58 61 63 61 64 66 66 68 59 64
39 43 42 48 47 50 46 39 41 37 40 38 38 45 49 46 43 45 47 46 46 54 55 54 50 48 51 52 57 60 59 56 53 53 50 48 49 55 60 60 66 68 68 68 64 66 66 63 61
42 45 49 54 58 53 47 42 47 45 41 42 48 50 52 51 52 49 48 46 48 50 54 50 51 50 53 56 62 64 57 58 55 52 50 53 51 54 60 66 69 68 70 70 69 74 77 77 83
47 49 63 55 62 59 53 50 46 44 43 46 48 49 50 52 53 50 50 50 50 52 52 54 53 51 53 57 62 61 55 51 50 51 54 56 57 61 71 71 71 71 72 73 76 88 92 93 96
46 59 51 66 73 74 53 50 44 48 47 47 49 50 51 51 52 49 48 51 53 57 58 60 59 54 53 57 62 56 54 57 56 58 58 58 65 65 74 72 71 72 72 78 85 92 92 90 89
43 46 57 67 77 68 51 58 44 51 48 51 55 57 56 51 48 45 46 52 53 54 53 60 58 56 56 58 60 52 57 56 59 60 61 63 67 72 74 71 71 72 68 72 72 74 75 78 79
52 57 62 60 72 83 88 53 49 49 49 49 58 61 58 56 51 50 51 52 55 57 56 57 60 60 59 61 57 62 60 62 59 57 62 67 72 74 72 64 62 66 72 69 68 70 68 67 64
52 57 56 67 64 77 79 62 42 49 51 55 62 62 58 57 56 55 56 58 58 54 48 51 59 63 62 58 61 63 66 61 56 60 62 66 62 69 73 80 87 87 79 62 58 60 58 55 52

GFSSGP_sfc_rhum_024.txt.gz
RH
28 13 11 10 12 14 21 27 26 34 33 37 36 30 34 40 37 43 45 42 37 41 46 52 89 90 91 90 89 87 83 80 80 82 84 85 85 83 80 76 74 72 68 68 67 68 70 72 75
11 9 8 8 14 18 22 23 26 30 36 34 34 33 30 42 45 49 46 42 37 40 43 50 90 88 88 90 91 90 86 84 84 81 81 81 81 80 75 74 78 74 70 68 68 70 79 82 83
10 8 8 11 12 16 19 21 30 34 35 34 34 34 38 40 41 42 41 38 35 39 42 57 88 87 87 87 88 88 89 90 89 88 84 84 83 80 79 81 80 77 76 73 72 79 84 86 82
7 7 10 10 14 20 19 25 28 31 33 30 27 34 41 43 42 39 40 38 34 34 37 73 87 85 85 82 80 83 88 90 91 90 85 82 79 77 73 71 73 80 80 80 76 84 87 84 83
6 9 12 14 19 22 21 25 26 26 28 29 30 38 44 48 47 42 44 41 34 32 36 43 88 84 83 77 80 83 85 87 90 89 88 86 86 85 84 77 83 82 77 76 76 81 85 82 79
8 10 14 17 23 24 24 27 23 20 24 29 28 30 42 50 46 46 43 39 30 31 38 41 78 85 84 83 84 86 87 87 89 88 87 86 87 86 87 87 85 84 85 80 81 83 85 88 88
9 10 13 15 19 18 19 20 19 18 22 23 25 27 46 48 43 43 39 32 32 31 34 37 41 62 83 85 86 87 88 88 88 87 87 87 89 89 88 86 85 86 86 86 88 86 86 85 84
7 7 10 10 10 11 9 11 16 14 17 27 26 23 35 36 43 41 37 34 35 39 36 40 43 42 47 49 85 88 88 89 89 87 88 88 88 88 88 87 84 84 84 84 83 81 81 80 80
7 7 8 9 8 9 8 9 9 16 19 23 23 24 29 37 43 41 39 36 38 40 46 46 41 49 49 43 56 78 85 88 89 82 86 83 47 50 56 84 82 79 79 78 78 78 78 76 78
6 7 9 8 8 8 8 8 10 13 14 16 22 30 35 42 44 42 36 37 38 44 44 44 52 53 53 39 47 50 47 44 48 49 55 44 56 53 52 69 82 81 81 81 80 78 72 68 35
9 9 10 9 9 8 8 9 8 9 11 10 11 22 35 42 43 42 34 30 33 38 39 44 55 58 56 44 39 36 38 42 46 57 56 54 55 54 53 51 51 53 72 46 51 49 38 45 44
10 10 8 9 10 9 9 8 10 9 9 11 13 18 30 35 36 36 32 28 31 33 38 45 53 57 56 39 35 37 39 41 44 47 61 58 51 54 56 49 49 53 45 53 48 43 53 53 50
12 13 12 12 12 12 13 12 12 10 9 11 16 24 26 28 28 29 28 25 27 32 35 44 52 54 45 51 43 47 50 44 48 50 52 57 51 53 52 51 49 46 44 44 47 45 46 47 45
15 14 14 14 14 14 14 13 12 11 10 12 19 21 24 26 25 29 32 32 33 34 38 44 49 47 44 43 50 47 49 44 47 45 47 63 60 55 49 46 42 40 40 40 44 46 44 39 38
15 15 14 15 14 16 13 12 11 12 11 11 17 20 22 24 26 27 27 30 28 31 36 45 47 43 46 44 43 41 37 46 40 38 50 54 58 52 53 43 41 36 39 52 52 50 47 43 35
13 13 13 16 15 17 14 14 12 14 14 13 12 16 24 26 27 26 30 32 33 36 37 40 39 40 42 41 40 36 34 38 36 36 38 47 51 53 51 42 41 40 42 43 44 44 42 41 36
11 10 13 16 16 16 16 14 15 14 16 16 15 15 15 20 26 30 34 35 32 33 36 40 42 42 39 40 38 42 45 39 32 36 34 39 45 48 50 43 42 45 43 43 44 43 46 42 36
14 14 17 16 16 16 18 18 15 16 16 17 16 16 16 19 24 29 28 27 26 31 36 38 38 41 42 39 41 36 35 33 33 30 29 36 35 41 45 41 44 44 44 42 42 48 43 43 39
15 17 17 15 19 22 22 17 17 17 16 18 17 18 19 20 22 22 26 26 26 33 36 38 37 41 37 35 35 31 31 28 27 25 31 38 37 39 44 40 41 43 46 49 49 46 52 49 43
19 19 19 20 21 26 21 18 17 18 20 20 18 20 19 19 21 24 28 32 34 35 36 35 34 33 30 26 30 33 35 30 32 33 36 35 39 40 39 44 43 44 44 49 52 55 52 48 45
23 23 27 26 23 24 22 21 19 19 18 18 19 19 19 22 22 24 28 33 35 38 36 31 33 35 38 36 30 31 30 31 29 32 31 34 39 39 40 42 44 47 47 46 49 51 54 53 48
24 24 30 29 28 20 26 22 23 20 22 23 25 27 28 25 22 25 29 35 40 42 40 36 36 34 36 41 36 42 36 36 37 38 35 36 37 38 38 41 45 49 46 49 48 43 52 53 53
30 32 32 33 30 27 25 21 27 21 27 27 30 32 32 30 31 30 33 35 37 42 43 41 35 37 38 41 44 42 43 38 38 40 42 40 36 35 34 40 48 51 48 49 55 58 58 53 54
31 32 32 33 32 39 32 29 26 24 31 30 32 35 36 35 34 33 32 32 34 41 42 40 37 35 40 43 47 51 50 46 42 40 38 33 33 32 35 38 50 53 55 56 56 59 61 60 61
27 32 36 45 45 39 33 31 36 33 32 32 35 36 37 36 36 34 34 33 36 40 41 39 37 35 36 40 40 42 42 42 41 40 37 42 37 37 42 49 53 52 58 59 64 70 74 82 86
35 35 49 50 40 35 36 30 34 32 30 32 33 35 36 37 38 35 35 37 38 41 42 42 39 37 35 36 38 40 41 39 41 42 44 43 43 44 51 55 57 57 58 62 68 73 90 90 95
37 43 39 52 59 57 29 35 34 34 36 35 35 34 36 37 37 34 34 37 38 40 43 46 40 36 36 38 42 45 44 49 49 48 48 43 48 45 55 60 58 62 69 66 66 77 77 80 80
35 35 48 48 79 49 24 33 26 42 36 37 36 37 39 38 38 36 36 39 39 39 40 44 39 38 40 42 46 45 49 49 49 49 48 50 52 56 61 68 66 71 78 80 79 78 78 73 71
38 41 43 40 54 64 58 27 33 32 34 38 38 42 41 41 40 39 39 40 40 39 37 36 39 41 44 45 48 52 52 51 47 45 48 53 59 65 66 75 84 88 89 84 77 73 66 62 59
37 41 38 56 52 56 56 39 28 30 36 40 40 44 42 40 36 37 39 39 36 36 34 39 44 44 43 43 46 50 51 50 47 50 51 55 59 72 84 91 84 68 60 64 64 55 49 47 45

GFSSGP_sfc_rhum_027.txt.gz
RH
40 15 8 8 10 10 18 20 17 22 23 23 20 22 24 29 38 59 31 31 34 37 46 53 90 92 91 90 87 85 82 81 81 82 81 80 80 80 76 74 75 72 68 66 67 68 75 74 78
9 6 7 7 11 13 17 18 18 20 21 20 18 17 18 32 34 37 33 29 32 34 37 54 91 90 90 91 91 90 85 83 82 80 78 78 80 77 76 76 76 76 73 72 72 78 81 84 83
17 6 7 7 10 13 18 16 19 20 20 18 19 18 23 34 30 32 29 28 28 33 42 64 88 88 88 89 89 89 88 88 88 88 83 82 80 77 78 76 77 76 76 72 72 81 82 81 80
7 6 8 10 13 12 14 17 18 19 19 17 15 24 32 26 30 30 27 25 29 33 42 75 86 85 83 81 82 86 88 89 90 89 84 80 78 75 72 71 77 81 77 81 80 83 84 82 81
6 7 9 10 14 14 16 16 16 16 17 17 15 22 35 35 31 30 30 24 26 26 35 48 84 84 81 76 77 81 84 88 89 88 86 85 84 84 83 79 82 79 78 76 77 83 83 79 77
7 8 10 15 17 17 17 17 15 14 14 14 15 21 35 33 34 34 31 25 21 25 29 37 77 83 83 81 82 85 85 86 88 86 86 85 85 85 85 85 84 84 83 82 83 85 86 87 86
8 10 12 14 18 18 18 14 12 12 13 14 12 20 32 31 32 30 26 21 21 24 27 31 38 63 81 84 85 87 88 87 86 84 85 86 88 88 86 85 85 85 83 85 85 85 84 82 83
6 8 11 12 13 14 10 11 10 10 14 12 14 15 32 32 33 29 24 23 23 26 25 29 32 34 42 52 84 86 88 88 87 84 84 86 87 85 84 85 84 83 83 83 81 80 79 77 76
5 7 9 8 8 8 6 7 6 8 10 12 14 18 20 30 30 28 26 25 26 27 32 33 30 37 38 34 57 82 88 87 87 81 82 78 48 48 58 82 81 77 76 76 75 75 75 76 78
6 7 7 6 6 6 6 6 8 10 10 12 15 16 23 28 29 28 26 26 28 31 31 33 39 41 39 27 37 39 38 38 41 41 45 38 48 50 47 67 80 78 79 79 78 77 73 74 36
6 8 7 6 6 5 5 6 6 7 9 10 12 16 23 26 27 27 22 22 24 28 27 30 43 43 41 36 30 28 30 33 38 46 46 44 45 45 44 46 58 64 79 46 64 53 42 38 40
7 6 5 6 6 7 7 6 7 6 8 8 9 14 19 23 25 25 23 21 21 26 26 31 39 45 42 31 26 29 29 33 35 38 47 47 42 45 46 40 40 43 37 42 43 40 43 50 47
8 7 6 7 8 8 9 8 7 7 7 7 10 14 19 22 22 22 20 19 21 23 24 30 39 47 36 39 33 36 39 35 40 39 41 44 43 47 44 44 41 39 37 36 38 38 38 42 42
9 10 10 10 10 11 11 10 10 9 8 8 10 13 15 17 18 20 21 21 21 22 25 29 37 45 35 33 39 38 40 36 38 36 39 45 46 48 44 42 38 36 33 33 37 37 38 39 36
10 12 12 11 11 12 10 10 9 8 9 9 11 12 14 15 16 19 21 22 21 22 24 30 38 41 40 35 35 32 30 33 32 32 38 41 44 44 46 40 39 35 35 45 40 41 40 39 36
11 11 13 12 12 12 12 13 9 10 11 10 9 12 14 15 16 16 19 20 20 21 24 27 31 37 41 33 31 29 28 32 30 30 32 37 41 44 46 40 40 38 42 40 39 39 39 38 36
10 12 10 14 11 12 11 12 12 11 12 11 10 10 12 14 17 17 20 22 23 24 25 28 32 38 38 34 31 34 36 34 27 30 30 32 37 39 42 41 40 44 40 42 42 41 44 42 40
10 9 11 11 12 11 11 12 12 13 12 13 13 12 13 13 16 20 25 22 22 27 31 33 33 37 38 35 35 29 29 28 27 26 26 32 34 37 40 39 42 42 40 42 43 51 44 45 44
10 10 11 11 13 14 15 13 14 14 13 14 14 15 16 19 21 23 26 26 24 30 28 33 35 41 36 32 32 29 29 27 26 25 32 36 35 38 43 38 39 43 42 47 52 51 55 52 48
13 15 15 14 15 17 16 14 14 15 16 16 16 16 18 20 22 25 27 30 32 32 31 31 30 32 29 25 29 33 34 30 30 31 34 33 37 39 38 41 39 39 40 48 52 55 52 52 51
16 18 21 20 16 16 16 16 17 16 16 16 16 17 18 19 21 25 29 34 35 35 33 30 31 32 35 34 28 29 28 29 29 30 32 34 39 38 40 39 40 45 46 44 50 50 53 51 49
20 20 22 22 21 19 16 18 18 17 19 21 23 24 23 21 22 25 29 33 38 38 36 32 32 31 33 38 34 42 37 37 36 39 37 36 38 35 33 33 37 43 46 51 50 40 53 54 53
24 24 24 24 23 19 18 16 20 17 22 24 26 27 28 27 27 28 29 32 35 39 39 37 31 32 35 39 42 43 43 39 35 34 37 37 32 32 30 33 39 46 48 52 56 57 56 51 53
22 26 23 25 24 34 18 20 22 19 22 26 28 29 30 29 29 28 28 28 30 38 39 38 34 31 32 36 38 41 44 41 36 36 36 33 36 34 36 34 42 49 49 51 53 65 67 69 67
21 25 37 41 40 39 24 24 28 26 25 26 29 31 30 30 30 29 30 30 33 35 37 37 34 34 32 35 36 38 40 40 39 40 39 44 40 37 37 42 48 47 53 65 65 66 70 70 78
27 28 47 46 41 31 24 22 28 25 25 27 27 28 29 30 30 29 29 31 32 34 36 39 36 34 31 34 37 38 40 38 41 44 45 44 41 40 44 47 58 68 77 77 80 87 81 81 94
30 35 29 40 52 49 21 27 28 26 28 29 28 28 30 30 30 29 30 32 33 33 35 38 38 34 34 37 39 43 44 45 46 47 47 43 45 41 52 71 79 82 78 78 85 88 89 88 75
26 27 42 41 71 45 18 21 21 35 32 30 30 30 31 31 31 31 30 32 33 33 33 36 34 33 35 38 43 40 41 40 43 45 45 45 48 62 65 76 77 76 79 79 75 84 81 86 89
26 31 33 31 39 53 46 26 24 24 24 26 27 29 30 32 32 31 30 31 33 32 32 32 35 36 35 32 33 37 37 39 41 41 43 48 56 59 62 65 73 72 65 60 62 63 60 61 59
27 30 30 49 42 45 53 41 22 22 25 28 27 29 32 31 29 31 33 33 35 32 30 33 34 28 27 28 31 35 38 38 40 47 56 56 55 57 59 65 64 57 54 47 47 50 45 45 46

GFSSGP_sfc_rhum_030.txt.gz
RH
39 12 13 14 17 14 14 19 18 21 23 20 19 20 32 40 47 67 38 36 46 55 59 73 93 93 92 90 88 86 85 85 85 84 84 86 85 81 79 80 81 77 72 71 73 77 77 79 80
17 15 13 12 17 17 22 17 23 22 19 14 17 16 31 43 37 38 36 35 38 48 57 70 92 92 92 92 92 90 86 86 86 84 84 84 82 79 76 77 80 77 74 71 75 79 81 83 81
33 16 11 14 14 15 21 21 22 18 16 16 20 25 28 36 37 35 32 34 37 55 60 75 89 90 90 91 91 91 91 91 90 88 85 82 80 79 77 77 81 80 78 72 76 81 80 80 80
16 11 10 15 14 15 16 20 17 17 17 15 19 33 30 28 33 30 28 30 37 48 65 81 87 86 86 87 88 89 90 91 91 89 85 81 79 78 76 84 82 78 77 80 80 81 81 81 82
12 11 13 14 16 16 16 15 15 17 16 15 16 35 40 33 29 27 26 28 33 47 58 66 86 85 83 81 81 86 90 92 91 90 87 85 84 84 84 84 83 81 78 77 79 80 81 81 83
11 10 15 16 19 16 16 15 14 16 15 13 18 31 39 32 32 31 25 26 28 37 50 56 82 86 86 86 86 87 88 89 90 88 87 84 85 85 84 85 85 84 84 84 85 86 86 86 84
14 14 16 17 19 18 18 14 12 12 12 13 12 31 36 34 34 30 24 23 27 31 38 50 63 78 85 86 87 88 87 87 87 87 87 87 89 88 86 86 84 84 84 84 84 84 83 80 80
8 10 13 15 17 18 12 11 11 11 16 10 15 26 37 36 31 27 24 24 27 32 32 41 51 55 68 78 86 87 87 86 85 84 84 87 87 88 88 87 84 82 81 80 80 78 78 77 78
6 11 13 11 12 10 7 8 7 9 10 11 17 18 29 32 29 27 28 26 30 30 42 45 42 52 60 64 73 85 86 86 86 83 83 84 72 75 72 82 83 78 77 76 74 73 75 79 82
7 10 8 6 6 7 6 6 8 11 11 14 18 25 30 30 30 30 29 32 33 40 40 46 54 56 50 30 69 72 63 71 75 70 74 69 64 63 54 74 83 82 81 81 81 81 82 81 68
6 9 7 6 6 5 6 6 7 8 10 13 15 25 29 30 30 30 26 27 32 37 38 43 59 57 54 54 52 52 56 61 65 59 62 64 63 74 76 82 76 88 85 81 82 81 81 63 67
7 5 5 6 6 5 6 5 6 7 9 8 12 16 26 28 28 27 25 24 27 32 36 45 54 59 55 51 51 52 51 60 58 64 64 71 72 71 70 70 69 72 74 70 64 66 64 61 64
6 5 6 6 7 8 7 7 7 8 8 8 12 15 22 23 23 24 23 23 25 32 34 43 54 59 57 52 59 61 60 62 64 58 63 67 70 75 70 69 66 65 61 60 64 61 60 62 60
7 7 8 8 9 9 9 9 10 8 8 8 11 16 19 22 22 24 25 25 26 28 36 45 52 60 50 50 55 60 64 60 63 60 64 58 68 74 70 68 65 62 60 60 62 63 67 64 61
8 11 10 11 11 12 10 11 10 9 9 9 11 12 16 17 18 22 23 25 24 28 33 43 50 57 53 49 52 52 51 49 54 54 57 55 59 66 66 69 68 63 64 65 66 66 65 66 58
9 11 14 11 11 11 12 15 8 9 10 10 10 12 13 16 16 19 23 25 25 28 31 37 33 53 57 54 52 48 48 54 51 51 53 54 54 57 66 69 70 68 69 68 69 69 67 67 66
12 14 14 14 10 11 12 13 11 11 12 12 11 11 14 15 17 19 21 24 27 32 34 38 43 50 54 56 48 53 50 52 52 54 52 58 54 58 65 67 69 70 68 70 68 64 71 68 68
14 10 9 11 12 10 11 11 12 12 11 12 12 13 13 14 21 24 28 34 34 47 44 44 43 52 53 60 53 52 50 50 52 50 52 56 53 58 64 64 67 69 67 68 70 74 71 72 71
9 10 10 10 12 12 11 12 13 13 13 16 16 17 21 29 29 32 36 39 38 46 43 46 49 59 56 55 55 54 55 52 49 46 50 50 52 52 61 61 60 65 65 69 69 70 71 67 73
10 13 14 13 13 14 14 14 14 15 16 16 19 23 25 28 29 33 38 46 43 43 43 41 41 45 43 43 47 52 54 51 49 50 47 49 55 57 52 63 62 63 67 69 71 73 72 69 72
13 16 22 19 16 14 15 17 17 16 16 17 19 20 21 26 30 35 39 45 48 48 48 39 41 43 49 53 44 48 51 53 50 50 51 54 57 55 57 57 60 65 67 71 72 68 70 68 67
19 20 21 19 20 21 16 22 19 18 20 21 24 26 24 25 28 32 37 44 51 53 52 43 42 41 44 52 54 63 59 55 56 54 54 53 52 53 50 54 60 66 70 72 72 58 74 75 74
22 22 22 22 24 23 18 23 18 19 23 27 29 29 31 31 32 33 36 40 43 53 55 50 43 40 44 49 53 59 60 60 56 56 57 56 58 56 53 52 60 68 69 69 77 83 85 82 84
19 24 23 24 26 44 23 20 24 21 22 28 29 29 31 32 33 32 32 33 41 53 53 53 45 40 44 46 50 55 60 60 60 59 61 62 60 57 56 52 61 69 75 79 81 83 79 78 79
21 26 49 58 54 54 24 24 31 25 24 26 31 32 33 34 35 34 33 34 38 44 47 47 46 43 44 50 53 55 59 62 61 63 64 65 60 58 56 63 77 81 83 83 84 87 87 86 87
25 26 62 59 67 52 24 25 34 26 25 26 27 29 31 33 35 34 34 37 39 42 45 46 44 44 43 49 54 59 62 61 60 62 66 66 63 62 79 79 82 84 82 84 85 91 91 91 93
27 38 26 36 54 68 28 31 28 27 29 28 28 28 31 31 34 32 34 39 41 43 45 50 46 41 44 51 58 58 59 60 62 62 64 64 63 58 76 82 83 84 84 84 87 92 90 91 93
24 21 42 53 75 56 25 26 41 34 32 30 28 30 31 31 33 34 35 38 39 41 41 50 45 42 43 42 46 40 48 52 57 62 62 68 69 69 71 76 78 80 81 82 80 76 75 84 91
26 28 29 28 42 64 62 35 24 25 26 29 28 26 30 34 34 34 34 36 39 43 43 42 44 40 36 37 42 50 50 52 56 61 66 66 69 68 70 67 73 72 72 73 77 78 76 81 80
24 29 29 71 50 63 66 49 21 23 26 27 28 29 31 32 31 33 35 40 42 44 41 40 42 35 37 39 44 48 51 53 58 61 64 69 66 62 69 72 74 74 65 62 63 63 60 60 62

GFSSGP_sfc_rhum_033.txt.gz
RH
40 20 21 22 24 26 25 20 33 30 34 31 38 48 60 61 62 88 66 67 77 84 84 86 93 92 92 90 88 88 88 87 86 88 88 87 84 83 82 81 84 82 75 75 78 80 80 81 81
37 18 23 19 25 28 36 29 29 24 24 31 36 44 52 61 50 57 69 64 68 75 86 89 94 93 93 93 92 90 88 88 88 88 88 86 83 81 79 80 85 83 75 73 77 80 79 82 81
31 20 19 20 24 27 43 28 26 24 21 29 39 39 47 57 46 50 58 62 67 81 85 87 92 92 92 93 93 93 92 92 92 90 87 85 82 79 79 85 86 80 78 78 80 80 80 81 84
24 18 13 18 19 20 31 26 23 23 20 31 36 53 43 41 42 42 59 63 78 90 93 90 90 90 91 91 92 92 92 93 92 91 88 84 83 81 86 85 83 79 77 79 81 82 82 84 84
24 20 19 20 27 24 22 21 22 23 23 40 42 56 53 38 36 39 49 61 76 88 89 87 89 88 86 84 85 91 93 93 93 92 90 86 84 85 86 86 85 82 79 78 80 82 83 86 88
20 18 22 24 26 24 22 18 21 22 18 40 47 52 55 40 39 38 49 60 64 73 82 79 86 88 87 86 87 89 89 90 91 90 89 85 87 88 87 87 86 86 86 86 86 86 85 85 85
22 22 23 19 27 25 20 15 18 17 17 25 41 59 54 48 43 35 39 48 56 63 76 84 86 83 87 88 87 88 87 88 87 87 88 88 89 90 90 88 85 85 85 85 83 82 82 81 81
16 17 18 16 22 22 15 11 15 16 16 17 35 53 63 51 41 34 36 44 48 55 64 77 84 85 91 92 89 88 86 85 84 84 86 86 88 89 88 87 87 84 84 82 80 80 80 80 82
12 17 16 14 16 15 12 10 11 14 17 29 30 42 46 42 36 36 40 42 44 47 57 67 70 78 84 89 84 87 86 85 84 84 85 87 88 89 88 88 85 82 81 79 78 77 78 79 80
13 16 12 10 11 10 11 11 13 16 19 37 47 42 41 40 38 38 39 43 46 51 57 58 65 74 77 54 86 88 82 88 87 84 86 85 88 87 75 83 83 81 81 81 81 81 81 82 83
11 12 9 10 8 8 11 12 12 16 22 31 50 46 43 43 40 39 38 41 47 45 55 64 61 59 60 63 86 89 86 91 91 84 76 79 72 78 83 94 90 95 88 92 87 89 90 83 81
8 8 8 10 9 7 8 8 10 14 17 19 39 39 42 42 39 38 38 40 46 49 53 62 63 58 59 63 65 70 73 77 81 72 68 75 82 80 79 91 91 95 95 95 94 94 86 83 70
8 10 8 9 12 11 9 10 11 13 13 17 31 33 38 38 39 36 34 34 42 49 54 61 61 64 56 57 68 64 69 74 69 76 72 72 75 78 77 73 74 72 70 70 71 68 66 67 64
10 9 10 11 12 14 15 15 13 13 11 18 21 34 34 34 34 34 34 30 37 42 50 60 61 64 56 65 59 65 66 70 66 77 71 70 77 75 74 74 72 70 71 71 70 67 66 67 68
13 15 14 14 14 15 15 20 14 12 11 15 18 25 29 29 31 33 33 34 37 39 50 56 64 58 52 57 58 61 71 53 63 69 65 66 66 70 72 75 77 76 77 72 72 70 75 77 70
14 18 21 16 16 16 16 24 14 13 12 14 16 15 22 29 29 31 31 31 34 38 46 55 51 73 73 62 59 54 59 62 58 62 67 64 62 62 70 74 74 76 75 74 77 79 77 77 79
21 24 23 20 14 18 19 21 17 16 15 18 18 19 19 33 33 34 36 41 49 45 44 67 62 76 89 85 78 63 56 53 56 65 68 64 62 66 69 68 72 74 77 79 79 79 84 84 82
22 22 20 22 18 16 17 23 20 17 18 22 25 32 42 44 45 44 45 46 54 60 58 70 62 76 83 84 75 74 64 61 62 63 61 54 60 60 68 70 71 74 73 76 80 80 78 82 84
16 18 18 21 17 19 20 22 21 23 24 34 38 40 43 46 45 48 50 51 50 61 54 50 49 71 72 67 60 62 60 57 58 60 54 51 59 62 64 68 68 69 72 73 73 79 82 75 82
16 20 28 21 18 19 22 25 24 23 28 32 36 40 44 48 48 52 60 69 72 67 56 55 50 53 55 58 58 60 65 58 58 64 61 62 62 62 57 68 69 69 76 77 79 78 81 82 82
26 31 30 27 22 24 26 29 27 25 26 26 32 36 40 48 52 51 55 66 62 62 54 50 52 52 58 59 63 64 65 66 63 61 65 60 60 59 60 64 70 72 76 81 81 80 87 94 88
34 29 28 27 31 38 27 38 33 28 30 32 36 39 44 45 48 51 59 64 63 63 57 53 49 51 54 56 61 64 72 69 66 65 64 62 62 63 59 61 67 74 79 82 88 84 94 94 97
34 31 32 33 38 43 35 37 33 28 41 42 44 43 47 47 50 53 57 56 59 59 59 56 53 52 54 57 60 66 65 65 64 63 64 67 66 62 60 60 71 86 89 91 94 94 91 81 83
26 32 35 38 43 62 45 41 40 32 39 42 42 43 43 45 46 48 53 56 61 64 62 57 53 52 56 59 62 64 66 66 68 68 74 74 71 68 71 78 89 90 92 94 96 94 87 93 89
33 44 71 68 78 68 50 52 61 43 35 38 44 47 47 47 48 47 46 52 56 58 61 53 56 52 52 58 67 69 69 70 70 74 76 73 72 78 91 89 91 94 93 93 92 90 93 94 95
37 40 82 74 86 70 37 55 52 38 38 41 42 46 44 45 41 46 48 52 50 51 54 52 50 49 53 64 64 65 67 72 72 73 72 72 75 91 90 89 90 90 90 92 93 95 96 95 96
34 53 37 49 72 82 56 47 41 39 43 35 36 37 46 44 42 46 48 49 49 48 53 56 51 51 53 54 53 53 57 60 63 68 76 84 81 68 86 88 89 88 89 90 92 96 94 92 95
36 30 54 71 75 74 52 55 65 49 43 39 39 41 41 43 44 44 46 49 52 52 55 54 52 48 44 45 51 51 56 58 70 76 76 75 75 74 76 83 85 81 83 86 91 92 87 90 96
40 45 44 45 67 80 87 58 41 42 44 41 40 40 45 46 43 44 47 52 50 49 49 53 44 42 44 46 50 57 59 64 69 70 74 77 79 75 77 80 75 78 83 81 83 84 84 85 85
35 41 42 81 65 78 87 63 35 50 48 46 44 39 44 47 44 47 49 50 52 52 49 45 43 43 45 46 51 54 57 69 77 79 83 85 88 86 82 78 78 76 80 78 76 74 68 68 67

GFSSGP_sfc_rhum_039.txt.gz
RH
63 29 24 21 22 29 34 29 47 54 66 61 58 60 69 84 75 82 89 95 94 96 94 90 93 92 92 91 91 91 90 86 84 83 84 83 81 79 79 82 83 80 77 77 78 78 78 79 80
30 23 21 21 23 33 47 39 59 58 54 55 54 66 71 90 85 95 91 90 90 94 96 96 94 93 93 93 92 90 88 87 86 84 83 82 81 82 83 83 86 81 78 76 77 79 79 80 81
38 21 15 20 27 29 44 42 55 52 46 43 54 49 58 89 83 84 86 89 94 99 98 96 95 94 94 94 93 92 92 92 91 89 84 82 84 84 83 83 84 82 76 75 77 77 78 81 83
26 15 16 19 23 21 39 39 46 49 47 45 53 57 51 61 84 88 89 92 97 99 98 97 96 95 94 93 93 93 94 94 93 91 86 84 84 82 82 82 80 77 76 74 75 78 81 84 85
26 18 20 24 23 26 28 38 41 48 53 48 47 57 65 84 82 89 93 90 97 98 97 96 95 95 93 90 91 94 94 95 94 93 90 84 82 82 83 82 80 79 78 78 79 80 81 83 84
19 21 23 39 48 39 21 34 48 52 50 50 55 58 76 82 86 87 84 93 87 94 94 92 90 92 93 93 94 94 94 93 92 91 90 85 84 84 83 84 83 82 82 80 79 80 79 80 80
22 21 23 54 45 36 21 22 50 49 53 55 49 70 78 82 84 80 87 88 86 92 94 94 92 88 88 89 90 90 90 90 89 89 89 88 88 88 87 86 84 83 81 78 76 78 79 78 78
22 21 25 57 48 40 27 19 33 46 54 48 48 69 82 63 76 78 79 84 91 93 93 94 93 92 93 93 90 89 88 88 86 86 86 88 87 87 87 86 86 82 80 78 77 79 78 77 78
19 21 23 57 38 29 26 20 25 41 53 52 50 50 51 65 68 72 77 82 83 80 91 94 94 93 93 91 87 88 87 87 87 86 88 91 93 93 91 88 86 84 82 81 80 79 79 80 83
23 24 21 31 37 34 14 31 32 52 64 67 62 52 57 59 61 60 63 71 76 78 80 90 92 92 90 71 91 92 88 91 90 89 90 92 93 94 89 92 88 83 81 81 82 84 85 88 93
17 15 13 13 24 18 14 19 29 60 73 60 62 53 54 57 58 55 53 57 58 64 71 79 84 88 88 79 95 96 95 94 93 90 91 94 91 96 97 97 96 96 88 96 93 94 96 93 94
15 11 11 12 12 13 15 16 36 44 56 52 48 45 48 50 53 53 54 56 63 70 66 72 82 85 87 85 87 88 93 96 96 94 93 96 97 96 97 98 96 96 97 95 96 97 94 86 84
14 14 14 13 10 11 12 16 16 26 55 51 47 42 43 45 46 46 46 49 55 64 67 72 78 84 80 85 90 93 94 94 92 93 91 88 91 89 92 93 90 86 82 82 80 80 77 77 76
12 12 14 15 15 16 15 17 20 32 56 52 49 46 42 40 40 41 47 51 60 56 64 68 73 79 75 81 85 89 88 89 89 91 88 82 86 86 85 83 80 80 85 86 85 84 84 85 83
14 15 16 18 18 16 17 19 22 32 53 53 50 48 46 40 44 47 46 47 52 58 60 70 76 69 75 73 73 77 82 79 83 89 85 80 84 82 82 81 82 85 85 83 83 82 81 78 76
18 21 23 20 19 20 18 21 20 40 55 59 58 56 51 59 62 65 51 44 54 64 68 71 64 82 92 92 77 66 71 73 74 82 82 78 76 77 82 80 81 83 80 82 80 82 79 82 83
24 27 28 23 20 24 22 24 24 24 48 38 59 60 62 66 65 67 74 78 77 83 89 96 96 96 95 92 90 82 66 77 77 81 79 74 76 77 80 81 81 80 79 82 81 82 84 84 80
26 26 26 24 24 23 27 29 33 31 45 67 71 70 69 69 70 64 65 67 76 83 88 92 93 95 95 93 91 84 69 69 69 72 70 72 69 67 68 71 71 70 72 82 82 82 79 82 88
26 25 29 27 22 21 28 33 43 60 64 72 75 73 72 72 74 72 70 68 75 85 87 88 84 86 85 87 84 83 83 86 80 56 57 57 57 59 64 65 72 77 76 79 79 85 85 86 95
28 28 31 30 27 23 34 42 46 49 64 70 70 73 73 73 70 71 76 84 84 88 86 78 75 69 76 67 75 78 78 71 70 65 67 65 64 63 62 70 71 70 72 80 90 94 94 96 96
40 36 37 31 30 28 36 41 50 50 55 59 64 68 67 68 73 75 77 88 86 79 67 62 64 64 66 69 70 73 74 74 70 71 72 70 66 66 68 74 81 88 91 95 94 94 91 96 95
44 38 34 34 34 29 36 51 54 52 56 63 67 74 72 66 68 69 75 72 69 72 69 64 64 64 63 64 67 66 70 70 76 76 76 74 69 72 77 83 88 92 93 93 94 88 94 94 96
38 37 38 40 46 50 46 45 51 53 61 64 71 72 71 66 66 64 60 61 64 69 69 69 66 65 68 69 72 74 75 75 74 74 75 73 74 79 82 85 89 91 94 94 95 96 96 96 96
35 41 50 57 55 63 52 55 55 63 57 61 64 65 67 64 67 64 68 64 69 74 68 63 59 64 71 72 72 72 71 70 72 76 77 77 80 91 89 85 89 91 92 93 95 95 94 96 97
40 54 68 70 76 74 55 65 64 53 51 56 63 65 66 66 70 70 68 64 64 68 66 62 64 72 71 69 69 70 72 74 77 82 82 80 84 94 90 87 88 92 92 91 92 93 94 96 97
47 53 76 64 79 60 55 75 63 57 53 54 55 58 57 58 57 60 61 64 65 63 65 65 71 68 58 54 58 63 63 68 73 78 84 86 88 89 89 91 92 90 89 90 90 94 95 95 97
44 55 46 72 76 76 70 66 52 56 57 54 54 52 54 60 57 54 64 62 54 59 68 68 58 51 52 54 57 58 62 67 76 78 82 84 86 84 91 92 92 91 92 92 91 96 95 95 96
34 37 58 70 68 69 65 72 71 62 62 57 60 61 65 58 57 59 64 59 59 66 63 59 50 48 49 51 55 55 62 74 77 82 82 84 84 83 86 89 91 93 92 92 92 92 90 91 94
44 49 55 59 72 80 86 66 50 58 55 56 58 57 63 67 67 63 60 57 54 53 48 49 46 45 47 46 53 61 62 75 81 83 84 87 88 88 89 89 91 90 86 85 88 86 80 76 75
44 50 52 68 57 86 86 64 54 62 61 58 61 63 64 61 63 59 55 56 56 59 47 47 48 48 48 50 54 57 63 69 82 87 88 90 88 83 85 87 89 85 77 75 72 74 75 74 75

GFSSGP_sfc_rhum_042.txt.gz
RH
71 29 27 24 23 30 35 27 44 54 68 68 65 63 79 93 79 84 96 97 95 96 95 95 94 93 92 91 92 91 88 85 83 84 85 83 80 80 82 82 84 80 75 74 77 77 77 78 79
36 26 23 23 22 27 48 36 59 70 69 69 69 68 78 94 83 95 92 90 92 94 97 97 95 94 93 93 92 90 86 84 85 83 82 81 81 82 82 84 86 82 72 70 76 78 77 78 80
37 25 18 23 29 28 44 51 60 58 52 52 55 54 70 93 84 87 89 91 96 97 98 96 95 95 94 93 93 92 92 91 90 87 82 83 84 82 81 83 88 80 75 75 73 73 76 81 83
28 19 18 22 25 22 39 49 52 55 48 52 52 61 58 76 82 89 87 94 89 98 98 96 95 95 94 94 94 93 93 93 92 90 86 85 82 80 79 81 81 77 74 73 74 77 80 83 84
26 23 23 36 40 31 28 44 52 54 56 53 49 61 72 92 93 90 94 96 93 99 98 97 95 94 93 91 91 94 94 94 94 92 90 84 80 80 81 81 80 79 77 75 76 77 78 79 81
23 23 28 58 60 41 35 41 55 53 52 54 60 66 87 92 95 95 94 97 96 98 98 96 94 95 94 94 95 95 95 95 94 92 90 84 84 84 82 83 83 82 80 78 77 77 76 78 78
21 24 38 63 52 41 28 37 52 52 56 56 53 85 92 93 92 90 94 94 92 95 96 96 96 94 94 94 94 94 94 92 91 90 88 87 87 88 87 86 83 81 79 76 76 78 79 78 79
24 24 54 62 48 44 24 39 39 48 58 50 57 94 97 85 87 86 86 91 94 93 93 93 93 93 94 94 92 92 90 89 88 86 85 88 86 87 85 85 84 80 78 78 78 79 80 81 82
21 21 52 62 50 44 28 44 31 48 56 56 56 71 74 84 81 83 86 89 91 85 92 93 93 93 92 92 89 89 87 87 86 86 88 92 94 92 91 88 84 81 79 80 82 83 84 86 86
24 27 27 42 39 40 32 25 40 56 66 66 65 74 77 80 82 83 81 82 83 84 85 92 93 93 93 76 92 92 89 93 92 91 91 94 93 94 90 92 88 84 84 84 85 86 88 89 94
22 20 18 27 34 21 29 34 41 61 70 64 63 80 79 80 76 70 66 65 63 71 78 87 90 92 91 83 95 96 97 96 93 91 92 93 93 96 97 98 96 95 87 96 92 94 96 94 94
18 14 13 23 38 32 20 23 60 60 46 54 56 70 71 71 62 55 54 61 60 69 72 79 86 89 91 89 94 93 94 95 96 94 91 95 97 96 96 98 95 95 96 90 91 90 84 80 78
13 15 15 13 18 16 16 20 45 29 62 52 53 62 63 58 54 47 44 50 63 69 68 75 82 91 88 90 94 92 95 96 95 95 94 96 96 95 95 96 93 88 86 86 85 84 83 82 80
13 15 16 13 12 13 15 20 20 42 64 57 51 58 56 53 54 58 58 58 64 62 69 74 82 89 84 87 89 94 95 94 94 94 95 90 91 90 90 88 88 88 90 88 87 85 81 80 79
15 16 16 18 17 19 17 21 26 55 61 61 53 51 51 52 53 55 52 56 60 62 71 78 80 76 84 78 77 79 83 80 82 87 91 86 87 86 86 88 86 88 85 82 80 78 78 78 71
19 22 20 19 18 23 17 20 22 68 64 71 65 60 64 70 71 76 68 51 60 70 79 84 82 94 95 94 86 74 71 83 88 87 86 83 87 84 84 84 85 83 82 81 82 83 74 76 76
24 27 30 26 22 23 22 26 23 71 66 61 61 68 70 74 73 74 79 82 72 86 95 96 96 97 95 95 94 89 82 90 92 88 79 78 81 76 70 75 79 78 73 74 72 75 80 79 79
26 26 28 27 26 23 26 37 57 56 55 70 78 80 80 81 82 75 82 89 96 98 97 97 98 97 96 95 93 92 90 74 71 76 72 61 64 66 69 67 69 71 69 77 77 75 77 80 92
24 24 28 30 25 24 41 55 64 72 74 82 86 86 84 80 79 81 82 88 92 94 93 93 94 95 94 93 88 80 83 83 74 66 62 62 63 65 69 73 74 77 77 85 86 90 89 90 95
29 30 34 33 29 27 49 60 65 63 76 83 85 86 83 81 80 80 84 89 90 91 89 89 85 84 77 71 78 76 76 76 73 73 70 66 66 67 66 75 79 82 84 90 92 93 94 94 96
41 35 40 34 34 33 42 49 63 62 68 70 73 76 74 80 82 83 83 90 90 80 71 65 64 63 68 74 77 79 78 77 72 74 74 72 70 72 75 80 85 90 91 92 93 94 92 96 94
42 40 36 36 33 39 39 46 63 64 71 74 75 79 80 78 84 82 84 75 71 73 72 68 66 64 65 68 66 66 70 71 78 80 80 75 74 80 83 87 90 92 93 91 94 90 96 96 96
43 37 40 43 48 55 50 47 53 64 71 75 78 78 79 76 74 72 70 67 70 75 74 71 70 70 71 72 72 77 78 82 81 82 80 78 83 86 86 87 87 86 89 92 94 94 95 97 98
38 47 52 60 59 64 62 61 59 70 64 68 70 72 71 72 71 67 70 69 71 72 72 67 61 68 71 73 74 76 74 74 76 81 83 84 88 92 87 82 85 88 90 91 93 93 93 95 97
45 53 70 72 74 74 60 66 60 57 58 61 68 71 72 73 74 71 71 72 69 67 65 61 67 72 68 70 72 73 74 73 71 76 81 81 84 90 89 88 89 90 90 91 93 94 93 94 97
53 51 76 65 82 65 59 77 63 61 58 60 62 65 68 72 71 74 67 70 69 69 66 63 70 66 57 59 60 61 59 64 68 73 82 85 88 90 88 91 91 90 91 92 92 95 96 95 97
51 57 51 76 78 76 71 67 61 66 68 64 64 65 68 65 64 65 71 69 67 69 70 73 59 52 53 54 58 58 60 63 71 77 85 86 87 83 88 91 92 92 93 93 93 96 95 94 95
39 43 61 69 64 59 68 72 73 74 70 66 66 67 65 67 69 71 68 66 68 63 62 56 49 50 51 53 56 56 61 67 77 82 82 85 86 87 89 90 91 92 93 94 94 96 93 93 93
47 52 60 65 73 78 84 65 58 64 64 65 63 63 68 75 71 67 65 63 60 51 50 51 48 45 47 50 55 61 65 69 82 86 87 87 89 90 88 88 90 92 92 88 88 87 78 75 75
48 52 50 65 57 86 85 70 65 70 62 62 69 72 73 70 69 66 64 59 57 56 56 51 53 56 56 57 59 61 66 68 73 82 86 90 92 91 87 87 90 89 86 79 72 72 72 71 71

GFSSGP_sfc_rhum_045.txt.gz
RH
48 22 20 19 21 19 20 20 30 54 63 58 54 52 67 70 69 72 92 80 75 74 72 77 94 92 91 91 91 89 88 86 84 84 86 84 82 82 82 83 84 78 72 76 76 74 74 75 77
23 21 17 18 17 15 28 27 54 63 66 60 52 63 66 91 78 91 80 82 70 75 76 76 96 93 92 92 90 88 85 85 86 83 81 80 80 81 81 81 86 78 72 74 71 70 73 78 80
25 17 15 17 21 19 31 47 60 59 64 59 56 52 64 89 83 82 81 79 71 76 76 79 96 95 94 93 92 90 90 90 89 86 82 83 82 81 83 86 86 78 73 69 70 73 77 80 80
20 14 14 16 17 17 29 50 50 49 46 46 47 48 64 76 78 89 85 74 71 81 77 89 96 95 94 94 94 93 92 92 91 89 86 83 80 77 79 82 82 74 71 70 71 74 76 78 80
17 16 17 19 30 26 22 43 48 49 56 56 39 57 76 87 78 84 84 75 79 82 77 78 95 95 94 92 92 93 93 93 92 91 90 82 78 78 80 81 80 77 72 71 71 72 73 75 79
18 17 19 32 38 31 39 46 40 52 48 47 50 60 84 90 88 85 85 83 78 79 76 75 92 94 94 94 94 94 94 94 93 92 89 83 83 83 81 82 80 78 77 75 74 74 74 76 77
18 19 31 41 38 37 39 48 42 46 44 49 52 82 91 94 88 89 84 77 78 77 76 76 72 82 95 95 94 94 94 93 91 89 88 87 87 87 86 84 79 78 76 75 75 76 79 78 79
17 19 43 43 38 37 35 40 36 43 50 47 55 74 92 87 86 80 78 79 78 78 74 76 76 72 76 76 95 94 92 90 88 87 86 87 86 86 84 83 81 77 78 78 78 81 83 84 84
15 18 39 40 37 43 39 41 38 42 48 50 53 66 71 82 80 81 79 76 74 70 71 72 67 72 74 71 74 86 88 88 87 82 88 84 64 64 64 79 81 80 81 82 82 85 87 88 82
17 19 28 34 36 56 51 37 40 50 51 52 66 79 81 81 81 82 77 75 67 62 62 66 72 72 71 59 70 71 67 64 65 65 70 64 71 67 66 77 85 83 83 83 84 85 84 73 50
18 18 18 30 29 37 42 30 43 49 51 47 61 83 82 81 78 74 66 58 51 54 58 66 71 73 70 65 67 63 63 65 66 71 70 71 69 69 66 67 63 68 74 57 58 56 54 58 53
16 14 18 28 30 24 27 26 46 42 37 44 59 72 76 77 74 66 58 46 47 50 54 63 70 73 75 66 65 66 62 65 64 66 74 72 68 72 72 66 68 67 58 60 57 54 61 59 56
14 12 12 13 22 17 19 27 38 35 50 51 65 69 71 67 61 55 44 39 44 49 53 60 69 73 72 73 70 70 71 67 69 68 69 69 70 73 69 71 62 58 57 55 57 55 51 52 50
15 14 13 14 19 15 16 18 25 34 49 56 65 64 62 57 52 46 40 38 43 43 51 61 68 73 70 69 70 70 74 72 78 82 83 85 78 79 67 64 61 59 56 54 52 52 48 47 47
14 16 16 15 14 14 14 16 17 48 47 53 59 59 55 47 43 40 41 40 39 43 54 64 69 66 69 64 61 62 60 68 78 89 85 82 78 77 71 64 60 56 55 59 54 51 49 43 40
16 18 18 15 15 18 14 18 20 58 50 50 51 50 49 52 54 55 57 47 42 47 58 64 72 80 78 78 69 74 72 85 89 90 86 80 80 74 67 58 67 58 54 50 56 48 59 45 42
20 19 20 18 17 16 16 20 34 48 58 57 54 54 53 56 56 61 67 68 46 61 70 79 81 84 88 89 94 96 89 83 84 81 67 69 68 62 57 68 55 55 52 51 48 46 51 45 45
23 21 22 20 18 20 22 35 44 50 54 58 61 60 61 63 67 72 76 80 81 83 83 86 87 93 95 97 95 92 81 64 61 62 51 54 50 54 52 50 54 50 50 52 52 57 52 52 54
19 20 20 20 20 32 39 45 53 57 58 63 64 66 67 70 72 74 79 82 83 82 83 91 97 97 96 90 74 62 63 57 50 44 49 50 49 51 56 51 53 54 54 60 60 54 57 48 55
22 24 26 26 27 30 41 50 55 57 66 65 67 67 68 70 68 71 72 78 79 81 82 90 86 87 76 60 53 50 50 49 48 49 54 52 55 55 53 58 56 59 53 60 62 62 54 50 57
32 30 29 26 27 30 33 35 49 61 63 66 65 64 64 62 60 63 66 70 74 75 73 64 62 64 60 57 55 54 53 54 50 50 47 53 57 58 60 62 61 62 57 54 60 62 65 56 57
36 30 29 27 24 28 31 26 40 57 66 67 66 63 62 61 62 60 59 57 58 57 57 51 52 51 55 56 52 52 45 44 54 54 52 50 61 62 60 61 62 62 58 59 58 56 65 66 59
36 34 34 35 37 32 38 28 33 57 68 67 63 61 61 60 57 56 51 49 52 58 59 59 56 55 56 58 57 54 59 59 57 57 61 61 62 63 61 62 62 60 56 59 63 62 62 60 64
40 38 42 45 43 46 46 43 38 49 53 61 58 58 59 58 56 51 50 51 52 61 62 59 54 55 59 59 61 61 62 58 51 53 53 54 56 58 63 59 62 62 61 61 60 65 68 65 65
35 40 48 50 55 47 48 52 42 43 45 52 55 56 57 55 55 53 52 53 55 55 56 54 53 56 56 57 55 55 53 48 44 44 44 49 51 56 60 65 65 60 64 66 66 68 69 70 69
41 38 62 55 60 52 47 52 41 46 46 46 49 49 53 56 56 55 54 54 55 58 52 53 54 51 46 47 48 47 44 40 41 46 46 50 52 52 59 64 66 67 68 69 71 73 72 75 80
44 46 41 62 64 60 46 46 42 52 56 51 49 52 55 54 56 54 56 60 57 55 58 61 48 43 42 47 46 45 46 48 50 54 59 57 60 57 64 68 69 69 70 72 74 74 74 77 77
33 39 51 54 62 44 40 50 41 56 54 56 53 53 54 54 57 57 55 58 54 55 51 52 47 46 43 40 45 44 49 50 54 60 62 63 62 63 65 66 67 66 67 69 73 73 67 75 76
40 45 53 50 53 48 51 32 47 48 50 54 50 53 56 60 57 54 51 48 43 43 42 42 45 43 42 41 45 49 48 50 52 53 56 57 63 63 67 67 63 62 66 69 69 66 64 60 58
36 41 46 53 49 68 61 41 50 55 51 53 54 60 60 55 52 50 50 48 48 50 52 57 59 54 49 45 47 46 48 51 52 51 51 57 59 63 67 69 66 67 68 68 65 62 54 55 54

GFSSGP_sfc_rhum_051.txt.gz
RH
41 16 9 8 13 10 11 11 11 39 37 33 30 33 34 47 66 69 45 45 47 52 53 59 92 92 91 90 90 89 87 83 83 83 83 83 82 82 81 78 76 75 72 68 68 69 71 68 65
10 7 6 9 11 11 11 10 14 45 35 33 38 38 43 59 56 61 58 57 48 52 51 56 94 92 92 91 90 88 84 83 83 81 80 79 78 79 81 77 78 73 68 67 67 67 64 65 69
10 6 8 8 9 8 10 11 29 32 32 32 37 36 46 61 61 69 54 53 47 52 55 71 94 94 92 91 90 89 88 88 87 84 80 80 82 82 81 79 78 70 65 64 63 62 66 70 73
7 5 8 11 9 6 9 36 29 34 30 31 35 50 48 68 80 73 62 56 49 63 65 87 95 95 92 91 90 89 89 90 89 88 82 78 76 78 80 77 75 67 65 63 62 64 68 73 76
6 7 9 10 10 7 11 30 29 36 28 28 26 48 69 63 77 81 62 51 57 67 62 69 96 94 92 90 89 91 91 91 92 87 82 75 75 77 78 77 73 70 68 66 65 68 70 76 77
6 7 11 12 10 9 12 22 36 27 27 31 28 40 48 45 61 59 66 63 80 63 63 69 92 93 92 93 93 92 91 92 91 87 83 78 78 79 76 75 73 73 71 70 70 72 74 76 77
8 8 11 10 13 18 16 33 31 30 45 51 23 38 58 52 54 60 59 53 53 56 58 62 67 82 94 93 92 92 92 92 89 88 87 86 86 85 81 79 74 72 72 71 72 74 77 78 78
6 9 10 12 20 21 25 27 26 29 34 30 29 37 55 53 64 65 91 72 57 58 54 55 58 59 64 70 93 92 91 89 87 86 85 85 82 82 81 81 77 73 72 73 74 77 77 75 74
7 11 12 30 40 25 30 32 66 29 24 29 27 30 29 57 62 84 76 70 59 54 42 40 39 46 50 54 72 87 87 86 84 79 82 80 43 50 56 78 77 73 73 74 76 76 76 74 76
8 11 16 17 37 66 32 24 25 26 27 29 33 45 53 56 54 61 62 59 55 46 41 40 48 48 42 32 50 46 45 41 45 46 51 42 47 50 50 64 77 74 72 75 74 74 72 75 32
8 12 13 12 24 22 20 26 28 29 25 25 28 52 52 45 49 54 54 43 44 37 33 40 47 48 42 46 38 36 36 43 46 52 49 52 47 51 48 45 54 62 74 39 48 44 36 42 41
11 10 9 18 31 16 21 20 25 26 47 17 36 37 43 40 41 43 40 36 28 32 39 42 47 51 47 38 32 34 34 41 42 45 55 54 53 59 57 45 45 58 42 44 39 37 46 45 42
11 12 18 36 14 18 19 19 39 22 18 19 31 33 36 35 35 34 30 24 23 28 34 41 44 49 50 46 46 46 47 54 60 60 62 76 83 85 79 71 51 52 47 40 42 41 40 41 40
11 15 19 16 18 18 20 21 20 21 19 29 34 33 31 30 30 27 21 22 23 28 38 42 44 46 48 51 56 64 58 58 54 61 66 67 70 68 61 56 51 46 44 44 44 46 44 42 44
11 20 17 14 17 18 17 19 20 21 22 28 29 27 26 23 22 22 20 22 23 28 38 44 44 47 49 53 52 52 51 54 58 62 67 70 70 72 69 59 55 51 48 52 48 45 48 41 35
15 15 18 12 14 16 15 18 17 22 24 25 25 25 25 23 19 19 20 20 22 28 38 43 42 52 60 65 65 66 70 72 86 78 71 72 72 67 59 56 56 55 48 46 48 42 39 40 37
12 17 16 14 12 12 15 15 17 19 22 26 26 26 26 25 21 25 27 24 22 27 37 48 60 76 76 77 80 93 96 93 91 74 62 66 61 57 54 48 46 43 39 42 43 42 42 39 35
14 13 13 14 14 11 10 14 21 22 18 24 27 27 28 30 29 34 33 33 28 31 38 53 75 85 81 86 95 84 94 88 68 53 49 48 42 41 39 42 47 42 40 43 44 47 38 36 33
10 9 10 9 8 9 10 14 16 21 22 27 29 32 32 32 35 37 40 39 36 42 49 70 77 72 74 69 61 55 55 51 44 36 38 38 38 40 45 37 42 44 39 43 44 41 41 35 33
12 13 12 10 10 13 12 15 18 28 28 27 28 30 32 35 41 45 46 49 50 53 60 74 66 66 56 43 44 44 42 35 30 35 41 40 43 43 38 48 41 41 40 39 40 44 41 36 34
13 15 16 14 13 12 14 18 22 23 24 26 26 27 30 36 41 46 48 57 64 68 61 58 50 49 42 37 36 36 34 36 34 37 37 42 42 41 43 42 42 41 37 35 41 41 43 41 37
17 15 13 14 16 17 14 18 22 24 30 32 33 33 34 36 39 42 45 50 52 49 44 37 38 38 36 35 33 37 30 36 39 38 37 36 43 40 37 37 37 40 39 42 41 35 46 44 42
22 16 15 13 14 21 16 13 25 25 29 31 34 35 35 36 37 34 35 36 36 41 40 39 37 34 37 36 35 36 36 38 38 40 41 39 40 37 36 34 36 41 39 41 45 47 46 42 42
18 19 18 17 17 25 15 16 17 22 20 26 30 32 35 37 33 28 27 29 36 42 42 40 36 35 38 39 41 41 43 40 36 35 36 32 29 27 30 29 36 39 40 42 42 58 57 52 54
17 20 32 33 28 28 20 21 15 21 21 20 31 34 37 38 31 28 29 30 38 42 43 40 35 37 40 43 43 42 40 39 38 35 33 33 28 28 32 35 38 36 38 41 47 55 59 51 58
19 18 28 31 29 21 22 17 18 23 21 23 28 32 36 35 30 28 29 31 34 38 40 37 36 38 39 40 39 38 35 33 33 33 33 34 34 35 38 38 38 39 40 47 44 59 60 56 66
21 23 20 26 31 39 16 17 26 24 25 27 29 32 36 31 30 29 30 33 35 38 40 40 38 36 36 38 37 38 38 43 40 37 38 36 38 31 34 38 39 38 38 38 45 54 55 61 61
21 19 28 26 41 32 14 15 18 26 26 28 29 34 32 30 31 30 31 36 35 38 40 44 39 35 34 34 39 38 46 35 35 37 36 35 34 32 31 33 33 33 35 37 39 52 49 57 63
24 23 21 22 26 35 24 15 17 17 22 25 27 30 29 30 31 32 33 36 38 40 44 42 35 32 33 37 41 48 35 30 29 30 30 29 32 30 32 33 34 36 38 37 41 53 54 49 54
19 20 21 38 29 30 37 22 16 19 21 22 23 26 26 28 30 32 36 39 40 40 38 35 35 38 42 43 48 29 27 28 28 26 27 30 32 35 35 36 36 38 36 38 44 48 48 53 57

GFSSGP_sfc_rhum_054.txt.gz
RH
45 27 17 11 14 15 14 12 9 17 28 32 28 36 58 61 69 90 80 52 56 61 70 73 92 91 91 90 90 88 88 86 86 88 88 86 85 84 82 82 81 74 69 69 68 64 61 63 66
15 13 10 8 15 14 12 12 32 57 65 54 67 35 46 77 57 76 68 57 53 56 55 71 94 92 92 91 89 88 86 87 86 85 84 83 82 82 79 79 78 75 67 63 60 61 65 68 72
18 9 9 9 11 15 11 43 28 55 49 59 47 42 51 74 69 68 67 70 54 56 60 82 94 93 91 90 90 90 90 88 87 85 83 82 82 80 77 80 76 72 64 61 60 65 69 73 79
9 8 7 12 14 9 8 49 57 70 38 36 39 56 50 55 69 67 62 76 65 75 80 93 94 93 91 90 91 91 90 90 90 87 83 78 79 78 77 79 76 68 64 62 65 69 73 80 83
7 8 9 11 11 9 9 30 43 48 30 29 35 51 55 67 68 74 82 80 80 90 82 84 94 93 92 90 91 91 91 93 90 86 82 80 78 78 79 80 78 74 69 68 70 72 75 80 82
9 7 12 14 11 10 8 46 48 35 28 26 32 44 52 58 66 76 82 90 89 91 85 79 93 92 92 92 91 92 94 92 89 86 84 82 82 81 80 80 79 77 75 73 73 76 78 80 79
9 10 11 12 13 15 22 40 55 50 38 39 27 43 47 55 56 60 74 86 94 92 87 78 82 91 93 93 92 93 93 90 90 88 87 87 86 85 82 81 79 77 77 75 74 78 79 77 76
7 9 11 12 11 50 54 56 56 36 39 28 36 54 53 51 60 64 73 90 94 90 76 73 79 81 84 85 94 93 91 88 86 85 84 84 82 84 83 82 80 78 76 75 74 79 79 77 76
6 11 14 13 25 44 50 74 73 45 41 32 37 49 63 58 54 70 73 76 82 80 73 70 69 75 78 81 87 88 88 86 84 82 82 85 64 70 74 77 80 78 77 76 75 76 76 78 78
9 13 12 14 32 46 57 63 76 52 77 51 61 55 58 67 55 62 74 91 78 72 58 55 62 66 68 50 78 74 69 68 69 64 73 70 71 69 58 72 80 79 79 79 79 78 76 79 61
9 12 11 34 35 40 50 63 68 25 36 21 53 60 60 64 63 70 76 79 88 69 53 60 66 63 57 59 61 57 61 68 69 69 68 68 68 74 81 88 92 88 84 72 77 73 67 62 63
10 9 15 33 35 35 41 56 29 25 26 31 45 47 46 58 67 83 86 65 51 43 48 55 60 66 65 57 59 58 57 67 71 72 72 89 92 91 92 86 79 74 72 66 64 66 59 60 55
10 11 26 28 24 25 20 34 36 37 30 32 39 38 40 45 48 62 78 37 36 44 49 54 60 66 64 67 70 75 80 83 87 87 82 88 91 88 88 90 79 74 68 67 65 65 62 62 58
12 13 25 24 27 29 28 40 36 32 32 28 29 36 36 47 72 72 31 30 32 38 49 52 58 66 65 72 77 72 72 71 72 79 82 84 90 88 85 86 88 84 77 69 68 69 65 63 61
14 20 19 18 26 21 29 34 31 24 28 28 27 29 27 27 46 26 25 27 31 42 49 54 58 62 67 65 67 66 69 73 76 81 85 86 85 84 79 79 76 72 73 68 66 64 65 63 52
16 20 21 12 14 19 24 35 23 23 28 28 27 27 27 26 23 22 25 27 32 42 49 49 47 67 72 74 69 73 80 84 90 83 84 82 81 75 76 78 77 72 64 66 68 68 60 61 57
18 31 21 17 11 17 21 23 22 22 23 26 26 26 25 24 23 24 24 28 31 45 50 66 76 85 84 92 93 95 96 95 91 82 78 77 70 68 69 71 71 69 65 69 66 68 68 62 56
22 20 17 17 12 14 18 17 18 21 25 28 28 28 28 26 25 29 30 32 29 47 54 79 85 88 86 92 92 91 87 88 82 71 64 64 58 57 64 66 64 63 63 67 69 68 63 63 60
14 15 16 15 11 12 12 15 18 17 21 31 27 28 29 30 32 37 39 44 42 54 71 86 86 82 86 86 83 71 70 68 64 56 56 54 54 53 63 64 62 64 64 64 60 62 63 64 61
11 14 11 10 8 11 11 14 13 17 18 24 27 29 32 33 39 42 48 52 52 64 84 83 76 78 74 68 65 64 64 59 54 56 57 58 57 56 54 64 62 64 63 61 65 66 69 64 64
16 24 26 15 10 10 14 13 18 18 18 21 26 29 32 38 44 48 52 60 66 79 82 68 70 69 68 57 54 56 58 58 54 58 60 58 55 53 54 57 62 62 60 64 66 64 65 70 65
29 21 22 18 21 18 20 33 35 21 25 25 28 29 32 35 39 45 56 69 71 68 75 65 65 60 53 50 51 56 50 53 58 59 57 57 58 53 51 51 54 58 63 64 67 53 68 68 70
31 20 24 14 15 26 30 34 35 25 25 28 30 31 34 35 41 45 58 61 62 65 64 57 49 46 49 48 52 57 53 61 58 57 56 53 54 54 49 48 55 57 64 65 66 67 71 72 71
21 25 19 17 21 44 33 35 30 28 24 28 29 33 35 39 42 40 43 44 47 60 61 58 47 44 49 50 54 54 62 59 60 59 57 54 51 48 46 44 56 60 63 64 65 66 71 77 77
18 23 38 77 68 40 14 26 31 35 36 31 31 34 38 39 40 38 38 40 45 51 55 52 45 45 50 56 58 60 59 57 51 50 55 53 51 53 55 58 60 61 60 62 66 68 75 80 83
36 18 57 57 72 37 29 22 24 20 20 23 27 31 37 40 38 34 35 40 46 51 51 49 43 46 50 56 55 56 50 55 53 56 50 56 56 58 57 58 59 59 60 63 64 68 74 80 86
22 25 22 25 27 50 23 14 27 22 23 24 29 33 40 41 36 32 34 40 44 48 53 54 46 46 50 54 56 52 54 52 52 51 54 58 57 40 52 53 54 55 56 59 63 66 71 73 81
19 15 32 29 52 47 19 18 30 28 26 26 31 36 40 38 35 32 33 41 42 44 47 56 51 46 46 47 53 51 50 51 54 50 51 50 49 48 50 52 54 55 56 58 60 64 68 73 81
23 25 20 18 31 56 57 27 25 22 24 27 28 33 38 37 34 34 34 39 42 52 50 55 49 43 44 49 53 55 56 48 41 44 45 43 46 46 48 50 52 53 55 56 61 66 62 67 70
18 22 20 54 34 40 53 35 17 21 23 23 23 29 32 32 33 33 35 43 45 49 52 53 49 44 46 49 55 60 55 40 42 42 40 44 46 50 50 52 52 52 55 65 69 70 70 71 72

GFSSGP_sfc_rhum_057.txt.gz
RH
71 53 42 28 29 33 33 23 17 58 75 68 60 68 86 84 88 93 84 80 84 88 89 88 94 93 92 91 90 90 89 89 89 89 88 87 86 84 80 80 78 73 66 60 60 63 64 66 69
32 26 32 27 26 34 25 24 74 77 65 60 58 57 72 86 77 90 88 79 78 82 85 87 93 92 92 91 90 89 87 88 88 87 87 87 82 79 76 76 76 71 60 60 63 65 67 69 72
38 21 24 20 23 26 24 75 72 61 53 55 54 59 70 86 75 76 78 79 79 77 83 89 94 93 92 92 91 90 89 89 88 88 86 84 80 76 74 78 75 69 61 64 65 67 70 73 79
20 17 17 18 19 16 14 76 64 62 61 50 55 73 68 70 81 78 85 76 73 86 88 93 93 93 92 92 91 90 91 91 89 87 85 80 77 75 75 79 76 66 64 66 68 69 72 80 80
19 20 20 26 16 17 27 51 64 59 66 54 47 62 85 86 87 94 92 90 90 90 90 87 91 93 92 90 90 92 92 90 87 85 85 82 77 75 76 81 78 73 70 69 71 73 75 79 77
26 18 23 22 16 63 60 65 55 50 40 47 58 63 81 77 88 90 93 94 91 92 89 79 92 92 91 91 93 94 92 90 88 87 86 84 82 82 82 82 80 78 76 75 75 78 77 76 74
21 21 22 17 14 68 64 64 71 56 44 41 45 70 83 76 85 93 94 91 90 93 94 94 90 91 92 93 94 94 92 90 89 89 87 85 85 84 83 83 81 80 79 78 78 76 76 75 74
16 17 18 15 26 82 66 63 74 71 53 42 58 71 92 74 78 92 95 93 91 93 95 91 92 89 92 91 94 92 90 89 87 85 85 86 84 82 82 81 80 79 78 77 77 78 77 76 77
18 20 18 17 41 67 56 62 61 66 61 60 74 68 65 75 82 85 89 88 90 89 94 89 88 88 92 93 88 89 87 86 84 83 84 86 82 80 79 80 80 79 79 77 76 76 77 77 76
18 23 20 38 47 62 59 61 65 59 59 63 70 75 76 77 76 88 88 88 90 93 93 95 85 86 81 72 87 89 81 84 80 79 81 77 80 81 71 80 80 80 80 79 77 79 80 77 69
15 18 30 44 46 52 59 60 60 60 66 58 70 67 81 66 73 81 88 90 88 84 82 85 78 79 66 76 85 86 83 82 79 75 76 82 84 86 92 94 94 89 84 81 75 71 69 60 67
15 28 41 46 47 51 61 62 52 63 49 47 59 67 78 69 75 74 85 90 89 85 70 65 68 59 66 73 76 75 72 82 90 92 86 93 95 94 94 94 93 88 74 76 75 78 68 67 61
13 33 34 37 37 39 38 42 38 43 64 60 57 72 79 74 81 85 90 80 74 72 63 65 66 65 67 79 87 85 91 93 94 94 93 94 95 93 94 93 83 84 83 78 75 74 63 65 62
18 29 33 34 32 36 31 37 42 63 65 75 61 67 81 85 83 84 90 70 53 59 65 68 71 70 80 78 78 78 81 85 88 95 95 94 96 95 94 94 92 90 82 70 71 68 72 69 64
23 28 32 32 33 32 41 46 48 45 63 73 50 61 73 80 76 77 73 56 49 56 59 67 72 81 72 75 76 78 80 85 93 91 92 89 87 86 84 87 80 75 70 70 72 69 67 65 55
24 26 32 29 27 31 30 42 43 40 41 45 40 54 54 80 71 74 66 39 50 53 57 59 61 71 76 76 88 88 92 95 95 95 92 85 81 80 82 76 76 74 74 76 75 73 68 65 63
25 38 30 28 30 31 33 38 38 38 38 42 43 39 44 38 36 32 36 45 51 52 58 83 84 91 91 95 97 98 97 97 95 92 86 78 74 73 78 78 72 75 77 75 68 72 70 69 65
31 32 26 26 41 34 34 33 37 34 34 39 40 36 34 36 35 33 36 45 52 62 78 85 92 94 96 96 98 98 98 96 93 84 72 71 71 69 75 74 69 70 71 73 74 68 67 68 69
22 23 25 21 18 25 26 32 33 36 48 43 57 38 34 35 42 38 45 48 60 86 91 92 90 93 93 97 98 98 96 95 84 76 70 67 63 65 72 74 72 71 67 68 66 68 66 70 74
23 25 27 18 16 18 22 23 24 43 43 32 38 55 40 54 53 51 55 61 76 93 95 92 86 92 91 87 92 83 84 78 72 70 69 66 64 65 65 67 67 65 64 69 68 70 73 72 70
28 33 29 26 23 16 18 26 31 26 47 45 35 45 40 52 57 59 62 94 97 97 95 88 88 88 84 86 84 80 75 74 72 72 71 66 64 61 61 62 65 64 66 68 68 68 69 73 73
39 26 27 27 33 32 28 54 39 32 28 45 42 45 56 51 53 60 81 92 96 96 93 84 84 84 84 83 72 72 66 63 69 75 73 66 62 58 56 54 56 60 65 64 71 62 72 76 78
36 25 30 32 33 39 37 50 40 31 36 34 40 43 48 52 57 70 79 79 86 89 93 85 84 81 75 57 64 64 70 70 68 64 65 66 60 58 55 54 56 62 70 73 75 77 71 76 77
26 29 37 46 44 53 34 42 46 38 32 36 37 44 51 56 62 70 74 78 84 88 90 90 75 56 59 63 67 69 72 69 66 62 57 60 54 58 60 56 64 65 64 66 70 74 76 81 84
31 38 63 72 77 67 32 42 39 36 42 38 42 47 58 64 64 72 75 75 73 72 72 63 59 61 62 68 67 61 60 57 58 60 59 55 58 60 63 62 66 68 67 68 71 73 80 83 87
37 44 65 70 82 61 44 48 39 33 34 33 37 47 54 58 54 58 57 61 64 62 62 57 59 62 66 65 63 59 62 66 56 52 58 61 63 62 58 55 57 59 59 62 67 75 78 84 91
47 65 43 49 57 59 45 41 37 32 40 46 44 50 57 53 52 50 55 59 63 65 63 64 60 63 67 65 63 62 58 52 52 56 58 64 58 43 54 57 56 58 58 61 66 73 72 82 84
30 38 48 54 48 55 40 39 51 40 37 44 47 56 58 55 49 46 52 58 58 60 63 68 58 56 55 62 63 55 50 49 56 56 56 54 51 50 54 55 57 58 60 63 72 80 80 83 88
34 35 32 34 55 62 73 46 40 40 38 42 49 50 56 55 47 49 51 52 52 53 54 65 51 47 52 54 56 52 50 54 48 46 49 47 49 50 52 55 56 58 64 75 79 78 77 80 80
24 31 44 65 44 58 68 53 26 31 35 35 41 44 51 47 46 48 50 50 52 57 59 51 50 53 59 54 54 57 60 52 43 43 45 51 50 54 53 56 58 60 72 73 74 77 77 80 78

GFSSGP_sfc_rhum_060.txt.gz
RH
77 60 43 31 29 36 38 29 22 42 71 69 66 75 84 87 82 86 91 88 90 86 91 90 94 94 93 91 91 90 89 87 86 88 88 87 82 78 76 76 74 67 61 62 63 63 62 64 66
50 37 35 30 29 33 27 28 48 75 65 64 61 73 76 90 84 93 91 82 87 86 87 88 94 92 91 91 89 88 86 87 87 88 85 82 77 75 73 72 72 68 63 63 62 62 62 65 69
35 24 29 29 28 26 27 66 72 65 59 66 67 72 79 90 83 87 81 79 87 88 89 90 93 92 91 91 90 90 89 89 88 88 83 77 75 73 71 73 72 69 64 62 61 62 64 70 77
22 21 22 20 24 17 29 52 74 68 60 57 65 83 80 82 85 84 78 82 90 93 92 95 94 94 92 90 91 91 91 91 89 86 82 76 73 71 72 76 73 68 65 64 64 64 69 78 78
23 24 26 22 19 54 69 66 63 65 69 59 58 80 89 91 93 83 81 86 93 94 92 91 94 92 90 91 91 91 90 89 88 86 83 80 73 72 75 80 78 75 68 68 68 68 75 76 76
29 22 26 24 26 70 66 72 64 68 53 57 64 78 92 88 92 97 92 91 90 90 89 82 85 84 85 92 93 92 90 90 89 87 85 81 80 80 80 81 80 79 78 76 74 75 75 75 77
31 27 26 19 21 74 68 68 77 66 58 57 63 91 88 94 96 94 96 93 92 90 93 95 89 80 93 94 93 92 90 90 90 88 85 84 85 84 82 82 81 80 79 77 74 73 76 75 78
22 20 25 17 23 67 69 66 72 61 71 55 75 91 90 85 96 92 95 97 94 94 93 94 84 94 94 93 92 91 90 89 87 85 85 85 84 83 82 82 80 79 77 76 71 73 75 75 77
19 25 26 21 39 68 62 68 64 65 59 62 70 72 76 96 91 92 96 95 96 96 91 88 95 95 96 94 87 88 86 86 85 84 86 87 83 81 80 81 79 78 77 76 73 76 76 79 79
20 25 22 31 59 68 63 67 66 68 65 67 69 83 86 84 86 89 92 96 94 94 93 95 94 94 89 76 90 90 81 86 83 82 82 78 84 84 78 80 79 79 78 80 81 80 78 73 69
22 20 33 50 57 57 61 71 69 64 69 62 65 90 91 84 83 84 83 88 88 86 92 96 89 88 86 84 91 90 88 84 82 80 81 82 86 88 92 95 95 92 84 82 68 64 65 64 66
18 23 38 52 55 59 65 68 69 71 54 49 56 86 87 87 87 84 83 82 83 85 87 94 92 85 82 84 81 83 82 90 92 94 91 96 98 96 96 96 93 86 78 74 74 74 67 66 60
21 45 45 46 44 50 49 47 51 65 77 60 69 77 81 80 88 82 87 78 78 90 82 80 80 73 83 88 87 94 97 98 98 97 94 96 97 98 95 93 83 84 80 75 73 70 65 62 57
35 40 41 43 44 41 42 46 49 62 67 64 68 84 77 76 82 92 91 88 84 79 70 68 68 77 84 91 89 93 95 96 98 98 96 92 96 94 94 92 90 87 78 74 71 69 67 65 59
33 44 38 41 38 37 43 40 50 54 63 71 66 79 74 73 80 80 81 81 63 64 64 68 80 83 78 81 82 88 87 94 95 97 94 89 86 86 84 86 79 76 76 74 71 68 65 64 56
28 32 39 38 31 31 34 50 41 61 64 76 79 77 70 73 71 73 73 67 58 61 60 68 70 78 78 84 90 86 92 96 97 96 91 86 84 78 76 78 80 84 81 77 74 70 66 68 66
29 37 38 44 31 30 33 42 45 67 61 65 83 81 66 66 71 64 68 57 58 58 62 83 84 88 92 95 96 96 94 96 96 92 86 80 79 76 78 78 82 80 78 77 70 74 69 69 67
34 34 31 37 37 40 39 40 43 51 49 54 71 84 69 71 66 62 63 52 55 59 74 83 88 94 96 96 97 98 97 96 92 86 79 75 78 76 80 79 77 73 72 76 71 66 70 72 69
28 29 34 30 28 41 38 35 38 43 52 51 63 74 76 71 59 64 59 51 58 80 86 88 92 94 92 94 98 99 97 96 90 82 74 72 72 73 75 76 71 69 68 72 67 70 67 71 75
37 39 35 25 25 37 33 35 42 49 43 44 46 45 42 50 44 46 50 64 85 91 90 93 88 91 88 85 96 92 92 92 82 80 76 70 72 74 70 72 69 66 70 69 68 70 76 75 75
38 42 34 31 29 28 27 36 37 38 45 46 42 44 45 49 57 58 63 94 96 96 95 90 89 89 87 83 89 87 81 81 80 80 78 73 70 68 67 65 67 67 70 69 70 72 71 74 77
45 32 29 30 31 28 31 45 43 33 46 48 50 54 57 57 56 77 92 96 94 94 96 88 86 87 86 92 91 82 80 76 78 80 77 74 66 64 61 63 66 68 72 70 76 71 76 81 80
40 34 31 36 42 43 41 39 34 35 39 42 45 53 55 55 58 88 96 96 96 96 95 94 94 92 89 91 86 77 77 76 80 81 76 76 72 66 61 62 66 72 77 74 73 76 74 81 80
27 34 46 51 52 55 43 42 40 37 30 34 44 46 55 57 72 83 88 92 95 95 97 97 96 92 89 85 79 76 76 82 80 79 76 65 61 64 62 63 69 70 71 72 76 78 79 84 90
34 45 64 64 71 61 40 47 38 35 33 33 40 50 56 65 85 89 93 94 96 96 95 94 85 71 75 74 74 75 69 67 64 66 61 58 61 66 62 64 64 67 66 65 67 70 73 80 90
46 43 64 59 69 52 46 50 38 35 33 39 45 59 66 76 79 84 88 89 88 87 88 75 66 73 69 62 65 65 64 68 65 60 64 65 66 65 67 59 60 59 60 64 70 77 79 83 92
47 55 54 61 64 62 48 40 39 37 40 45 51 64 74 74 81 80 78 75 71 70 71 68 68 71 64 63 65 64 61 58 66 64 64 72 66 56 58 57 59 60 62 70 74 84 87 87 90
33 40 58 68 50 52 44 45 52 44 50 56 56 68 70 66 69 70 69 66 61 61 64 70 69 67 64 64 64 58 54 58 60 68 67 63 54 53 56 58 59 59 68 74 78 83 83 82 86
39 41 43 45 58 60 70 48 39 42 45 53 56 60 63 59 61 63 63 61 60 62 65 70 68 63 61 62 62 56 59 61 59 55 58 51 52 54 56 58 57 59 70 74 78 78 79 80 83
38 39 43 66 44 64 70 50 31 40 40 50 50 54 60 51 52 55 59 62 66 66 74 67 60 53 52 53 57 61 60 62 58 49 50 53 54 57 57 58 57 60 72 76 72 74 74 76 78

GFSSGP_sfc_rhum_066.txt.gz
RH
75 51 44 28 31 39 45 32 28 22 40 84 75 86 89 91 80 84 93 87 85 90 90 92 91 90 89 88 88 88 87 86 83 82 81 79 76 74 73 74 72 68 60 57 60 65 74 79 79
51 42 32 28 31 35 26 27 54 75 68 80 70 76 87 95 88 94 92 94 87 87 90 92 91 89 89 88 88 87 85 85 84 80 77 76 72 71 70 72 72 68 62 59 61 67 76 80 84
34 27 32 32 36 28 24 22 78 71 68 74 86 87 92 92 88 88 92 92 88 87 82 92 92 90 89 89 88 88 88 87 85 82 77 74 70 68 69 76 72 67 64 60 61 68 78 83 84
23 22 24 28 38 21 22 64 79 76 71 69 80 92 84 91 92 90 90 88 89 88 89 96 94 92 90 90 90 90 90 89 85 82 79 73 67 68 72 77 73 69 65 60 62 66 74 82 85
26 27 31 32 24 20 74 74 76 73 74 70 71 96 95 94 90 95 88 91 91 95 97 94 93 93 91 90 90 91 91 88 86 83 79 76 73 72 79 81 79 74 70 66 67 70 77 82 83
33 26 29 34 26 40 74 72 76 71 69 75 88 94 93 90 91 94 95 97 95 96 97 89 86 88 85 82 84 92 92 89 88 85 81 79 80 82 81 82 80 78 78 78 78 81 79 78 82
33 34 40 29 23 20 70 72 74 75 71 76 82 96 93 96 94 96 97 95 95 95 95 96 90 87 86 91 94 94 92 92 91 88 87 86 86 86 84 82 80 79 79 80 81 84 84 79 81
31 29 43 26 25 24 73 72 79 76 79 72 76 95 92 98 97 95 96 96 95 95 96 96 96 96 95 90 93 94 93 93 90 87 87 87 86 85 84 84 82 81 81 82 82 81 85 82 81
26 30 36 28 28 29 77 74 78 75 71 83 94 87 92 96 94 96 98 97 96 96 96 98 97 94 96 96 91 90 90 90 88 86 88 89 87 84 84 84 83 83 84 82 80 78 76 76 78
27 33 27 20 22 65 73 73 76 74 72 90 85 90 93 96 94 96 96 98 98 98 98 97 95 90 96 82 93 92 86 89 88 85 85 86 91 89 83 86 86 86 82 78 74 70 67 60 58
27 28 22 22 60 60 65 79 82 80 77 84 86 93 93 89 92 93 93 93 93 93 97 96 97 94 95 93 93 92 90 90 88 85 87 88 92 92 96 98 96 85 72 66 62 56 55 57 56
29 21 22 57 60 58 63 78 77 79 86 75 81 86 89 91 94 94 96 96 92 93 92 90 86 94 95 92 90 89 85 87 91 92 91 96 99 98 96 94 92 82 77 70 67 64 60 58 56
24 38 54 61 58 59 62 68 67 89 95 84 80 82 85 89 93 92 88 89 90 92 90 84 80 95 94 91 89 88 90 90 92 94 94 97 98 96 94 91 82 78 74 67 65 63 58 58 57
48 50 57 65 62 62 51 61 64 93 90 82 84 90 88 89 89 88 89 86 78 77 83 83 93 94 91 90 90 92 97 98 98 98 96 95 96 94 93 92 89 86 72 69 66 64 63 63 59
48 50 47 56 60 52 54 62 76 86 88 81 85 81 88 88 80 77 78 82 80 72 83 87 96 91 94 90 94 98 98 98 98 98 97 95 93 88 85 86 80 78 66 64 63 67 67 64 57
44 44 57 45 42 42 48 58 74 77 86 76 76 89 89 81 77 77 71 72 71 73 84 83 77 89 92 95 96 99 99 98 98 98 92 86 87 82 81 75 76 75 70 67 64 66 68 69 63
37 45 52 43 39 37 43 56 63 71 84 93 82 87 88 79 76 75 73 73 72 75 77 80 90 94 95 96 98 98 97 99 98 93 85 80 80 80 76 84 85 78 76 72 64 70 69 66 65
45 44 41 43 33 43 48 49 74 66 83 91 93 91 86 80 69 77 85 83 81 80 82 95 96 96 97 98 98 98 98 98 97 93 86 80 81 81 84 80 82 78 76 74 70 70 76 72 70
36 44 45 40 32 39 42 44 69 69 83 92 96 96 91 83 73 76 83 85 80 83 93 96 97 98 95 97 98 98 98 96 94 78 78 77 79 78 80 80 75 75 71 70 68 74 70 76 79
43 45 44 38 34 39 50 47 42 68 74 74 90 95 88 82 78 75 87 89 81 83 92 96 95 96 93 86 97 93 96 95 86 81 81 83 82 79 74 75 73 73 74 73 73 74 80 80 81
44 46 49 42 38 44 43 43 46 54 64 61 73 79 81 76 77 72 80 86 82 85 92 94 94 95 90 93 96 97 96 89 89 91 87 83 81 79 74 74 75 77 76 75 76 76 74 77 81
50 38 43 46 41 42 38 44 43 49 58 60 61 78 80 78 69 68 75 86 84 83 92 92 95 95 94 94 96 92 95 86 86 89 86 84 81 78 74 74 76 77 79 73 80 72 81 81 79
41 41 45 43 45 57 49 43 35 53 60 57 56 67 71 74 71 68 68 76 83 93 96 97 96 95 95 94 94 93 92 90 90 88 85 86 79 73 71 74 77 73 80 74 76 80 83 86 85
38 46 44 52 53 55 48 47 45 50 47 46 49 51 59 59 65 62 68 87 95 98 99 98 97 96 96 96 96 94 93 89 92 91 93 87 85 78 73 65 70 75 70 67 72 75 75 84 88
41 46 58 60 66 57 49 54 46 38 32 39 48 49 51 54 71 73 86 93 97 98 99 98 96 97 96 96 96 95 93 86 86 89 88 80 78 76 73 70 74 66 64 64 71 72 73 77 82
48 43 61 54 60 51 49 56 38 37 40 42 40 47 50 59 69 77 81 94 95 96 97 96 96 95 97 96 95 97 92 93 88 85 77 78 76 71 77 83 80 65 61 68 71 76 81 87 91
52 54 46 63 70 73 56 42 27 38 51 58 68 64 62 62 74 85 92 93 95 96 95 96 94 95 96 96 97 94 94 88 80 72 67 79 83 78 86 88 80 61 62 68 76 82 82 87 87
40 47 56 67 60 57 49 49 40 32 36 54 74 74 80 74 76 90 96 94 94 94 91 95 96 94 90 90 90 86 78 70 65 74 83 81 88 83 92 80 65 63 67 74 81 84 84 85 87
50 52 53 54 63 59 69 48 41 38 40 45 53 64 83 91 91 90 93 94 96 95 98 97 92 82 79 77 78 74 68 73 82 83 85 81 87 91 73 65 64 65 72 77 81 83 83 83 80
45 46 51 66 54 70 70 60 34 33 39 48 50 53 79 90 93 93 93 94 96 96 96 91 87 77 76 73 78 80 74 72 79 83 84 89 84 72 68 66 65 67 70 77 82 82 76 83 80

GFSSGP_sfc_rhum_069.txt.gz
RH
55 30 26 18 18 22 20 19 23 19 22 66 66 63 56 68 64 67 80 72 75 79 66 71 90 89 88 87 88 88 88 86 83 82 84 81 77 75 74 73 70 67 63 65 71 74 71 76 78
34 30 22 20 18 18 14 18 28 48 52 70 68 73 75 86 78 89 78 71 82 76 66 68 91 88 88 88 88 87 85 84 83 82 80 77 76 75 74 72 69 69 67 68 74 77 77 76 85
23 19 22 20 21 16 13 14 36 44 55 66 71 71 76 84 80 81 77 78 87 76 69 71 90 89 89 88 87 86 86 86 83 82 77 75 75 74 73 71 71 70 66 70 73 76 78 84 89
17 15 16 19 19 16 14 19 61 62 55 58 70 71 75 84 85 80 75 83 88 84 70 86 91 91 89 88 88 88 88 85 83 81 77 74 74 73 75 73 70 69 67 68 75 77 82 89 89
18 18 20 20 17 13 24 51 60 60 62 62 63 76 83 88 86 81 78 80 88 87 74 78 91 90 90 90 90 90 88 86 84 80 77 76 77 77 79 76 74 73 72 69 71 77 82 85 85
21 18 19 19 18 15 44 56 59 60 58 63 70 76 86 90 90 92 88 83 88 94 85 79 87 87 91 90 91 91 89 87 85 82 80 81 83 82 82 80 79 80 80 79 77 80 82 80 81
22 22 22 20 19 17 35 59 56 55 55 65 65 79 90 94 97 94 92 91 95 93 90 95 83 81 87 93 93 92 91 90 87 87 87 87 87 85 82 81 80 80 82 81 81 82 84 82 82
20 20 22 20 19 18 36 58 65 58 61 60 64 69 78 95 96 96 95 96 94 93 95 96 96 95 92 88 94 94 92 89 88 87 87 86 85 84 84 83 82 82 81 83 81 82 83 83 84
17 21 22 20 19 18 57 60 64 59 57 76 79 73 77 93 92 96 96 97 96 97 98 97 96 96 91 85 87 90 90 88 87 83 88 83 65 64 62 82 86 84 83 80 75 73 75 76 75
19 23 20 17 16 35 55 61 57 57 62 77 78 80 90 92 90 96 96 97 97 98 98 96 96 92 92 86 89 84 76 69 75 67 72 68 70 66 63 78 87 81 77 73 69 65 64 51 36
20 21 19 15 19 47 51 57 57 55 55 60 71 92 94 96 94 90 96 96 96 96 97 92 88 90 92 90 82 80 70 71 73 75 66 70 69 74 76 80 71 60 60 44 45 42 37 43 38
22 18 18 22 50 48 45 54 58 54 59 64 64 73 82 90 95 96 96 95 94 94 92 93 92 94 94 86 79 78 76 71 68 69 76 85 81 85 82 73 75 61 48 52 46 45 49 46 43
21 26 42 42 48 47 50 52 56 78 78 67 72 82 85 87 92 90 90 92 92 91 87 92 94 93 90 82 81 78 74 70 70 73 77 82 84 88 82 76 61 57 47 45 45 42 39 42 41
32 40 46 50 48 47 39 49 47 72 74 81 83 81 80 87 91 90 84 91 82 82 77 79 89 80 87 79 78 73 72 70 67 75 77 82 84 84 76 71 62 52 44 41 40 39 36 37 37
36 38 37 42 42 39 38 44 56 72 75 77 81 86 87 86 87 85 86 84 77 72 57 66 68 83 84 78 72 71 73 81 85 82 84 84 83 78 69 59 52 47 49 53 47 46 42 36 34
34 33 36 32 38 36 34 40 62 72 73 69 74 76 75 76 82 77 71 69 69 68 62 59 65 77 80 74 67 70 78 90 90 91 86 80 76 68 64 55 54 52 49 49 44 41 41 41 36
28 32 36 30 32 32 34 42 51 68 68 59 68 66 77 76 69 66 62 64 62 64 67 74 78 85 83 81 84 88 88 91 90 91 80 79 70 68 58 58 58 56 50 50 45 48 43 41 37
33 33 33 32 27 32 31 39 53 66 70 60 67 70 76 74 67 62 61 61 58 64 66 72 80 84 83 87 89 89 91 89 87 85 78 68 65 68 66 57 60 52 52 51 48 50 48 44 44
30 32 34 31 26 29 32 37 53 62 71 72 69 67 66 78 58 60 63 64 66 67 68 73 81 84 81 83 89 88 91 88 88 77 67 69 64 72 64 57 59 57 51 50 54 50 52 49 51
33 34 32 30 28 33 34 32 39 54 64 66 65 70 62 61 68 66 69 70 69 64 69 77 75 81 76 68 72 72 76 78 77 66 65 68 73 64 61 61 56 56 52 57 56 54 51 51 53
35 36 37 33 32 32 35 30 36 44 53 60 61 60 63 63 61 65 68 73 75 72 76 74 74 76 74 74 76 79 81 77 73 69 70 66 65 60 60 59 57 57 51 51 57 57 56 50 55
39 33 33 36 33 29 28 29 28 35 49 56 59 64 64 67 65 59 62 67 73 70 73 70 75 77 78 78 78 78 77 79 73 70 71 66 65 62 57 57 58 57 54 57 57 56 58 56 50
35 35 35 34 34 33 35 29 24 38 41 42 49 55 58 58 61 62 59 60 67 72 80 79 79 78 78 80 79 83 84 84 78 75 70 68 65 61 56 57 59 60 59 66 64 64 62 54 47
34 36 37 40 41 43 37 33 28 26 31 35 36 44 51 56 58 57 56 57 66 80 83 84 81 80 82 82 82 81 85 85 75 68 68 65 61 58 59 54 61 64 61 67 66 61 61 54 53
33 37 43 48 49 43 40 40 32 30 28 29 30 41 44 51 59 60 58 64 69 81 83 84 80 84 84 88 86 83 88 85 75 68 66 65 61 58 60 60 65 56 74 76 65 57 57 56 53
37 36 50 40 46 38 42 42 26 29 28 33 39 38 42 47 53 55 55 61 71 80 82 81 81 79 84 87 86 83 88 90 70 66 63 62 59 58 61 64 73 79 84 69 62 58 51 58 65
42 42 38 54 56 58 42 33 23 27 31 35 37 50 42 46 48 49 53 62 68 78 82 83 80 82 85 86 86 87 92 83 72 70 66 66 64 60 67 78 90 92 73 55 57 51 56 63 66
35 39 47 52 52 48 36 37 29 25 25 34 37 43 51 54 51 51 55 65 69 72 73 81 79 77 86 84 85 85 85 78 73 73 70 67 64 64 76 94 94 74 52 54 58 56 58 63 64
44 43 44 41 47 48 49 35 33 28 27 33 34 41 45 55 57 58 64 65 68 71 73 79 80 84 83 81 83 83 79 74 72 71 69 68 77 88 94 92 71 52 51 54 58 59 59 62 62
35 39 42 58 47 55 52 43 27 30 31 33 36 39 41 53 55 63 69 75 74 76 78 84 86 86 77 74 76 74 72 73 73 74 74 74 90 89 86 67 51 49 50 52 57 58 56 62 63

GFSSGP_sfc_rhum_072.txt.gz
RH
45 15 11 13 13 10 11 10 10 14 23 21 26 41 39 42 37 46 57 53 56 53 47 62 90 90 90 89 89 89 88 87 85 83 82 78 76 75 74 72 72 71 66 67 72 75 74 75 80
14 16 14 11 12 12 10 10 13 21 27 46 43 42 41 43 55 66 69 58 54 49 44 49 92 89 88 88 88 88 86 86 84 82 79 78 77 76 74 72 74 74 73 72 71 74 75 80 84
16 14 13 12 12 11 10 10 13 27 31 47 35 42 47 53 58 60 56 68 62 52 44 52 91 89 88 89 88 87 86 86 84 81 78 78 77 74 73 76 76 75 74 75 74 73 81 86 88
10 10 11 11 12 9 10 11 26 40 37 42 50 56 56 72 68 58 58 67 76 59 49 80 93 92 90 89 88 88 86 85 82 79 79 78 76 74 76 76 75 77 76 75 75 79 86 90 89
9 9 11 11 10 9 10 17 28 37 41 43 47 51 62 73 68 63 67 77 82 71 58 68 93 92 89 88 88 88 86 84 80 79 79 78 77 77 77 77 77 77 78 76 79 84 86 86 85
11 10 12 10 10 11 12 26 37 41 41 43 44 60 76 86 79 64 78 77 79 71 70 67 89 89 89 88 89 88 87 84 81 80 82 82 82 82 82 82 82 81 79 81 83 85 83 82 84
12 12 12 11 14 16 22 34 40 36 36 41 44 48 66 82 82 77 74 65 70 80 75 82 80 85 96 95 92 90 87 85 84 85 87 86 85 83 82 82 82 82 81 81 82 82 83 82 82
11 11 13 12 14 18 23 41 44 39 38 43 44 41 50 85 84 82 87 93 94 97 95 96 96 96 88 92 94 93 90 89 88 86 85 85 84 85 85 84 84 84 83 79 81 85 84 81 79
11 13 11 13 17 14 26 36 49 41 39 46 49 49 54 89 87 88 94 96 97 98 98 97 96 95 89 78 89 88 89 87 85 79 82 71 48 45 49 80 86 84 82 78 77 78 78 76 71
13 13 12 10 10 13 26 43 40 42 48 48 53 56 66 88 92 96 97 98 97 97 98 97 95 96 94 86 85 74 68 51 47 50 50 42 48 42 46 71 84 80 78 74 69 68 63 57 31
14 14 14 12 13 14 25 33 36 34 30 32 45 57 89 83 90 92 96 96 96 95 96 95 95 91 92 91 92 94 67 61 54 52 44 52 50 54 51 55 50 50 57 39 40 39 32 39 34
17 15 15 14 25 29 28 30 32 33 39 42 42 53 86 86 86 94 96 97 96 94 90 91 91 85 83 78 69 72 62 59 57 59 56 56 51 58 58 51 48 49 40 46 42 41 44 41 38
19 17 25 23 30 31 30 32 35 36 50 46 44 64 79 89 94 92 93 90 95 96 95 90 84 85 83 82 78 68 65 60 56 62 59 53 55 62 57 57 50 45 44 40 41 39 35 35 32
24 27 30 31 31 29 27 31 31 42 60 71 77 74 78 85 91 91 88 90 86 88 91 91 92 82 81 69 71 65 62 60 59 59 60 67 62 68 68 63 50 45 39 37 36 32 28 27 28
27 29 28 28 27 25 25 30 32 41 50 53 65 78 82 86 88 83 73 82 84 87 87 89 85 78 74 65 59 56 54 52 52 62 74 74 77 73 68 53 46 41 41 45 36 33 30 25 23
25 25 23 24 24 25 28 24 33 40 46 42 51 60 84 89 86 88 70 62 69 71 75 66 54 66 73 62 54 51 50 57 63 64 69 70 67 63 57 49 46 44 39 35 34 30 28 28 26
21 19 21 22 21 23 26 22 31 36 35 34 42 46 56 75 86 70 62 55 50 50 49 51 56 66 69 64 52 52 59 65 69 78 66 70 64 60 51 48 49 46 39 38 32 33 33 32 28
21 20 22 21 19 21 20 21 29 38 35 34 35 39 48 50 58 57 54 52 48 46 45 49 59 70 69 68 66 61 63 76 80 73 67 70 58 58 53 48 49 40 39 38 35 39 35 34 33
19 20 21 18 18 20 20 19 22 38 41 39 39 39 46 43 43 46 48 48 46 50 49 55 62 69 67 62 55 57 72 81 83 74 70 67 66 57 53 44 47 43 41 40 44 42 44 39 39
20 23 22 19 21 25 19 19 17 32 39 37 37 36 36 50 45 43 45 50 51 51 54 56 58 65 62 48 47 53 62 78 76 61 70 62 61 56 51 48 46 44 42 46 46 45 41 41 42
22 25 24 22 22 22 23 20 21 23 32 36 36 34 35 34 47 45 45 48 50 50 53 50 51 53 57 52 46 55 60 66 68 65 71 62 62 54 47 48 46 48 41 42 47 46 48 43 44
26 20 22 24 26 22 22 19 17 19 27 34 37 38 36 36 33 40 42 44 49 48 46 45 45 50 56 58 55 62 56 62 61 67 63 55 58 49 46 47 49 48 40 45 46 44 48 48 43
25 23 24 25 25 24 22 18 16 19 20 20 28 35 36 37 36 33 38 39 40 45 50 52 51 56 58 64 62 61 60 61 70 89 82 62 58 51 46 48 50 48 42 48 54 54 53 43 40
25 28 28 28 26 31 23 22 14 14 16 17 17 22 32 35 35 37 34 36 39 51 58 60 58 59 60 65 68 68 67 73 76 86 83 60 52 52 52 45 49 49 51 53 54 66 68 51 38
26 29 35 40 36 32 27 26 19 14 16 19 18 19 22 27 34 36 36 38 39 49 60 61 59 57 59 67 70 77 74 74 72 74 71 54 52 53 54 51 53 49 50 72 82 76 46 42 40
24 26 34 37 37 28 29 25 16 17 18 17 21 23 24 25 28 34 35 38 40 49 58 58 56 56 58 67 74 74 70 70 68 71 60 54 52 50 51 53 50 50 81 86 78 55 42 44 46
32 31 25 34 42 38 21 20 14 14 15 19 20 25 28 26 27 29 33 37 42 50 56 57 52 51 59 70 74 75 74 74 73 73 63 56 53 48 56 54 62 81 92 85 60 45 45 46 48
26 23 34 32 42 38 22 23 18 16 16 19 16 16 27 30 29 29 30 36 40 44 47 55 48 48 54 62 70 74 72 72 78 74 63 58 56 54 59 70 86 94 86 58 48 44 43 46 46
32 30 28 26 30 37 36 24 16 15 15 18 17 21 22 29 32 31 32 33 39 43 47 51 49 45 51 61 70 76 74 81 83 74 68 63 60 62 76 91 94 76 52 44 46 44 42 45 46
21 24 27 36 33 36 40 30 15 16 18 20 19 19 22 27 31 32 35 37 40 46 48 48 50 51 53 59 72 82 86 83 84 81 74 75 81 86 94 90 68 49 39 42 42 42 38 43 45

GFSSGP_sfc_rhum_075.txt.gz
RH
48 22 9 9 13 11 10 8 6 8 10 11 13 17 24 45 67 70 38 37 42 49 48 63 93 91 91 90 90 89 88 87 85 83 81 79 77 76 76 75 74 76 76 74 74 73 75 77 78
13 9 9 10 13 11 10 8 9 8 15 20 16 17 22 75 76 75 54 48 49 46 47 56 94 91 90 90 89 88 86 86 84 81 79 78 77 76 76 77 77 75 74 74 74 75 77 78 81
15 9 12 12 11 11 10 10 8 12 20 27 24 20 24 48 67 50 49 57 54 47 44 58 91 91 90 89 88 87 87 85 82 80 79 79 76 76 78 80 81 80 74 73 74 77 81 84 87
9 9 9 11 10 9 8 8 12 18 18 19 24 23 25 51 56 53 50 56 54 47 43 84 93 90 89 89 88 88 87 84 82 81 80 77 76 78 79 82 82 80 78 75 77 82 84 88 86
8 8 11 11 9 7 8 18 19 23 27 27 32 31 36 56 45 52 56 57 65 49 60 72 93 90 89 89 88 88 86 83 82 81 79 77 78 79 82 82 84 83 82 82 84 84 83 85 85
10 9 11 12 9 8 19 39 23 27 32 32 36 52 50 63 66 66 62 62 66 67 73 71 89 90 90 89 89 88 85 84 83 82 81 81 82 83 84 84 84 85 87 89 88 86 83 85 83
10 11 12 10 9 22 17 25 31 28 24 41 32 56 66 72 70 88 68 69 77 83 83 81 84 89 93 93 92 90 86 85 85 85 87 86 85 84 84 82 82 84 85 86 84 84 85 82 82
8 9 10 9 11 28 17 23 30 30 29 29 34 39 65 60 71 70 73 74 91 95 97 90 90 86 91 89 95 94 91 91 90 89 87 86 86 85 84 84 85 84 84 84 83 84 84 80 78
8 11 12 9 10 30 14 23 31 31 27 28 32 37 54 64 69 80 92 97 98 98 98 97 96 91 88 86 91 88 89 89 88 84 82 69 55 53 56 87 86 82 83 83 81 80 79 74 66
11 12 11 8 8 10 12 21 26 27 27 28 37 41 68 73 76 95 97 98 97 98 98 96 94 90 91 89 83 75 64 56 53 55 50 38 50 48 49 79 85 81 79 78 78 76 76 65 35
10 12 11 9 11 12 14 18 23 24 22 27 29 38 57 70 84 93 97 97 97 97 97 93 94 94 96 92 90 84 53 50 52 60 50 48 50 57 57 61 52 53 59 42 45 47 36 40 36
13 10 11 11 12 18 18 18 19 21 26 31 28 34 57 70 78 96 97 97 96 97 97 92 92 92 90 73 74 71 78 60 60 57 63 68 60 62 59 48 48 50 40 44 42 42 48 43 37
13 10 11 16 16 20 20 20 22 21 33 43 36 54 75 73 94 96 95 96 95 97 97 95 91 89 90 77 67 62 75 61 62 63 63 62 61 72 62 57 46 43 44 44 44 44 39 36 31
14 15 15 17 18 20 21 19 20 32 38 47 54 59 71 89 94 95 95 96 92 93 93 93 95 94 90 86 82 83 72 63 60 70 64 68 79 81 73 58 49 48 44 40 40 38 31 27 29
17 19 17 17 16 17 18 32 61 28 30 41 53 62 73 85 85 88 86 90 89 90 92 93 95 93 92 87 78 61 56 54 56 69 71 64 72 70 66 57 57 45 43 46 39 33 30 27 25
19 18 24 54 23 17 18 58 56 29 28 32 43 57 80 85 83 84 81 76 80 85 88 88 85 89 86 73 55 51 47 56 65 62 74 70 71 68 64 53 48 45 45 38 34 31 30 30 29
17 24 26 21 14 16 18 20 25 25 26 31 33 39 50 92 92 89 81 81 74 75 82 90 86 84 79 60 56 51 58 72 76 79 79 68 64 62 52 47 48 49 41 38 34 34 35 35 31
21 26 16 15 22 15 15 16 16 24 24 25 30 37 38 43 74 61 58 57 54 57 58 65 76 77 70 71 62 56 60 72 75 80 72 68 56 58 51 47 52 44 38 38 35 41 36 35 36
15 16 16 15 14 16 16 15 15 23 26 31 29 37 40 40 50 50 53 50 41 48 47 48 54 68 70 70 54 50 50 71 82 74 66 64 57 56 54 47 51 43 40 40 47 44 47 42 40
16 18 18 15 14 18 16 16 15 20 23 28 32 30 34 35 40 47 50 50 42 45 43 45 47 60 61 46 43 41 45 65 69 64 67 65 69 66 53 50 48 44 40 47 48 46 43 42 43
19 20 21 20 16 16 17 17 14 16 21 24 28 26 30 31 38 39 42 44 45 45 46 43 50 56 60 44 37 40 57 58 71 70 65 63 60 55 52 49 47 46 44 46 50 48 48 45 44
22 16 18 19 20 33 17 25 24 14 19 23 27 28 26 30 31 35 39 44 46 45 45 45 46 55 58 60 43 48 64 61 59 64 64 69 74 61 51 47 46 49 44 46 49 45 49 51 47
21 19 20 20 22 19 17 14 16 11 14 17 22 26 26 26 29 33 35 36 39 43 45 46 44 42 47 54 60 48 50 50 61 70 67 77 75 63 49 46 49 52 45 48 49 55 56 49 60
18 22 21 22 23 31 19 18 17 13 11 13 12 20 24 25 26 26 29 30 33 44 49 48 43 40 44 62 63 58 56 52 61 71 72 73 75 60 53 46 51 51 50 52 55 62 60 68 55
20 25 36 39 34 35 22 19 15 16 11 13 13 14 18 23 27 26 24 29 31 36 44 47 45 44 45 58 68 65 62 61 72 72 70 74 68 60 55 52 55 53 53 54 65 69 74 64 55
22 23 34 48 42 31 23 21 15 12 11 11 12 13 14 17 23 26 27 27 28 36 42 46 46 48 46 52 63 65 62 63 65 66 65 71 68 58 55 58 55 53 53 63 66 69 72 66 61
21 25 19 29 26 33 21 16 13 11 11 11 12 15 17 20 19 20 24 29 30 34 39 47 47 46 46 51 58 67 67 68 68 66 69 70 70 55 61 60 56 57 63 78 82 75 66 51 48
21 19 30 26 40 49 21 20 16 14 13 14 13 14 19 21 21 20 20 26 29 33 35 49 47 42 43 46 57 69 68 70 72 74 76 80 80 70 62 64 63 80 91 92 86 65 46 46 47
22 25 24 21 30 41 38 22 19 13 12 14 13 14 14 18 21 22 22 23 27 32 37 44 45 39 39 45 56 72 76 70 81 81 91 94 82 66 69 83 90 92 94 88 66 48 48 43 45
15 21 21 33 29 27 30 27 14 14 13 14 14 13 13 16 18 21 23 24 26 32 35 40 45 40 38 45 56 76 81 92 90 89 89 89 89 89 93 92 88 92 77 59 54 51 42 42 42

GFSSGP_sfc_rhum_078.txt.gz
RH
50 28 21 15 16 15 16 11 7 8 8 10 13 12 14 32 61 70 66 84 75 61 73 79 91 91 92 91 90 89 88 87 86 85 83 81 80 80 79 80 81 79 77 74 74 73 70 70 71
22 17 12 12 17 19 12 10 11 9 20 22 16 14 16 49 66 78 72 90 94 58 69 78 92 91 90 89 88 88 87 86 84 82 80 79 79 79 79 81 83 81 78 71 74 71 72 73 79
26 12 14 17 18 16 13 10 9 8 18 21 16 14 16 76 76 70 78 89 92 63 60 78 92 91 90 89 88 88 88 85 83 81 80 79 79 80 81 82 82 81 79 74 75 75 77 82 82
13 11 12 16 12 8 8 11 14 16 36 40 40 29 42 53 66 63 55 67 69 60 62 93 94 91 87 87 88 89 87 84 82 81 80 79 81 82 85 86 82 80 80 77 79 79 81 84 81
10 10 14 14 12 10 11 14 15 17 49 53 64 73 44 56 50 59 60 57 70 66 86 88 93 88 86 87 88 88 86 84 84 81 80 82 84 87 88 87 87 83 85 83 82 80 82 84 81
12 11 15 15 13 17 31 34 26 31 69 71 68 75 43 48 49 51 68 69 75 83 84 88 90 89 88 89 90 88 87 86 84 82 83 85 86 87 88 88 90 89 90 89 86 84 85 85 82
12 12 14 11 10 18 22 34 26 40 72 78 63 56 54 45 52 74 76 76 94 96 90 90 86 87 93 92 91 89 88 87 87 86 87 87 86 86 87 89 91 92 90 87 85 86 86 84 78
9 9 12 10 12 20 22 21 21 26 38 54 67 70 64 51 65 87 92 96 98 98 97 99 95 93 95 92 93 93 93 93 92 89 88 87 86 87 87 87 88 88 87 84 83 86 85 80 72
7 12 14 15 12 13 16 17 14 22 26 35 49 68 57 60 77 92 94 98 96 96 95 98 98 94 92 90 92 92 91 90 89 86 83 76 64 70 73 87 88 88 86 85 82 83 79 73 66
10 14 16 11 8 11 11 12 13 21 38 52 76 60 65 64 82 90 97 98 97 97 98 97 97 97 92 89 89 87 79 72 71 67 68 62 71 73 77 86 87 87 86 84 83 80 75 67 54
10 13 10 10 10 10 13 23 23 19 46 52 59 38 67 69 88 97 98 97 97 97 97 95 93 93 94 94 93 92 87 69 70 70 66 69 71 76 82 78 72 76 75 61 67 71 61 58 59
13 10 9 10 10 13 14 29 20 19 37 35 36 46 57 68 92 97 97 98 97 97 95 95 93 90 88 88 89 83 75 84 67 67 73 74 78 76 77 68 68 70 65 64 65 70 65 57 46
12 12 9 9 12 12 15 16 19 58 47 40 40 59 77 90 96 97 96 95 97 97 96 94 94 92 88 83 80 82 82 68 71 74 76 77 77 81 78 74 69 63 66 68 66 65 61 50 44
12 12 14 12 14 17 18 25 28 68 57 44 53 66 83 90 95 96 95 97 95 96 96 96 95 92 84 87 85 90 77 79 80 85 80 76 85 88 86 77 73 69 66 65 68 65 53 52 48
14 17 16 27 29 30 25 27 45 39 31 39 50 58 70 83 83 93 92 94 93 94 94 94 95 94 95 94 89 81 82 80 79 82 77 78 83 85 81 78 75 70 71 70 62 52 51 48 40
17 16 31 40 32 22 20 37 46 39 39 39 43 56 72 85 87 89 87 90 90 91 92 89 88 92 91 91 91 87 75 76 81 83 83 77 77 82 80 77 76 74 68 64 60 57 55 55 53
16 26 29 22 27 25 17 34 48 39 39 36 36 50 77 94 90 85 81 83 86 86 88 90 90 94 91 86 80 68 64 80 83 85 81 72 81 81 86 82 79 70 69 67 57 58 59 58 52
26 34 23 23 21 19 18 15 47 50 21 35 39 57 69 78 88 83 82 79 81 83 83 86 85 87 84 83 70 66 74 74 78 84 88 79 79 78 80 77 74 70 66 66 63 60 57 60 61
16 17 17 15 15 18 18 13 15 22 23 30 38 38 48 60 70 73 73 69 75 80 80 77 77 80 81 88 74 66 69 84 90 85 77 80 78 74 77 70 73 73 66 64 66 68 64 64 65
15 17 18 15 13 18 16 15 15 21 23 30 36 39 43 55 56 64 61 64 69 73 74 75 73 78 76 77 62 58 64 76 86 83 82 82 80 77 72 74 72 72 68 72 70 69 72 69 70
17 20 21 20 16 17 18 18 16 18 20 29 28 37 38 45 56 55 55 60 60 65 66 62 67 70 68 69 62 57 69 81 86 88 85 78 84 84 84 73 72 70 71 74 75 70 67 75 73
22 15 17 18 21 25 30 32 19 18 23 23 31 30 35 38 44 50 53 57 54 56 55 51 50 64 67 68 56 58 58 72 74 85 77 75 80 76 69 65 70 71 71 72 75 67 73 69 75
20 17 21 20 23 23 27 30 16 17 22 21 27 31 33 34 39 44 46 51 49 52 53 53 50 57 62 67 74 60 74 75 81 79 83 84 85 84 90 76 71 72 71 75 72 78 70 75 71
16 19 22 22 25 35 23 23 25 26 19 14 21 26 29 32 34 36 40 43 45 54 57 57 55 57 62 68 70 74 72 71 72 81 87 85 85 86 80 69 70 74 70 73 79 79 78 75 66
18 26 39 54 48 42 24 26 23 23 16 13 14 20 28 29 34 39 37 40 45 50 55 57 55 53 56 70 69 71 71 71 72 78 83 84 85 82 76 73 74 75 72 77 81 83 81 72 73
22 25 41 57 87 54 39 29 15 14 12 12 12 14 20 26 31 32 37 38 39 47 54 54 52 53 48 66 71 70 71 67 74 76 84 79 79 76 73 76 71 76 77 84 82 83 81 74 76
24 29 22 32 33 54 39 35 19 12 11 11 11 13 18 21 25 28 29 36 40 40 50 56 52 50 50 60 71 75 71 74 78 86 85 79 80 75 77 73 80 83 78 82 85 82 79 84 86
20 19 33 29 52 49 24 23 43 25 16 13 14 17 21 25 26 24 27 33 37 40 41 52 52 48 50 53 63 70 74 74 79 85 81 83 87 83 83 82 84 88 90 89 87 89 89 91 80
20 24 30 26 30 49 57 30 35 25 19 17 16 17 19 25 26 26 26 27 33 37 43 49 51 50 51 52 60 70 76 80 88 88 90 92 93 91 92 92 93 94 94 95 96 96 87 71 66
16 23 25 40 33 40 54 40 16 20 18 16 17 16 18 18 21 23 27 28 31 38 40 46 53 53 51 51 59 79 87 87 92 97 95 92 93 92 94 96 94 95 96 97 93 83 68 67 64

GFSSGP_sfc_rhum_081.txt.gz
RH
75 56 48 35 32 34 33 23 16 14 25 26 22 21 39 68 51 69 86 88 81 81 88 86 92 91 91 90 90 89 87 86 85 84 84 83 83 84 84 82 81 79 77 68 66 62 64 69 74
45 32 38 30 31 39 28 18 14 35 53 40 29 36 31 66 65 74 94 84 76 79 84 88 93 91 90 89 89 88 86 85 84 82 82 82 82 83 84 82 81 78 76 67 64 61 64 70 78
44 27 29 31 37 37 29 19 23 45 50 52 56 49 59 76 69 78 80 82 75 78 88 90 94 88 89 89 88 88 86 84 82 81 81 81 82 84 84 84 82 77 76 67 65 63 69 77 79
27 24 23 29 29 23 24 38 47 50 53 50 51 54 58 62 70 65 75 80 82 78 81 90 93 86 89 89 89 88 86 84 82 81 82 82 83 84 85 86 82 80 78 70 68 69 74 80 80
32 28 29 31 24 18 31 34 57 61 57 52 50 58 60 61 62 62 82 79 80 83 84 96 88 87 89 89 89 87 85 84 83 83 84 84 86 86 86 86 85 84 82 76 72 74 79 81 78
28 24 32 27 20 19 32 40 50 54 54 51 51 68 65 65 68 84 91 93 93 94 93 95 92 89 89 90 88 87 86 85 84 86 87 90 90 90 89 87 89 89 87 85 82 82 82 78 74
28 28 28 21 16 26 26 35 43 56 58 56 65 74 64 65 82 94 91 95 95 97 96 97 90 87 91 91 90 90 88 87 88 89 90 91 92 92 93 93 92 90 87 84 83 84 81 75 72
22 22 21 18 22 27 27 24 36 48 62 58 65 70 76 76 91 92 94 96 97 96 98 96 98 94 94 93 92 92 92 91 91 90 90 91 92 93 94 92 90 88 85 84 84 83 78 72 66
20 23 21 19 21 17 25 30 23 46 60 63 70 56 72 87 91 92 96 96 95 93 97 98 97 98 95 93 94 93 92 90 89 87 87 85 82 85 88 91 89 87 85 85 84 81 75 70 61
20 26 21 15 18 18 17 30 28 40 51 56 59 48 74 87 92 96 97 98 96 96 98 98 99 99 97 93 92 87 78 78 75 69 71 77 83 83 86 90 89 87 85 83 81 78 76 66 56
19 20 14 13 13 18 19 26 47 46 55 60 54 60 77 93 90 94 97 96 92 94 97 98 98 98 97 96 95 91 82 72 71 71 67 82 83 86 85 86 87 84 80 74 78 75 64 60 58
21 15 15 14 12 18 21 31 54 68 65 52 82 88 84 94 92 97 99 99 98 98 97 96 94 94 92 87 90 82 79 77 73 65 77 79 84 82 75 75 78 73 73 73 74 77 64 52 46
21 18 15 19 28 26 20 44 45 49 57 52 75 83 90 96 97 96 97 98 96 97 96 96 92 89 84 76 67 61 60 54 71 80 82 77 80 80 84 76 78 73 72 75 75 68 60 51 47
18 18 17 25 28 28 28 36 40 49 47 53 77 89 88 95 97 97 96 97 96 95 95 92 94 94 89 87 84 89 80 84 87 90 87 86 92 92 92 76 76 78 73 70 70 70 54 52 47
20 24 23 25 28 32 33 44 50 41 45 51 62 80 86 88 92 95 94 96 95 97 95 93 93 87 91 93 91 89 90 87 87 87 80 84 90 88 88 87 80 75 73 73 71 63 59 57 49
25 25 32 39 30 30 31 44 43 42 55 60 62 86 88 88 95 93 92 92 92 92 93 90 86 91 93 90 92 91 90 90 87 84 90 86 86 83 92 91 84 82 77 67 61 57 57 53 55
34 37 34 37 29 35 42 52 46 44 41 54 72 93 90 95 96 94 92 91 88 88 88 91 88 88 93 93 91 85 84 85 85 87 92 76 78 87 91 92 89 81 71 68 57 65 59 62 62
38 37 37 39 35 37 36 42 55 50 51 63 93 97 87 87 91 88 87 85 86 85 82 82 77 83 90 88 74 65 70 80 88 90 85 75 80 82 93 93 88 81 73 70 66 61 68 63 64
27 26 36 36 26 30 28 37 56 52 53 69 82 95 95 87 82 83 80 82 83 84 85 85 91 92 89 86 75 64 65 87 89 87 81 82 81 80 94 84 89 76 71 67 68 70 64 70 71
22 26 27 22 20 22 26 24 29 39 49 55 61 68 78 96 86 85 87 81 83 89 88 86 88 90 82 81 65 68 69 80 83 86 87 84 87 92 92 80 82 78 74 73 72 69 76 78 75
25 26 27 26 23 24 32 33 27 28 42 42 46 57 69 87 91 86 85 89 88 89 88 80 80 83 77 76 72 75 83 92 90 90 88 89 92 96 90 78 79 80 80 75 75 75 75 77 79
29 22 21 27 29 38 35 46 34 32 40 47 43 53 67 70 74 76 75 86 88 84 79 68 67 72 75 78 78 78 69 80 88 94 93 96 95 90 88 84 76 75 74 70 76 73 80 78 82
27 24 29 33 34 40 37 45 36 28 36 44 49 47 53 62 64 65 70 72 74 70 73 69 72 74 75 76 80 77 82 80 93 94 92 95 95 90 87 86 82 73 75 76 76 79 81 80 80
20 27 30 37 39 53 36 38 42 34 30 31 39 48 47 56 61 59 57 60 65 63 68 67 64 68 72 75 77 81 66 80 85 92 95 96 96 95 92 88 85 77 74 76 72 82 78 77 73
24 32 59 72 73 68 51 50 36 27 24 26 38 39 44 45 56 60 60 59 58 59 61 60 58 60 70 76 76 78 78 76 83 89 93 94 93 95 93 90 86 77 79 84 78 81 77 72 72
27 31 66 69 89 85 66 61 36 26 21 18 19 32 37 42 46 53 56 55 57 55 57 55 54 55 63 72 76 76 81 75 79 84 91 90 88 90 91 88 86 82 82 80 83 83 82 78 80
34 40 32 58 71 77 64 46 32 23 20 19 17 16 36 39 41 45 47 50 52 55 58 56 54 56 59 71 74 76 80 81 84 88 91 91 89 88 89 82 84 88 84 85 87 92 88 86 84
25 29 48 52 77 84 46 50 43 33 27 23 20 29 32 33 40 41 42 46 50 53 49 59 60 57 56 57 73 74 80 83 92 93 92 92 91 88 91 93 90 89 93 94 95 96 93 86 89
32 32 37 35 52 64 68 53 40 32 27 27 23 22 27 32 30 35 40 40 44 50 54 55 62 58 59 57 74 79 84 89 95 93 94 91 94 96 96 95 94 90 92 96 95 94 92 94 95
22 29 33 68 54 61 66 57 31 27 25 25 22 22 23 23 33 30 31 40 41 51 50 51 64 64 60 60 79 83 88 91 94 92 94 96 96 94 93 90 87 94 94 94 94 96 92 91 85

GFSSGP_sfc_rhum_087.txt.gz
RH
74 69 50 32 28 38 49 32 28 32 39 43 45 46 57 71 64 60 81 83 88 92 93 92 94 93 91 90 89 88 88 88 86 86 86 85 85 84 80 77 72 73 72 68 70 71 72 72 75
55 44 36 34 36 43 36 29 29 45 46 52 49 50 65 71 72 76 73 82 86 83 88 92 93 92 92 90 88 88 87 87 87 86 85 85 85 83 79 75 74 75 74 70 70 72 75 78 79
40 31 33 40 47 44 40 28 28 48 51 53 49 62 70 76 76 84 78 82 87 86 91 92 90 90 91 92 90 87 86 86 87 85 85 84 84 83 80 76 74 75 74 70 69 70 71 75 82
30 28 29 35 39 32 30 24 23 49 56 57 56 56 56 60 77 69 75 84 88 92 91 96 91 85 83 86 86 87 86 86 87 85 84 84 85 83 81 78 74 75 74 68 68 66 73 82 83
38 32 35 43 35 27 23 20 38 46 58 52 55 55 60 69 66 80 74 80 90 92 95 92 92 90 84 85 89 86 87 87 86 86 85 85 85 84 82 79 75 75 75 74 69 71 83 84 82
34 32 38 42 33 24 21 30 50 54 54 54 62 70 68 78 88 91 93 91 93 97 93 94 92 90 84 82 89 92 88 87 86 87 86 86 85 85 84 82 80 79 80 77 75 75 81 82 82
34 39 47 40 32 26 22 43 53 55 56 56 66 72 64 97 90 92 94 96 97 97 96 97 91 93 88 86 88 91 89 88 88 89 89 87 89 88 86 85 84 83 81 76 74 74 79 81 82
32 35 58 36 29 25 19 36 54 52 52 67 67 73 64 80 94 94 94 96 96 97 97 98 94 94 93 90 89 91 92 91 90 92 94 95 93 92 90 87 84 81 79 74 73 75 81 84 84
29 36 41 32 27 20 18 32 57 63 61 67 71 64 74 88 91 94 97 97 98 98 99 98 96 95 94 94 96 92 91 94 94 96 97 95 88 94 91 87 83 80 79 78 75 74 82 84 84
30 37 31 23 21 20 20 34 52 64 63 65 64 67 72 92 93 95 97 96 97 98 95 96 98 96 94 95 95 94 91 92 88 89 89 85 87 92 89 89 87 84 81 81 75 70 67 62 68
31 32 25 20 20 21 21 56 55 62 74 71 67 76 77 97 95 94 94 94 96 96 98 98 99 97 94 90 93 96 98 97 91 91 83 84 89 93 90 88 82 79 81 68 68 65 50 52 57
28 21 22 20 20 30 30 54 58 68 68 78 91 79 92 90 93 96 96 95 95 97 97 99 96 96 97 93 95 96 97 90 90 89 87 91 91 93 89 87 87 81 81 74 75 66 56 53 54
25 23 24 22 25 33 41 44 46 73 90 90 87 93 86 91 94 94 96 96 97 99 99 99 96 96 97 96 96 96 92 83 84 89 92 91 92 92 88 92 82 78 83 82 68 58 53 52 51
28 27 28 27 26 30 34 45 49 55 85 91 91 96 97 84 92 98 98 99 98 98 98 95 95 96 94 95 96 95 79 87 85 89 90 88 89 91 87 85 78 81 83 83 62 57 54 53 52
29 31 30 25 26 30 36 44 52 51 90 90 93 95 95 86 90 96 97 97 96 97 95 93 91 90 91 92 87 86 86 88 87 90 90 89 90 89 78 81 76 79 85 80 69 60 59 56 50
34 40 43 32 32 32 34 40 43 59 91 96 97 97 87 86 94 96 95 95 94 97 94 89 85 87 84 81 85 89 90 93 91 88 90 90 88 81 87 90 83 86 86 81 71 68 64 63 58
48 50 45 36 30 34 40 39 49 56 72 95 97 95 83 90 89 95 95 96 93 92 95 95 91 91 87 92 95 94 92 92 93 94 91 91 90 87 86 92 90 89 89 86 70 70 64 65 63
52 50 43 44 39 45 47 44 48 58 70 92 93 86 94 96 86 92 93 92 94 95 94 95 94 92 91 92 93 94 91 91 89 90 90 89 91 91 93 93 93 92 87 83 72 66 70 68 67
41 44 46 35 28 40 35 43 35 52 65 95 92 89 95 94 93 87 90 93 95 92 92 93 94 93 89 91 82 83 91 93 91 87 84 83 89 94 95 95 94 88 80 77 70 71 71 78 78
40 45 43 36 29 36 37 38 35 61 65 80 92 98 94 88 93 89 92 92 90 91 88 89 89 91 85 81 61 65 74 83 87 88 86 86 85 94 93 94 94 84 79 77 73 71 77 77 82
40 44 43 41 32 32 38 38 33 52 68 77 90 91 91 90 94 85 89 92 91 91 88 84 87 88 79 72 65 67 77 90 89 89 91 88 87 88 93 94 92 89 81 76 72 73 70 78 86
44 35 35 38 42 46 40 52 40 44 69 76 82 96 95 89 87 79 83 85 90 86 90 88 88 87 84 80 72 72 67 67 64 84 88 92 90 90 90 90 91 88 86 83 74 72 76 78 79
38 34 38 39 42 50 47 52 44 62 69 71 72 82 90 93 91 90 94 94 91 84 96 96 88 86 80 84 83 78 76 78 91 95 92 94 94 89 86 91 90 90 83 78 81 81 76 72 75
30 37 39 49 49 62 54 55 57 51 50 56 60 62 71 89 90 90 90 88 97 97 97 97 92 86 82 82 82 85 80 86 91 91 96 96 94 94 95 96 91 89 88 89 87 86 81 76 79
37 45 62 65 63 66 59 74 56 40 36 40 52 56 60 75 88 91 92 92 95 97 97 95 91 88 81 81 78 78 78 85 85 81 88 92 95 96 95 97 97 93 90 90 91 85 80 84 81
38 39 66 61 77 63 67 70 48 38 33 34 44 45 54 70 77 82 83 85 89 90 91 89 86 83 80 80 76 74 76 76 83 82 87 91 87 85 90 95 94 95 93 94 92 93 90 89 94
35 43 34 56 79 84 66 57 42 36 34 30 48 52 57 69 72 72 74 78 86 88 85 85 80 78 75 78 76 76 78 79 79 85 87 88 87 86 89 94 94 94 93 92 92 94 93 91 94
29 34 51 66 77 85 69 66 55 41 31 29 44 55 54 62 68 66 66 72 77 80 82 84 76 72 69 70 71 72 77 79 79 84 86 87 87 89 94 96 95 96 95 95 93 94 92 93 96
41 34 47 46 66 59 76 62 45 44 37 30 29 47 56 55 62 66 64 62 68 75 76 78 76 71 68 65 71 76 80 82 85 87 86 87 89 95 96 96 97 97 97 96 92 90 92 91 94
30 31 38 60 64 70 71 57 33 39 34 31 32 28 46 54 52 57 62 62 63 69 73 70 73 70 68 68 68 74 81 84 88 91 88 90 95 97 97 98 97 98 97 94 92 93 91 92 95

GFSSGP_sfc_rhum_090.txt.gz
RH
75 61 50 29 27 36 45 35 32 31 41 50 52 53 68 78 67 56 77 81 92 95 94 93 93 92 91 89 87 86 86 86 86 87 87 87 85 84 80 76 75 73 72 67 68 70 71 72 74
60 46 35 34 36 43 35 32 29 35 43 51 48 55 66 63 74 75 75 80 90 92 93 91 93 91 91 90 87 85 85 86 86 87 87 86 84 81 77 77 76 76 75 71 70 71 72 73 75
39 32 31 40 49 40 38 30 24 37 49 52 52 62 74 66 74 80 74 82 91 92 95 94 94 92 90 90 89 88 86 86 87 86 86 85 82 78 77 78 77 77 76 70 70 72 75 80 81
31 29 30 36 46 33 31 25 26 36 61 59 58 56 56 59 78 77 82 82 92 93 94 95 94 92 90 90 89 88 88 87 86 86 85 83 80 78 79 78 78 77 75 74 71 72 80 84 82
35 32 37 46 37 30 28 25 24 48 55 55 56 54 59 63 70 78 86 84 93 96 93 93 93 91 88 85 85 87 89 89 87 86 85 83 80 78 79 79 78 77 75 72 70 74 85 82 83
34 33 38 40 33 26 25 25 44 48 53 58 63 66 64 81 92 92 96 90 91 96 97 96 94 91 88 83 84 86 88 88 87 86 86 84 82 80 80 80 78 78 76 79 84 85 85 83 82
34 40 46 50 34 29 23 49 50 60 57 57 64 68 66 94 93 97 92 96 97 98 96 95 97 93 88 90 89 88 89 89 90 89 88 86 86 84 82 81 82 77 78 83 86 84 82 83 83
35 37 59 42 35 27 22 42 55 52 51 71 64 69 64 87 95 92 93 95 97 97 98 98 95 98 96 94 92 89 88 88 88 90 91 92 91 88 86 84 79 77 76 80 83 83 84 84 86
33 39 44 36 32 22 20 30 57 64 64 69 75 72 79 96 93 94 94 95 96 96 98 98 97 98 98 95 93 91 86 83 84 96 94 95 92 94 88 81 79 76 77 80 84 86 86 87 88
35 43 34 27 24 22 22 28 50 60 66 65 66 71 96 98 96 95 97 97 96 95 95 96 97 96 97 98 94 91 87 83 86 92 93 85 94 94 86 84 80 79 77 81 86 86 86 82 82
35 36 30 24 22 25 25 37 56 64 67 65 66 68 82 98 90 95 94 94 95 95 96 96 97 98 97 96 97 97 96 95 94 98 93 80 90 97 93 90 82 76 73 64 71 66 66 72 69
32 25 24 21 24 33 34 53 62 66 56 71 78 85 85 98 94 96 96 95 96 97 97 97 96 98 96 96 98 96 95 95 95 95 89 88 89 97 90 81 92 76 75 73 64 64 65 63 61
28 25 25 24 27 30 42 47 55 69 84 92 95 91 94 94 96 96 96 96 95 98 98 98 96 97 97 97 98 94 92 92 92 98 90 88 87 90 90 91 86 79 83 69 61 55 58 62 63
30 28 29 30 28 30 39 46 62 54 93 94 95 97 83 92 93 96 98 98 98 98 98 97 99 97 97 99 94 96 93 88 91 95 96 93 92 91 87 80 77 78 76 68 56 52 57 61 63
33 36 34 31 30 29 35 46 59 52 96 96 96 98 84 85 90 93 93 98 97 98 96 96 96 96 95 96 96 96 97 91 92 96 95 96 95 93 84 76 74 76 81 71 57 61 60 60 57
41 41 47 34 34 32 35 42 38 63 95 98 97 85 86 90 86 94 93 94 96 97 95 93 90 94 95 97 96 96 98 96 95 95 94 93 93 88 91 86 76 80 81 67 63 61 62 63 61
50 54 48 38 35 39 43 44 39 70 94 97 99 86 80 90 90 94 94 95 95 94 93 94 93 93 90 91 94 96 94 93 94 94 93 90 88 87 85 89 82 83 84 73 63 71 65 64 62
54 54 48 48 40 39 52 46 36 52 68 92 98 87 82 86 85 88 94 93 94 95 94 95 94 92 94 94 94 96 95 95 91 91 90 86 88 87 91 91 88 86 88 85 73 68 70 66 65
43 48 50 43 34 39 38 39 32 43 67 82 98 93 89 98 79 88 91 95 95 95 94 95 96 94 89 92 92 96 93 94 96 86 84 85 86 85 86 89 91 90 83 82 74 73 71 73 74
43 47 47 40 31 36 38 37 32 47 58 64 83 98 97 98 93 90 93 95 94 94 92 92 95 94 80 86 85 92 89 86 94 92 90 87 92 89 86 84 92 89 87 86 79 73 77 76 80
45 45 47 43 35 39 44 44 35 44 65 76 90 94 93 96 96 80 94 96 94 94 92 88 89 92 84 81 84 84 85 89 85 92 92 89 88 95 91 89 91 91 88 84 79 80 73 78 84
49 39 38 40 50 57 43 60 43 37 53 76 84 95 95 93 94 86 78 94 94 92 85 84 85 89 83 77 77 81 76 73 57 81 83 88 90 90 94 95 94 92 90 89 83 83 83 78 78
42 38 44 46 53 62 50 60 48 61 48 50 69 85 93 91 92 92 79 79 87 86 86 84 86 82 77 76 75 74 76 70 82 84 84 89 89 90 92 94 96 96 88 84 84 83 83 88 79
38 45 46 54 58 72 52 53 57 47 46 46 56 73 81 94 94 91 87 78 79 79 88 93 88 89 85 84 84 79 74 80 83 87 93 96 95 95 94 95 94 91 92 91 91 88 86 84 85
41 48 66 69 73 72 54 74 54 40 37 41 40 60 71 80 94 95 97 96 88 87 84 91 89 91 87 87 84 81 80 80 76 75 79 95 95 95 94 97 98 96 95 93 89 89 88 88 87
42 46 71 65 71 60 72 79 54 41 38 39 37 47 65 76 83 91 94 95 94 90 87 88 89 92 89 87 84 82 82 81 82 80 80 83 82 86 92 96 94 94 94 93 91 91 92 90 92
38 52 40 53 76 82 68 62 42 39 32 36 34 57 66 73 79 81 87 89 92 95 95 93 94 91 88 88 86 84 85 83 78 88 93 90 93 90 94 94 94 94 95 94 94 94 94 94 94
28 32 48 68 75 80 70 72 52 39 35 33 34 59 62 72 77 74 78 82 84 88 90 94 90 88 83 84 84 81 83 84 82 88 92 90 92 94 94 95 94 94 97 96 96 96 94 93 94
42 39 50 47 64 64 69 64 51 38 35 39 31 40 61 67 74 72 68 70 76 84 89 91 90 85 82 78 81 81 82 82 84 84 84 88 92 91 92 91 93 96 98 97 96 96 97 96 93
36 37 35 49 58 76 68 47 38 39 39 38 31 29 46 63 66 73 73 73 73 82 86 87 87 84 80 73 71 76 80 82 85 86 83 85 89 89 91 93 96 97 98 98 98 98 98 96 92

GFSSGP_sfc_rhum_093.txt.gz
RH
55 37 30 19 18 21 21 21 21 20 25 31 36 38 38 44 43 36 56 66 72 75 68 75 94 91 91 90 89 87 87 86 86 86 87 87 85 84 82 80 78 76 73 68 68 68 69 72 74
39 32 23 22 21 20 18 20 20 21 24 37 39 40 48 45 53 55 58 62 77 76 72 67 94 91 90 90 89 88 87 86 86 86 87 86 84 81 79 77 76 75 73 68 68 69 71 72 74
26 23 20 24 27 20 19 20 17 17 28 37 34 42 51 45 56 60 63 68 81 80 78 72 93 91 90 89 89 88 86 86 87 87 86 85 82 79 78 77 76 75 74 70 69 69 73 76 79
20 19 21 22 23 21 20 16 20 20 36 42 40 35 39 40 56 64 64 69 81 90 82 86 94 92 90 88 88 88 87 87 88 87 86 83 80 80 80 79 78 77 75 74 72 72 76 81 80
22 20 22 23 23 20 19 19 18 21 34 42 42 36 41 45 54 70 78 67 80 85 95 94 94 88 90 88 88 88 88 88 87 86 84 80 80 81 81 80 78 76 76 77 77 82 82 82 82
22 21 23 22 21 19 18 19 23 31 37 42 47 46 43 65 65 83 83 78 74 84 91 99 94 88 80 89 88 89 89 88 87 86 83 80 82 82 82 82 80 80 78 79 86 83 83 83 82
22 23 22 23 23 22 18 25 37 29 37 42 44 47 42 61 79 86 83 84 83 83 90 98 98 92 92 95 88 90 89 89 88 86 83 82 84 83 83 83 81 80 82 83 87 83 84 83 82
23 23 30 27 23 19 16 26 34 34 26 53 46 45 45 62 84 83 83 87 88 90 92 93 96 94 89 93 84 92 90 91 90 88 87 87 86 86 85 84 81 84 89 87 86 84 84 84 84
22 24 26 24 24 18 16 21 33 44 44 52 52 54 54 82 83 80 82 86 87 88 94 93 94 89 84 86 85 95 92 91 92 91 91 86 71 69 71 72 82 85 88 86 84 84 85 87 86
22 27 25 20 19 17 17 22 19 44 50 46 52 55 78 81 80 80 83 82 84 88 89 92 89 90 94 97 92 95 86 82 84 83 83 74 78 70 61 70 82 84 86 85 85 87 88 71 56
26 24 24 20 18 17 19 20 28 42 35 38 37 44 74 88 82 80 81 84 86 79 84 87 88 90 92 97 98 97 98 90 93 82 86 84 78 74 63 61 58 69 80 66 67 70 55 61 57
25 22 22 17 18 23 22 25 37 43 25 58 47 66 66 71 74 80 85 86 87 90 83 90 90 93 92 96 99 98 96 96 93 83 88 93 81 75 67 57 56 60 62 67 64 59 64 62 60
24 20 19 18 19 23 25 27 29 40 39 64 72 72 69 75 82 85 87 88 88 87 93 90 90 92 93 98 97 97 93 94 95 91 85 89 77 76 64 64 53 52 56 59 58 57 52 54 54
23 22 20 23 23 23 24 23 40 25 46 77 82 80 76 78 77 80 75 87 94 94 93 91 96 92 96 98 94 97 90 82 93 96 89 88 75 75 66 64 56 54 50 50 51 50 46 42 42
26 29 27 25 22 22 24 28 38 29 70 73 81 86 74 73 69 70 77 88 94 96 94 96 91 92 97 97 95 95 92 91 91 95 93 89 82 75 69 66 60 52 52 56 50 49 45 42 39
31 32 30 25 25 24 28 26 26 34 64 65 74 80 77 73 69 65 84 92 92 95 94 92 89 94 98 98 96 94 94 93 95 96 96 92 83 73 74 64 60 60 54 48 49 45 45 45 42
38 26 34 26 26 27 31 30 25 51 58 56 70 73 72 73 74 72 85 90 90 91 93 96 91 94 98 98 98 96 95 96 96 97 97 93 83 75 70 69 64 66 56 55 48 48 46 46 42
34 39 40 32 28 28 27 27 24 27 47 49 66 72 72 71 72 70 88 89 92 92 92 94 95 90 94 97 98 97 96 96 96 95 94 90 83 79 76 74 71 63 55 54 49 51 48 43 43
33 35 34 33 28 28 25 26 24 22 35 47 63 72 74 73 67 72 84 91 93 92 93 95 96 96 95 94 96 95 94 96 96 93 89 86 81 79 80 71 74 67 61 56 58 55 57 52 51
35 35 36 32 28 31 28 27 22 24 28 36 48 67 68 74 73 73 80 92 94 92 89 92 93 96 90 86 94 95 91 91 92 89 87 85 83 82 82 72 76 67 66 65 63 59 67 60 61
39 41 40 35 30 30 31 31 27 24 37 44 54 55 64 72 72 72 82 88 93 92 88 90 88 92 92 88 91 95 95 94 86 84 87 75 77 84 82 74 76 79 71 68 68 67 60 61 61
39 34 35 36 37 36 31 36 32 25 24 32 52 69 69 71 71 68 71 84 86 87 85 85 85 90 88 80 79 86 84 89 78 76 75 84 81 90 87 80 76 75 76 74 72 72 73 63 54
36 34 36 36 41 41 36 40 32 35 30 25 27 60 68 68 71 69 66 71 80 82 84 83 85 83 80 77 80 76 77 78 83 81 76 84 88 89 91 90 86 80 72 78 82 77 72 75 69
34 36 36 44 46 54 44 39 33 31 29 26 30 42 63 68 68 66 63 68 74 82 82 84 85 85 84 82 77 75 77 75 69 76 82 84 81 85 85 82 86 80 76 80 82 84 81 81 81
36 38 44 57 60 51 40 45 34 31 27 27 26 27 60 65 68 69 69 68 74 82 82 82 82 83 81 81 76 75 75 71 65 63 64 76 74 70 72 76 77 74 79 79 78 80 83 84 82
39 37 45 48 54 43 57 52 36 33 28 30 32 30 48 64 66 66 68 69 72 77 78 79 77 76 77 77 75 70 68 64 63 62 61 65 62 63 66 72 70 73 75 78 80 82 83 85 90
38 44 31 42 58 55 44 48 36 31 29 29 25 30 39 57 64 63 65 71 74 82 80 81 78 77 77 76 74 73 72 68 63 65 67 67 65 63 70 72 74 73 75 76 78 84 82 83 86
28 33 49 49 50 44 44 52 32 31 25 24 25 29 41 53 61 62 63 68 70 75 82 84 81 80 78 75 74 71 72 70 67 70 71 69 69 70 69 73 74 73 76 78 81 85 82 89 89
34 34 36 40 53 45 44 42 43 34 27 29 26 30 34 47 55 58 60 62 64 71 76 85 86 81 77 73 74 74 73 72 73 72 71 69 70 69 70 69 72 75 78 84 88 89 88 94 93
29 35 32 44 42 59 50 36 30 36 32 35 31 28 28 42 50 55 56 59 63 68 72 74 80 79 76 72 72 74 76 77 76 76 72 72 73 73 73 72 72 74 82 92 97 97 95 97 97

GFSSGP_sfc_rhum_096.txt.gz
RH
42 19 17 14 14 12 13 13 12 12 14 16 20 22 19 22 21 24 41 49 56 49 43 59 93 92 92 88 87 88 87 86 86 84 85 85 86 86 83 82 79 77 74 68 68 69 70 73 74
18 20 17 12 14 12 11 12 14 12 12 18 20 22 26 26 29 32 37 49 59 54 48 48 94 92 91 88 86 88 86 86 85 86 86 86 85 85 83 80 78 76 73 67 67 69 71 73 76
18 17 13 12 12 11 11 12 12 12 12 18 18 23 23 22 33 32 44 47 51 52 53 49 92 93 92 90 87 87 87 86 86 87 86 86 85 83 81 79 77 75 73 68 68 70 72 76 80
12 11 12 14 13 12 12 11 12 14 16 20 21 23 22 22 30 36 45 46 49 54 64 62 95 93 91 90 88 88 87 86 87 87 86 84 83 81 80 79 77 76 74 69 69 72 75 81 81
12 11 11 11 12 12 12 12 13 13 16 21 24 20 24 28 27 43 51 49 54 55 79 95 96 92 90 90 89 88 88 88 87 86 84 82 81 80 80 79 78 77 75 74 73 75 78 82 82
12 11 11 10 12 12 11 12 14 17 17 18 27 26 22 35 40 38 56 55 58 60 79 82 89 94 92 90 89 89 89 89 87 86 83 82 81 82 81 81 79 80 80 79 81 81 82 82 81
12 11 10 10 11 13 12 13 18 13 13 18 22 27 18 32 41 54 58 62 69 74 76 79 94 96 97 88 92 92 90 90 88 85 83 83 84 84 83 81 83 84 84 86 83 84 84 83 82
11 11 12 10 9 12 11 13 15 15 14 30 27 22 22 30 51 56 59 68 85 75 78 86 89 97 98 92 95 92 90 92 89 85 85 86 85 86 85 86 84 84 87 86 83 84 84 83 83
13 13 12 10 11 10 11 15 14 18 20 24 26 26 29 43 48 49 48 61 78 86 79 88 87 86 93 82 80 84 95 92 89 87 89 87 66 69 70 71 86 86 88 85 84 85 84 85 85
13 13 10 9 9 10 12 15 14 17 17 22 23 25 36 46 46 47 52 56 60 73 91 85 87 83 82 78 71 77 94 85 80 81 74 54 67 62 52 74 91 91 89 85 85 86 87 70 44
13 14 9 11 10 11 12 12 12 15 15 14 14 16 28 46 51 54 56 58 59 61 74 87 81 91 87 85 79 94 93 90 90 84 71 67 59 61 59 58 63 69 78 58 60 64 42 43 40
18 14 11 10 10 13 13 11 14 13 15 12 22 23 36 45 47 51 60 61 60 67 69 80 84 78 85 87 94 93 93 90 94 86 76 73 67 65 60 46 49 56 51 54 50 46 46 46 42
20 13 12 11 12 12 13 15 14 13 11 12 23 43 42 43 47 58 68 74 66 71 75 76 77 80 89 82 94 96 93 98 93 89 81 72 65 69 56 48 46 46 44 48 49 46 48 47 44
12 14 12 11 12 13 16 14 12 14 11 23 38 41 46 49 52 55 54 63 86 79 75 75 75 80 83 88 86 97 95 94 94 93 88 79 74 71 59 49 44 45 45 44 45 46 41 39 40
16 18 13 13 13 13 12 15 13 12 19 26 36 42 45 45 48 49 49 59 68 83 78 80 86 78 86 87 92 93 97 93 91 94 88 85 77 71 64 54 44 41 43 50 46 45 38 33 30
20 18 20 14 13 13 17 14 15 17 22 19 25 36 45 48 48 49 50 60 72 88 90 89 84 84 86 94 97 95 96 92 90 94 94 86 78 68 62 48 46 41 44 44 43 40 36 35 31
18 20 17 17 14 12 19 15 15 20 21 21 21 29 36 44 53 52 53 63 77 75 88 92 84 89 96 97 97 94 95 94 90 93 96 90 79 68 51 50 47 49 44 43 42 40 41 40 34
22 21 20 19 14 19 16 18 14 13 16 18 19 26 33 39 42 48 53 65 75 81 86 92 85 89 94 98 98 98 96 97 96 94 95 93 81 70 61 56 55 47 42 44 41 45 41 39 36
17 20 19 15 16 21 18 14 12 12 13 16 19 26 31 37 39 46 57 66 83 83 85 93 92 90 92 94 98 97 98 97 98 96 96 94 79 66 65 52 57 49 47 47 50 47 49 44 42
22 23 20 16 15 20 18 15 13 13 14 15 16 22 28 34 43 49 57 66 81 80 81 90 90 90 87 88 96 97 95 96 96 96 96 93 81 66 62 56 59 54 48 54 55 53 49 49 52
24 24 22 21 17 18 20 19 13 11 15 18 22 22 24 30 40 48 60 76 81 83 75 80 80 91 87 89 92 95 96 96 95 96 96 92 85 68 64 53 54 55 51 54 57 56 56 53 56
27 19 22 22 21 24 20 20 13 14 16 14 14 23 28 30 38 42 51 65 83 79 68 70 71 86 84 83 82 88 89 85 80 86 81 86 87 83 71 58 55 60 56 59 60 54 56 53 54
26 22 20 25 24 23 22 24 17 15 20 16 14 15 27 33 38 42 45 54 72 75 76 76 70 85 82 78 82 85 83 79 92 84 69 78 81 79 80 78 77 66 61 66 65 64 63 54 52
23 29 29 29 30 38 29 23 17 15 18 15 15 19 27 33 38 40 41 44 55 70 72 76 74 79 80 71 69 76 73 79 87 88 81 69 75 68 71 72 75 73 62 61 63 65 69 67 64
28 35 41 46 44 40 22 27 21 18 17 16 16 15 26 33 39 42 42 44 50 64 69 72 73 78 74 69 69 76 69 69 75 73 73 57 60 71 76 73 80 71 64 59 61 66 69 69 70
33 35 38 39 37 31 27 31 22 18 15 15 19 19 23 33 39 41 40 42 48 59 68 71 70 72 74 76 74 64 58 67 63 58 54 62 54 54 57 59 58 68 69 65 66 70 65 67 71
26 36 26 32 28 39 28 27 24 19 19 18 17 16 21 29 36 38 39 43 44 55 62 68 65 68 69 70 70 67 59 60 58 56 55 51 51 48 56 58 59 57 58 59 63 62 64 66 71
20 18 37 34 44 39 24 25 24 21 19 15 17 16 18 24 32 36 38 44 43 49 55 66 58 58 61 64 64 61 58 56 54 55 56 55 51 50 50 54 57 56 56 57 60 61 60 64 66
21 26 28 25 30 38 36 24 20 20 18 17 17 17 19 25 30 34 36 40 44 48 52 67 67 58 56 56 61 63 60 59 59 56 55 55 56 54 55 54 55 56 56 55 59 61 60 62 65
35 28 23 32 31 32 34 28 18 19 20 18 19 20 19 24 28 31 36 39 43 48 51 61 76 68 61 56 56 59 60 59 60 61 56 56 55 56 56 56 54 52 52 55 59 66 65 72 73

GFSSGP_sfc_rhum_099.txt.gz
RH
43 19 12 13 14 11 10 10 8 8 10 10 12 13 13 13 16 22 29 34 44 37 36 57 92 91 92 90 89 89 88 87 87 87 87 86 86 85 83 82 80 78 73 68 69 70 70 73 75
14 11 13 13 13 11 8 8 10 9 9 12 12 13 14 17 14 18 23 40 46 43 39 43 94 92 92 90 89 89 88 87 86 87 87 86 86 84 83 81 79 76 75 69 70 70 72 75 78
19 12 14 12 11 10 9 9 8 8 9 11 11 11 14 14 18 20 34 40 40 40 40 40 90 93 93 90 89 89 88 87 85 86 87 87 85 85 82 81 78 76 74 68 68 71 75 79 83
10 8 9 10 11 9 9 8 9 10 9 10 11 14 10 13 16 25 33 35 35 37 40 81 94 93 93 90 89 89 88 87 87 87 87 87 86 83 82 80 78 76 74 70 70 72 77 83 83
10 9 10 10 9 8 8 8 9 10 9 12 11 15 12 13 19 30 37 37 41 39 46 75 90 93 92 85 88 89 88 87 88 87 86 86 84 83 81 79 78 76 75 74 73 76 78 84 83
10 8 11 10 8 7 9 8 10 11 11 11 14 15 13 22 26 27 44 41 44 50 59 73 82 90 92 91 95 88 89 90 88 87 87 86 84 83 81 80 79 77 78 80 80 81 80 81 80
12 10 11 9 8 7 9 8 12 11 11 12 10 17 13 15 29 41 43 45 53 61 66 68 72 74 83 84 92 95 90 90 89 88 86 85 84 83 83 82 80 80 82 83 83 84 83 81 80
9 9 11 9 9 7 7 9 11 10 10 10 13 14 15 32 39 40 46 55 66 66 70 71 70 77 83 89 95 96 94 89 88 87 87 87 85 85 85 85 84 84 85 85 85 85 85 84 82
8 11 11 10 9 8 6 10 9 9 12 10 11 15 15 25 32 37 41 51 65 69 68 70 77 78 88 90 95 96 97 86 89 88 89 88 69 70 71 73 88 88 84 85 86 86 86 85 84
10 11 10 8 7 7 7 9 10 10 12 11 12 11 15 28 33 34 37 40 49 72 71 70 78 81 89 90 94 98 98 99 82 73 79 61 69 62 50 79 90 88 85 86 86 86 86 69 42
10 12 9 8 7 7 8 8 7 9 11 11 11 12 14 21 32 38 40 42 44 49 77 71 75 79 82 76 86 85 91 99 94 79 72 67 64 72 68 73 75 73 73 56 63 66 44 41 38
12 10 9 9 7 8 8 8 8 8 9 8 9 10 18 23 33 37 41 46 43 51 58 71 70 77 77 85 88 83 70 92 99 84 73 65 69 78 71 64 58 64 54 55 52 46 46 43 39
12 11 11 9 9 9 8 9 9 9 8 8 8 12 21 28 29 36 48 51 51 57 63 75 72 74 80 81 90 83 75 89 96 87 69 68 68 83 76 57 54 52 49 51 51 44 42 43 40
10 10 11 11 10 9 10 10 9 9 8 9 11 17 24 31 33 39 46 46 51 58 61 67 74 72 73 76 79 89 93 92 95 93 80 73 73 76 64 61 51 48 46 45 45 43 43 43 39
11 14 12 11 11 10 9 12 11 8 7 8 15 18 26 28 31 36 36 40 48 57 62 64 64 70 72 74 78 84 90 90 91 92 87 77 79 67 64 60 51 46 46 52 46 46 43 38 35
17 16 18 13 11 10 11 15 10 9 10 14 14 14 24 30 31 32 36 40 46 63 68 69 73 74 74 76 76 90 94 88 92 94 90 92 86 66 68 68 65 52 52 47 44 45 39 37 33
18 20 18 15 11 11 12 15 9 11 14 14 13 13 16 26 35 36 38 43 53 64 73 87 86 77 79 86 87 83 92 92 94 96 93 91 89 80 70 72 64 56 48 48 46 44 44 39 33
23 19 17 18 12 12 14 13 11 9 11 12 12 11 14 19 27 35 38 44 57 66 75 82 91 81 86 93 91 95 94 95 91 95 94 90 86 82 73 67 66 46 45 48 46 51 41 40 37
20 17 16 14 12 13 15 15 11 9 9 11 11 11 13 18 23 31 39 47 56 75 76 88 85 87 90 91 93 97 97 96 97 93 91 89 86 78 74 55 59 54 47 54 61 49 53 44 42
21 22 21 16 13 14 16 16 13 10 9 9 11 11 12 15 25 35 42 49 64 72 74 89 85 85 85 85 94 97 98 96 95 97 93 89 88 83 81 72 64 58 55 61 59 57 49 45 45
20 24 24 21 16 14 16 18 16 12 10 9 9 12 12 14 23 34 42 50 60 69 73 75 81 82 86 90 90 96 95 97 98 98 98 95 89 84 74 72 66 63 59 59 62 60 56 53 52
19 17 19 20 20 22 16 23 16 12 9 9 12 13 14 14 18 29 38 47 56 65 66 64 72 75 87 85 89 91 96 96 97 96 98 95 90 80 75 67 65 66 55 62 65 58 60 55 57
18 16 19 20 22 22 20 20 17 14 13 10 11 12 11 16 20 28 35 41 48 58 68 70 72 75 78 86 79 90 92 94 96 96 97 97 94 82 70 62 64 64 61 62 65 65 67 62 58
18 20 21 23 23 32 24 23 19 15 13 14 12 11 13 16 22 26 32 36 46 62 68 68 75 71 81 82 83 84 84 85 94 94 92 94 94 93 87 69 66 68 65 68 73 72 67 65 61
22 27 39 38 39 39 21 23 22 15 11 13 12 13 17 19 24 29 33 36 44 61 67 67 70 76 78 80 82 83 83 80 86 84 82 78 79 86 88 86 83 74 68 66 70 77 74 72 72
26 29 44 43 38 36 22 24 18 13 12 12 12 14 14 19 25 29 31 35 39 54 60 64 66 69 73 74 74 71 69 65 71 72 73 77 70 68 76 72 70 70 69 73 71 74 70 71 80
19 33 23 36 33 42 39 23 17 18 17 14 13 13 14 19 24 28 30 35 37 48 54 59 58 58 65 70 65 66 64 61 60 71 72 67 65 60 68 69 64 63 67 68 70 61 64 69 74
21 15 31 29 50 44 24 24 24 20 19 15 14 14 14 15 22 26 28 35 36 42 48 56 51 51 56 63 65 60 57 59 57 61 61 64 62 55 59 64 63 61 61 61 62 61 64 70 73
22 26 24 22 24 37 42 30 20 15 19 18 14 15 14 16 20 24 27 31 34 40 44 54 50 47 52 54 61 65 58 54 56 56 58 59 57 54 54 56 56 56 58 58 61 64 63 63 63
27 20 22 37 33 26 32 30 17 16 16 18 18 15 16 16 18 22 26 30 34 38 41 48 51 46 47 51 55 59 59 56 56 58 56 58 57 57 54 54 50 52 53 57 59 61 57 60 62

GFSSGP_sfc_rhum_102.txt.gz
RH
44 27 17 17 20 16 15 10 8 9 8 9 10 12 13 11 14 27 34 42 42 45 62 71 93 94 91 91 92 92 90 88 88 89 89 89 87 85 83 82 80 76 75 70 70 70 69 74 76
18 14 14 16 22 18 12 8 9 8 9 11 11 11 12 15 14 19 40 45 46 39 60 61 93 92 92 92 92 91 89 87 88 89 87 87 87 85 84 83 80 76 75 69 68 70 70 75 80
30 18 15 19 18 16 12 8 8 8 8 10 10 9 12 14 19 29 37 42 39 41 42 58 91 92 92 92 92 90 89 89 88 89 86 83 85 85 84 82 79 77 75 68 69 71 77 79 81
16 12 11 14 13 10 9 8 8 9 8 8 10 13 10 11 14 28 32 32 37 40 58 89 93 91 91 93 92 90 89 90 88 84 82 86 83 85 83 81 79 77 74 69 72 76 80 85 83
12 11 14 14 12 8 6 8 8 10 9 9 10 13 14 12 26 31 36 36 43 48 57 81 89 94 91 89 87 90 87 90 88 85 83 82 82 84 83 81 78 76 76 75 75 79 81 83 80
13 11 15 13 10 7 6 8 8 10 11 10 11 13 14 21 24 32 44 44 51 57 69 81 82 88 94 91 86 89 86 86 89 87 83 85 90 90 83 81 80 78 79 80 82 83 82 82 79
14 14 15 13 12 10 7 8 10 11 11 12 10 15 13 25 36 43 46 50 60 67 71 75 81 78 92 92 92 93 96 98 86 88 86 89 89 87 83 83 81 82 83 84 84 85 84 81 78
11 12 14 11 11 10 7 6 10 10 10 8 10 15 19 39 41 44 52 59 68 74 78 76 80 79 81 85 89 90 85 88 91 89 83 85 88 85 85 84 84 85 85 85 86 85 83 82 79
9 14 14 12 10 9 6 8 8 8 9 10 10 11 14 25 36 44 51 60 70 73 75 80 83 79 85 88 92 90 85 89 95 90 87 94 81 80 82 81 86 86 86 86 86 86 85 82 76
12 15 13 8 8 8 8 8 7 9 10 10 12 11 15 26 31 36 44 49 62 73 78 78 83 81 85 92 94 95 93 93 93 82 89 84 82 79 70 86 87 86 86 86 86 86 83 68 67
11 14 11 9 8 8 8 8 7 8 9 10 10 11 14 26 33 38 42 43 48 57 74 74 79 85 90 96 97 98 97 96 93 88 91 85 77 80 90 91 83 86 84 78 80 78 59 55 56
13 10 9 9 8 9 10 8 8 9 9 8 8 8 11 20 27 38 44 48 48 65 78 75 78 84 88 90 96 97 99 99 99 91 84 81 76 85 88 87 79 75 70 73 72 64 62 58 55
14 11 10 10 9 10 10 10 10 10 8 7 7 9 15 23 26 32 43 53 56 59 68 79 78 87 88 89 94 97 97 96 98 97 88 75 75 87 90 85 78 64 63 64 64 61 60 58 57
15 13 11 10 10 11 12 11 10 10 9 10 9 13 15 22 28 36 50 53 51 55 69 76 78 81 88 90 88 90 94 86 96 98 88 81 76 87 83 76 74 68 62 61 60 58 58 64 59
14 17 13 12 11 11 10 13 12 10 9 10 9 10 15 22 25 32 40 42 48 57 65 73 75 77 81 84 91 92 92 89 93 96 94 88 80 84 75 71 80 67 62 67 62 62 66 65 54
19 19 23 16 13 12 12 17 13 9 9 9 9 13 16 23 25 30 35 37 44 61 67 71 72 78 80 83 89 93 92 90 92 90 93 92 88 78 73 69 67 62 63 63 61 62 67 66 62
18 25 23 20 14 13 13 15 11 9 10 12 14 13 13 23 31 32 33 41 47 64 68 80 79 84 84 84 87 93 90 92 93 89 92 90 86 90 74 66 84 73 60 64 68 70 66 66 60
21 23 21 23 17 15 14 14 12 11 10 13 15 14 13 14 30 34 37 45 57 70 75 83 83 84 83 93 93 94 95 94 93 90 90 92 92 90 83 78 78 82 78 70 65 66 65 63 61
15 18 25 28 23 22 17 15 13 12 12 12 12 12 13 14 21 37 41 50 61 75 77 79 86 87 90 94 97 97 96 96 97 94 86 89 91 86 83 71 75 74 71 82 71 71 68 68 65
12 20 26 24 22 24 20 17 14 13 13 13 12 11 12 14 26 40 45 54 71 75 74 78 83 88 85 88 92 96 96 94 93 98 90 88 89 84 75 72 76 67 73 73 72 71 74 71 68
15 17 28 32 27 24 24 21 17 13 13 13 12 11 11 14 27 41 48 57 72 76 74 77 76 86 86 86 90 96 98 97 97 96 97 88 85 83 82 79 80 74 68 77 74 75 70 75 71
24 16 17 18 24 36 24 30 20 15 14 14 13 13 12 14 16 38 46 55 69 73 72 69 77 86 85 84 86 94 98 98 98 95 94 94 87 87 86 87 82 81 77 76 77 73 74 73 75
22 17 18 22 26 27 24 26 21 16 16 14 13 12 15 16 17 37 42 49 55 70 76 69 77 84 81 86 84 93 98 98 98 98 98 95 93 88 87 89 81 77 76 82 81 82 77 78 72
17 21 23 23 26 38 28 26 24 20 17 15 12 11 14 15 20 30 38 45 52 71 73 75 76 80 84 87 85 88 93 96 97 98 98 97 95 92 91 82 88 87 86 86 83 80 79 83 80
23 29 42 46 46 43 24 27 25 18 16 16 13 14 18 23 27 31 38 43 51 73 74 78 77 82 84 86 86 86 89 90 93 93 95 96 94 93 91 86 93 91 84 79 85 87 86 86 86
23 30 49 67 56 49 47 60 26 16 14 14 13 14 18 22 29 31 37 43 52 69 72 74 77 78 84 86 86 85 82 86 87 87 88 88 88 85 83 84 82 80 73 80 83 82 88 90 92
22 32 26 43 41 53 51 34 22 18 18 16 14 15 20 23 27 30 35 44 52 66 72 72 74 68 80 82 82 82 78 77 82 80 80 82 84 85 86 81 81 87 82 83 85 82 85 85 86
17 16 33 38 62 67 40 37 45 36 28 21 18 18 19 20 26 30 32 42 47 58 64 69 67 67 69 75 78 76 75 73 73 80 82 78 77 73 84 82 79 76 73 74 80 77 77 82 86
20 25 27 30 40 56 58 39 31 29 26 23 24 19 22 20 23 29 31 39 41 52 58 66 63 61 68 70 72 73 72 70 68 72 77 75 74 72 76 78 76 73 72 74 75 74 73 73 77
35 26 26 38 39 39 42 37 20 29 29 26 24 21 20 20 21 26 30 38 40 49 54 60 61 58 63 68 69 66 70 70 69 71 67 68 74 71 68 72 72 69 69 70 71 76 70 77 79

GFSSGP_sfc_rhum_108.txt.gz
RH
70 55 42 35 40 40 41 29 23 18 24 19 16 16 18 18 19 30 54 75 82 92 91 91 94 93 94 93 92 92 92 92 91 90 89 88 87 86 85 84 83 81 78 72 71 73 77 79 83
40 31 34 39 45 52 41 28 22 18 17 17 15 16 18 30 59 64 66 78 81 88 91 90 94 93 94 94 93 92 90 91 91 89 88 87 86 85 85 83 82 81 78 75 78 73 75 79 84
35 33 42 40 54 49 41 21 19 18 17 15 15 16 17 30 59 61 58 74 80 84 89 88 93 94 93 94 93 91 91 92 91 89 87 86 86 85 83 83 81 80 76 73 74 74 75 81 81
35 36 36 32 39 33 29 24 14 15 16 16 15 19 20 38 51 50 60 66 80 82 84 93 94 93 92 94 93 91 92 92 91 89 87 86 86 85 85 84 82 79 76 73 72 74 82 85 86
32 31 36 43 30 23 18 16 14 14 16 17 18 21 20 46 48 55 59 53 70 87 86 95 96 94 92 93 93 92 92 91 90 88 84 84 86 85 86 85 82 79 77 77 78 82 86 87 85
37 29 36 41 28 20 17 15 15 16 19 15 19 21 45 54 53 56 58 58 76 93 97 96 95 96 96 94 94 94 93 92 89 87 86 90 84 84 85 85 83 80 80 80 83 86 84 83 80
38 39 42 34 28 23 18 14 17 17 21 22 21 28 57 55 51 57 60 71 92 95 96 97 97 95 96 98 97 96 94 87 88 88 86 86 86 88 83 85 84 82 84 84 86 86 85 82 79
36 35 48 33 28 25 18 13 17 16 16 16 17 28 60 48 62 69 81 92 94 95 96 97 96 94 95 98 95 96 97 94 85 92 90 92 89 87 86 86 86 86 86 87 86 85 84 80 79
26 36 40 30 26 21 15 16 15 14 14 16 16 18 20 48 66 75 86 91 93 90 94 97 96 96 95 96 95 93 95 97 91 90 90 92 84 90 90 84 87 87 87 87 86 84 83 81 82
29 37 31 23 20 19 16 19 14 14 16 17 19 22 58 58 64 69 80 86 91 94 93 96 96 95 96 96 96 97 97 98 95 92 93 92 87 91 90 90 88 88 89 88 86 83 83 76 72
31 27 23 19 18 18 17 18 15 15 17 16 15 18 63 59 63 68 72 79 81 85 95 96 96 95 97 99 99 100 99 99 98 96 94 93 93 95 93 92 89 91 90 92 86 78 72 68 68
35 26 23 20 17 18 17 14 15 16 15 13 14 15 61 62 64 65 70 76 84 93 92 95 96 96 97 99 99 99 99 98 98 98 96 97 97 96 97 92 88 91 90 88 78 82 74 70 66
29 27 23 20 20 20 17 19 17 18 16 15 14 15 50 60 58 56 58 66 91 94 94 95 96 96 97 98 99 99 98 98 98 96 96 91 96 95 92 87 88 91 94 89 84 73 71 67 67
26 26 26 26 26 23 20 19 21 18 16 16 16 19 19 46 52 54 70 82 92 91 94 95 96 96 97 99 98 98 98 98 98 96 95 87 92 95 91 88 91 91 84 80 73 80 71 68 66
20 23 22 26 27 25 21 23 22 17 17 18 16 14 17 20 42 47 58 72 80 89 90 94 96 96 96 97 97 98 99 99 98 96 93 87 92 96 89 89 86 83 80 79 80 83 74 69 67
20 24 33 27 27 24 28 29 24 22 25 26 23 19 14 18 33 45 56 65 77 91 94 93 88 96 96 98 97 98 98 99 98 96 93 87 86 92 87 81 78 78 79 68 73 83 81 74 76
27 33 35 28 19 21 24 24 26 26 25 24 24 23 17 16 32 42 59 70 85 86 92 94 94 95 95 96 98 97 96 99 97 98 95 89 89 89 85 78 73 76 72 65 74 83 77 74 80
30 31 26 26 25 26 32 32 29 28 28 30 27 26 21 23 33 43 64 74 82 87 91 94 95 96 96 98 99 99 97 99 98 96 96 95 93 87 86 80 75 77 71 70 80 73 81 71 77
22 21 20 17 14 25 28 33 27 28 27 26 26 27 25 22 36 56 73 81 90 94 94 95 96 98 98 99 99 99 98 98 98 96 92 95 94 90 89 77 80 76 69 73 79 77 72 81 74
17 17 17 14 15 20 24 24 18 30 29 26 28 26 22 25 63 70 84 86 88 94 94 96 96 98 97 98 98 96 99 94 94 94 93 91 94 89 86 79 74 76 74 79 81 72 75 74 70
18 18 18 20 21 22 30 29 28 27 33 29 27 23 20 21 63 74 86 96 96 96 95 94 95 93 93 96 98 99 99 99 97 97 97 96 91 87 85 81 74 75 78 86 77 70 63 63 80
36 26 25 28 32 36 28 38 27 23 26 29 26 22 19 36 56 66 78 96 96 95 94 94 94 88 92 96 97 96 98 96 96 96 92 93 92 89 84 82 80 79 80 79 77 66 71 64 64
29 27 30 31 37 42 36 44 25 29 25 22 22 19 17 20 52 65 75 84 93 95 94 91 94 91 91 92 90 94 96 95 95 95 98 92 95 88 85 83 85 86 84 85 76 82 85 82 77
22 31 38 41 42 51 38 41 32 33 27 22 18 17 17 20 50 59 68 86 94 93 94 92 92 90 91 91 93 95 96 96 96 95 95 97 95 95 90 87 88 89 88 87 92 94 90 94 87
28 43 60 64 64 50 33 41 33 29 24 25 26 26 29 25 45 65 89 89 94 96 95 94 90 95 90 91 94 94 95 96 95 94 96 91 98 97 97 94 94 94 93 94 95 95 96 95 94
30 31 50 65 64 49 38 53 52 35 33 44 43 41 34 27 41 66 80 83 89 91 93 90 93 94 90 91 94 93 97 93 94 94 95 94 95 95 96 94 91 92 93 94 94 96 97 97 97
32 45 30 50 60 65 54 41 31 26 59 55 53 46 39 62 60 67 76 83 86 88 91 94 91 92 88 90 93 94 95 97 93 93 92 95 94 95 94 95 97 96 95 95 95 96 95 95 95
38 30 41 56 70 59 60 58 53 56 68 63 63 58 46 48 64 64 70 84 84 85 88 93 86 90 87 89 91 92 97 97 96 93 95 94 94 95 96 95 94 96 96 96 95 96 95 94 90
61 62 66 43 66 58 77 64 69 71 69 73 82 63 53 47 47 60 62 78 83 85 89 93 89 85 81 81 90 93 97 96 95 88 89 92 91 94 95 94 96 94 96 96 96 93 88 88 83
47 58 66 91 70 77 66 53 28 62 61 74 83 60 45 36 41 62 59 75 85 87 89 91 86 85 84 77 86 88 93 94 90 90 91 91 90 88 87 87 92 89 87 91 89 87 82 86 84

GFSSGP_sfc_rhum_111.txt.gz
RH
74 56 42 37 40 45 50 32 28 22 25 19 19 19 19 20 20 29 46 63 83 95 96 94 96 94 94 92 93 92 92 90 89 90 90 89 88 88 87 87 85 84 77 76 74 78 81 81 85
43 37 36 41 48 52 37 34 26 22 19 21 19 18 22 32 60 61 70 79 86 93 94 93 96 94 94 93 93 92 90 90 90 90 90 89 88 87 87 86 85 82 79 74 78 80 80 82 88
35 37 42 43 58 50 38 30 22 16 18 20 19 18 21 36 61 67 64 83 88 94 93 91 95 95 94 94 94 92 91 91 90 90 89 88 87 87 87 86 84 80 75 71 73 77 81 88 87
39 41 37 40 48 41 34 28 23 17 15 17 16 22 24 36 56 61 62 81 87 95 94 94 95 95 95 94 93 93 92 92 91 89 88 87 86 86 86 86 84 80 73 73 77 78 86 87 88
35 35 42 46 36 28 24 20 18 18 17 18 19 22 24 41 54 60 70 79 86 94 96 95 96 95 94 94 93 94 93 92 91 89 87 86 85 84 86 85 83 81 79 80 80 84 86 89 87
38 33 40 42 33 24 22 18 21 20 21 20 24 26 29 51 60 68 71 81 85 89 94 97 95 95 95 95 94 95 94 93 90 85 89 85 85 86 83 86 84 82 81 81 84 87 89 87 84
40 42 41 36 32 28 23 18 19 20 22 20 21 28 49 61 62 70 69 74 93 95 97 99 97 96 96 98 97 97 95 93 89 88 86 88 87 88 86 84 84 84 83 84 89 88 85 82 82
38 40 52 40 35 28 20 18 19 17 17 15 22 45 52 54 62 77 87 94 96 97 98 99 99 99 99 94 98 98 97 94 92 89 90 90 89 88 89 84 86 86 86 88 87 86 83 81 84
33 46 52 39 30 25 19 20 20 16 17 17 18 37 36 62 75 84 92 94 98 98 98 98 98 98 99 99 98 98 97 98 92 90 89 93 90 87 84 87 89 87 89 90 88 86 83 84 85
36 48 40 30 25 23 21 23 18 18 18 16 19 28 64 70 70 81 89 90 95 96 97 98 98 97 97 98 99 99 98 98 94 89 93 90 90 87 80 87 90 88 90 90 87 86 84 81 78
35 37 29 23 21 21 20 23 20 20 20 18 16 16 65 73 69 74 77 80 83 85 95 98 97 97 97 98 99 100 100 99 98 92 93 92 93 93 94 97 94 94 91 97 88 82 74 76 75
43 30 26 26 22 23 25 21 21 19 17 14 15 18 66 71 72 71 74 76 81 92 91 96 96 96 97 99 99 98 98 99 99 96 92 96 96 96 94 92 94 96 97 98 92 87 78 75 67
36 32 29 27 26 25 23 23 21 21 17 17 18 20 55 69 67 63 63 66 77 92 94 96 96 97 98 99 99 98 96 96 98 98 94 92 95 96 93 92 89 96 98 96 90 83 70 71 73
31 31 29 28 27 26 26 25 28 22 18 19 20 23 32 63 66 63 67 66 76 81 94 96 96 96 98 98 98 99 99 96 98 98 97 90 92 94 95 95 88 95 91 91 80 72 71 72 78
22 25 24 25 25 27 29 27 26 21 21 26 26 26 27 26 39 61 57 57 58 82 94 96 96 97 98 98 98 98 96 97 97 96 95 96 93 94 94 92 92 93 90 86 81 81 77 74 76
24 29 33 29 27 25 26 30 29 21 28 29 28 27 27 28 25 35 47 52 66 91 95 94 90 97 97 98 98 98 97 99 98 98 96 94 94 89 90 91 92 90 86 79 75 80 76 82 77
30 28 32 29 23 25 25 23 28 25 26 30 29 32 30 28 27 27 34 54 82 91 94 96 96 98 97 98 98 97 98 98 98 98 98 94 97 90 89 89 88 85 78 74 73 92 71 80 80
33 32 31 31 22 26 30 26 19 27 30 31 33 32 31 31 25 27 47 69 87 94 94 94 96 97 98 99 97 99 99 99 99 99 95 94 96 91 90 86 87 79 71 72 80 79 87 84 77
28 27 27 25 18 18 16 18 17 18 29 32 30 24 26 27 25 30 78 89 95 96 94 94 97 98 98 97 97 98 98 99 99 99 89 88 91 94 91 80 83 75 65 70 77 80 77 90 80
21 23 22 18 14 20 20 19 17 23 22 28 29 28 28 24 31 64 92 93 94 94 92 95 95 98 98 98 98 98 96 98 98 97 96 90 92 92 88 79 80 71 66 76 80 74 91 86 76
25 24 25 20 19 23 26 27 26 24 29 31 33 30 27 27 27 65 93 95 93 94 94 95 96 97 97 97 98 99 99 99 99 99 98 97 93 92 86 79 76 70 68 69 79 77 72 75 82
43 26 22 22 36 39 29 39 26 27 25 26 25 23 27 29 30 59 88 97 96 93 93 95 96 98 97 97 98 97 97 98 96 95 95 96 95 95 92 82 75 70 72 66 73 74 73 76 73
37 33 36 35 38 46 38 51 29 28 25 24 23 22 25 24 36 67 81 88 92 95 97 97 97 96 92 96 96 97 98 97 98 95 94 97 96 92 92 86 78 78 73 79 74 81 86 73 68
28 32 38 45 46 56 36 43 30 33 28 27 23 22 41 38 32 52 66 86 94 98 97 98 97 90 90 92 96 95 96 97 98 98 99 97 97 93 91 90 88 86 83 85 83 86 84 86 82
28 40 50 53 67 50 34 46 32 32 27 32 52 52 50 47 44 40 69 92 96 98 97 97 96 91 88 92 93 95 95 92 95 95 96 95 97 98 93 92 92 91 90 91 88 88 89 87 86
34 39 54 45 53 43 40 56 42 37 46 60 55 59 55 53 48 52 65 87 94 94 96 95 96 92 88 90 93 91 93 92 92 89 92 92 90 96 96 92 92 91 92 92 90 91 94 96 95
43 41 34 43 48 65 48 44 32 42 60 60 64 71 64 59 52 50 74 85 89 94 95 94 95 89 90 88 96 94 93 94 93 93 93 95 93 95 96 94 95 96 95 94 94 96 98 98 98
50 43 45 58 65 52 50 64 58 49 68 64 69 80 74 63 57 49 79 86 88 88 92 94 93 89 94 85 93 96 94 94 95 94 96 98 97 95 96 96 94 95 96 95 95 97 98 98 98
52 71 74 71 66 68 59 51 66 74 77 78 77 75 76 71 66 57 58 83 87 91 94 94 95 95 95 88 91 96 95 95 96 97 94 96 97 96 97 96 96 96 96 96 97 96 96 96 98
52 77 83 86 88 85 91 73 48 47 80 77 78 64 75 78 68 54 51 88 94 95 90 93 94 95 93 92 88 95 97 95 95 96 96 95 96 95 96 97 96 95 95 95 95 96 96 97 98

GFSSGP_sfc_rhum_114.txt.gz
RH
78 54 43 36 40 46 52 35 32 26 26 23 22 21 21 21 25 27 43 79 85 94 95 96 92 90 93 93 93 89 86 85 90 91 90 89 89 88 88 88 87 83 78 73 78 79 78 82 86
53 40 37 43 46 50 34 37 31 24 20 23 21 23 24 26 55 59 60 73 86 94 97 90 95 94 93 93 93 92 87 82 82 85 90 89 88 88 88 88 86 83 81 74 76 78 81 85 90
37 39 40 47 62 48 37 33 23 22 18 23 20 20 23 29 61 64 62 80 90 96 96 93 97 95 93 93 92 92 89 87 87 85 90 89 88 88 87 86 86 82 82 75 74 78 85 90 90
40 41 38 45 51 44 36 33 28 20 17 20 18 20 22 31 51 60 60 89 93 96 96 96 98 96 94 93 92 92 93 92 92 90 89 89 88 87 88 88 85 81 77 78 80 84 89 90 90
35 38 44 52 41 35 29 28 24 20 21 20 20 20 24 30 58 62 79 85 89 96 97 97 98 96 94 93 92 92 92 93 92 87 81 87 84 88 88 87 84 81 75 80 84 89 90 90 89
36 35 42 42 34 28 24 21 24 24 24 22 24 26 23 51 63 65 82 89 90 95 98 98 96 96 95 93 93 95 94 94 92 87 88 89 88 84 82 85 85 83 81 81 87 89 90 90 88
34 40 43 40 34 31 25 22 20 23 23 25 24 26 30 50 55 74 79 92 94 96 98 99 97 96 97 97 97 97 96 94 92 89 86 86 84 84 84 86 84 83 82 86 88 90 88 89 87
40 41 52 42 36 30 24 20 20 18 20 16 30 33 35 46 76 85 89 93 94 96 98 99 97 96 98 97 98 98 97 96 92 90 90 87 83 83 86 86 87 84 85 88 90 89 85 88 87
40 50 56 35 35 29 22 24 23 20 19 20 19 30 34 60 80 80 87 93 96 98 98 99 96 93 94 92 96 98 97 96 93 89 88 89 86 86 86 84 84 84 89 90 89 86 84 89 88
39 53 47 33 30 25 26 26 21 21 23 21 24 20 52 80 78 78 86 88 97 97 98 99 99 98 97 97 97 97 97 96 94 90 90 89 93 88 83 86 88 85 89 90 89 85 86 88 85
42 44 36 28 26 25 26 26 22 25 26 22 20 18 58 75 78 75 75 78 81 88 96 98 98 98 99 99 99 100 100 99 97 92 91 94 95 93 91 93 94 91 91 91 87 83 85 85 84
42 34 28 27 24 28 29 31 26 24 22 18 18 19 34 70 78 77 76 77 81 93 93 98 98 98 98 99 99 99 99 99 99 96 94 96 97 95 94 95 94 94 91 95 91 84 88 88 82
41 37 31 31 30 31 30 30 28 26 19 18 19 23 25 53 74 74 73 73 81 90 93 95 97 97 97 98 99 98 99 98 98 97 94 94 95 95 94 95 95 88 89 89 93 83 81 81 79
36 32 31 31 30 30 28 29 32 27 24 23 22 25 29 42 65 73 76 72 80 73 89 94 96 96 97 98 99 99 98 95 96 97 95 92 94 95 96 96 94 94 87 90 84 78 79 78 80
24 25 24 25 27 29 30 34 32 25 24 24 28 28 29 32 42 58 56 61 60 63 78 95 95 96 96 97 98 99 97 96 96 96 95 91 91 94 94 94 92 94 91 92 82 82 83 83 82
24 29 31 28 27 27 28 36 29 23 26 27 26 28 30 32 30 30 46 51 48 62 88 95 92 97 97 98 98 98 96 95 97 97 97 95 94 91 93 95 96 94 90 85 78 76 85 89 85
30 30 30 26 27 31 29 28 23 26 19 22 30 32 29 30 33 33 30 33 42 69 94 96 96 97 97 98 98 98 94 97 94 96 96 95 94 95 91 92 95 92 88 84 79 79 75 87 90
34 33 34 34 26 28 27 27 23 16 21 25 27 33 31 27 27 26 29 35 51 92 94 95 96 96 97 98 96 98 95 97 98 98 97 94 95 98 92 94 94 88 86 82 78 75 85 89 87
31 31 32 32 21 19 19 19 17 16 18 22 25 28 27 26 23 30 42 76 96 98 97 96 97 97 98 98 98 99 98 98 98 98 97 95 93 91 95 94 91 86 78 76 75 72 77 94 91
25 28 26 21 17 19 20 19 18 18 21 21 21 28 30 30 24 23 48 93 98 97 95 96 94 97 96 95 92 97 96 97 97 98 96 94 98 95 92 92 88 80 74 78 76 72 86 91 84
25 25 27 22 22 22 26 32 29 26 26 27 29 32 34 29 26 25 39 94 97 98 96 94 95 95 97 91 89 99 98 99 100 99 98 97 97 95 91 87 84 80 71 74 73 73 69 82 89
38 30 28 31 34 48 34 46 29 28 29 27 24 26 26 27 32 28 41 93 97 96 96 95 96 94 98 98 90 95 92 96 98 97 96 95 97 96 92 85 81 75 70 71 73 72 71 80 81
48 36 34 35 42 49 45 46 35 24 24 24 26 27 35 55 52 49 44 86 94 97 98 97 92 94 97 98 96 92 96 95 96 98 98 97 95 94 94 90 86 79 76 72 72 83 86 83 73
32 36 37 48 49 60 39 40 27 30 29 32 34 52 61 63 59 54 47 72 96 98 98 94 92 95 97 97 97 97 97 98 98 97 98 98 98 97 95 92 90 84 82 82 80 84 88 89 77
32 38 46 39 65 49 37 45 28 29 29 60 68 67 71 69 62 59 56 72 96 96 95 92 91 97 97 97 96 97 96 93 96 96 95 98 97 98 98 94 92 88 82 84 79 88 89 88 85
37 38 52 43 46 38 44 53 42 36 54 64 67 73 72 72 63 62 59 58 92 89 92 90 90 95 96 94 95 94 95 97 97 95 95 95 94 95 94 93 91 86 80 86 86 87 87 89 92
42 44 38 45 49 58 45 42 32 46 59 63 63 72 81 72 68 61 59 55 94 91 88 91 88 86 94 94 91 92 92 92 94 96 96 96 92 93 97 93 94 91 88 90 86 89 92 90 93
44 50 48 59 61 53 49 58 50 70 74 71 73 76 72 59 66 61 57 56 57 92 86 93 87 83 91 92 89 90 92 93 94 96 96 97 94 93 92 97 96 96 92 89 90 91 91 91 96
48 63 71 66 73 76 81 51 65 61 78 79 78 74 78 68 80 70 60 58 58 89 90 94 95 85 85 86 88 94 94 95 95 96 96 97 98 97 96 95 96 97 94 92 93 93 92 92 94
68 78 80 83 94 85 89 82 48 46 52 52 80 76 78 76 72 74 73 68 90 93 92 94 94 91 89 92 89 94 95 95 96 97 96 98 99 97 96 97 96 97 95 95 94 96 95 95 97

GFSSGP_sfc_rhum_117.txt.gz
RH
59 32 26 24 25 27 24 21 21 18 17 16 15 16 16 16 30 19 32 48 63 62 70 75 85 85 86 93 91 85 83 91 91 90 91 90 89 89 89 87 84 83 82 80 80 83 80 82 86
40 26 24 27 25 21 17 23 21 17 14 17 15 16 16 15 27 34 36 59 64 67 70 69 89 88 87 94 91 85 83 87 91 91 90 89 89 89 89 88 86 83 79 79 78 79 81 85 90
30 27 23 26 31 16 16 22 17 16 15 17 13 12 14 16 37 36 34 57 67 68 71 73 92 92 92 94 93 86 84 87 91 91 90 89 89 89 88 88 86 80 79 78 75 79 86 91 92
26 25 25 23 21 26 23 19 18 18 14 14 13 13 14 17 32 39 37 54 65 69 72 84 95 92 90 93 93 86 84 83 84 90 89 89 87 85 81 74 81 80 79 77 78 82 91 92 91
22 25 24 27 26 24 23 22 18 15 16 16 14 14 15 19 35 41 50 58 63 72 76 86 96 93 92 93 93 91 87 85 87 91 88 88 86 80 82 83 83 80 79 78 83 88 92 91 89
21 23 21 15 16 20 17 16 16 16 18 17 17 18 16 30 40 45 58 64 69 76 82 85 92 95 91 93 93 95 93 86 89 91 86 87 85 90 89 85 83 80 83 82 88 91 91 90 88
16 24 20 20 20 20 18 17 17 15 16 15 16 18 17 24 38 58 66 70 76 82 84 84 90 90 96 95 96 96 96 94 94 90 88 86 88 89 87 82 82 80 83 83 88 91 91 89 88
22 22 27 22 13 13 16 15 16 14 14 13 18 21 17 15 54 65 70 76 78 82 85 88 90 88 88 85 98 98 97 95 94 93 92 92 90 86 85 85 82 81 83 84 89 92 92 89 88
26 24 24 16 21 14 16 18 16 14 14 14 13 16 15 32 59 62 64 73 78 82 83 90 90 88 88 87 92 98 97 96 95 91 91 90 68 72 74 73 84 83 85 88 91 90 91 90 88
27 28 24 20 16 17 17 20 17 16 19 17 19 18 20 41 50 52 58 60 72 78 83 90 91 92 92 90 88 88 91 90 84 81 79 79 74 69 65 74 88 88 89 91 89 88 92 81 59
30 26 29 24 21 20 20 19 16 17 18 20 19 17 21 28 42 54 54 53 56 62 75 84 91 92 93 93 91 95 97 96 94 84 83 84 81 82 75 77 80 83 87 80 76 72 66 65 60
32 30 25 22 20 22 21 19 20 20 20 18 17 16 17 20 32 46 53 54 55 66 70 79 88 93 94 92 94 93 93 98 98 95 90 92 93 88 83 82 84 82 69 77 72 66 67 71 66
36 29 26 23 21 23 23 24 25 24 19 18 16 19 22 22 24 41 53 55 58 64 68 77 83 89 92 93 96 96 94 97 98 96 93 95 93 90 93 91 92 84 78 72 74 69 69 70 68
29 29 26 24 25 25 26 24 24 22 21 22 22 22 23 25 25 37 47 48 51 56 61 69 81 84 88 92 93 94 95 94 97 98 94 92 92 91 92 95 96 92 89 69 71 68 74 64 63
22 24 21 22 23 25 24 26 27 20 20 22 23 24 21 22 22 27 30 30 29 43 53 68 75 83 86 86 87 91 89 89 91 89 96 92 90 93 91 95 96 93 91 84 74 65 69 61 60
18 20 24 21 20 21 23 27 21 20 18 14 13 16 21 21 20 21 24 24 25 35 45 60 67 82 85 86 86 91 90 91 91 92 92 95 90 88 92 94 95 94 92 83 76 62 63 62 61
24 26 26 23 22 24 26 27 20 19 14 12 13 15 17 20 23 21 22 23 23 29 35 61 74 82 86 83 85 91 93 95 93 94 94 93 92 89 92 94 95 94 91 82 70 62 61 63 61
23 27 27 23 18 21 22 25 19 16 12 13 15 16 20 20 17 17 19 23 25 35 40 63 77 80 82 88 89 92 92 93 90 93 90 92 95 93 92 95 96 94 92 80 69 64 59 60 61
22 26 25 23 18 18 19 18 15 13 13 16 16 17 18 20 18 20 26 29 35 59 65 74 81 84 87 91 97 97 96 93 95 95 86 86 91 94 97 96 96 93 93 78 71 66 69 66 62
19 23 25 22 17 20 17 18 17 16 16 16 17 18 20 22 20 27 32 34 49 63 74 78 78 87 81 81 86 87 92 94 88 90 88 93 92 94 97 96 94 91 90 84 76 68 64 64 67
20 24 24 19 17 19 21 23 22 20 18 20 22 22 22 22 39 41 43 45 54 67 80 80 79 85 82 78 81 82 92 96 97 97 97 96 96 95 98 94 92 91 83 80 74 69 66 68 69
30 20 18 19 29 32 26 27 22 21 22 21 21 24 33 44 45 43 45 45 54 61 75 77 82 84 83 80 79 84 89 94 92 95 95 95 94 95 94 94 94 88 78 77 71 67 65 70 72
26 32 26 29 33 34 32 33 26 22 17 20 23 37 48 50 49 48 48 48 51 68 78 80 83 84 86 88 82 78 91 90 86 91 94 92 94 93 92 94 94 91 79 73 70 71 68 61 63
34 35 34 38 38 40 32 26 20 19 23 24 40 47 55 54 51 47 47 45 48 80 86 85 86 84 88 87 84 82 89 89 93 92 98 91 96 96 93 95 95 92 81 77 71 73 72 71 65
30 33 36 43 48 29 29 33 24 24 34 49 52 51 55 50 47 48 48 48 49 68 85 83 88 89 91 87 87 85 85 83 82 90 91 96 92 95 96 93 95 91 86 79 75 75 74 73 70
36 33 32 25 28 24 35 30 30 48 50 49 50 53 50 45 45 47 50 51 50 55 76 86 86 88 87 88 88 86 81 80 81 85 90 89 96 95 91 92 90 91 86 77 77 76 76 75 79
38 39 28 29 37 40 33 31 37 45 46 39 40 49 53 52 51 54 55 55 59 59 60 87 87 85 89 89 89 84 81 84 86 89 91 92 92 90 97 92 91 89 89 86 77 78 78 78 83
38 36 43 44 49 45 36 36 42 42 40 32 32 43 52 52 55 57 58 60 63 68 61 81 86 87 88 84 82 77 78 77 82 82 83 84 89 92 96 94 96 92 88 85 83 81 80 82 86
42 52 62 51 59 38 39 34 45 42 39 28 25 28 47 58 59 55 56 58 56 68 74 86 92 88 91 83 78 78 83 84 88 88 86 79 82 82 84 90 97 97 94 88 88 85 84 81 88
58 72 68 57 68 68 57 44 39 39 31 26 25 25 40 58 61 56 56 53 59 68 85 90 93 89 89 79 77 78 82 86 89 90 85 86 94 92 92 93 94 94 97 92 92 92 87 84 91

GFSSGP_sfc_rhum_123.txt.gz
RH
44 20 10 10 13 9 7 6 6 8 10 8 8 11 10 10 12 16 11 18 18 20 35 62 89 91 91 90 91 93 93 91 90 91 92 89 92 92 91 90 88 83 82 79 79 79 78 82 87
18 10 9 11 11 8 6 5 9 7 9 10 9 11 10 10 9 11 16 26 21 21 33 42 91 92 93 94 92 94 92 91 91 91 89 90 91 90 89 89 86 82 82 79 78 78 79 86 89
28 8 11 10 9 7 5 6 6 8 9 11 10 8 8 9 10 10 14 25 21 22 27 46 90 90 94 94 91 92 93 92 92 91 89 88 90 89 88 85 80 80 79 80 78 80 86 91 92
13 9 9 11 9 5 5 6 8 9 8 8 8 10 8 7 10 10 13 20 20 22 24 82 92 90 93 93 91 89 92 92 91 91 90 90 89 87 83 85 90 91 93 74 78 81 89 93 93
10 9 10 9 8 5 5 6 9 9 8 9 8 10 9 9 10 14 14 19 21 23 31 67 91 91 92 93 92 90 92 94 92 92 92 89 88 86 88 76 84 82 84 84 79 89 93 93 92
10 8 11 9 7 5 5 6 9 9 9 10 10 10 9 13 12 14 16 20 24 29 36 61 86 92 92 94 94 91 91 94 95 94 93 88 88 87 82 86 89 88 88 88 86 93 93 92 92
12 11 12 9 8 6 6 6 7 8 8 12 9 12 9 10 14 20 20 22 31 37 46 55 68 77 95 95 95 92 88 93 96 95 94 91 90 88 88 89 88 88 89 88 90 94 93 92 91
11 12 13 10 10 8 5 6 6 6 6 7 9 10 11 12 15 22 26 28 37 44 55 55 63 69 71 76 97 94 90 92 95 96 95 94 92 90 90 90 90 89 89 88 92 94 93 93 90
10 16 15 12 10 8 6 8 7 6 5 8 8 8 10 10 12 18 27 33 39 47 55 57 64 65 66 64 76 95 95 93 96 93 95 92 63 65 71 73 87 89 90 92 94 93 92 91 90
14 17 15 10 8 8 7 9 7 9 10 8 10 9 9 10 10 13 16 22 36 43 50 54 61 69 66 61 68 71 69 69 69 69 74 72 67 63 52 64 88 90 92 94 94 94 93 82 66
15 18 13 10 9 8 8 8 8 9 9 8 8 8 9 10 12 14 15 15 17 29 38 46 56 66 68 71 74 64 59 61 61 67 64 72 63 66 57 77 59 72 89 74 86 90 81 66 58
15 14 13 11 10 11 11 10 10 9 9 8 7 7 8 11 12 13 14 16 15 19 31 41 48 62 67 59 71 75 59 58 59 58 68 71 68 73 62 71 70 58 64 76 72 88 84 64 51
14 14 12 12 12 12 12 13 12 11 9 9 9 10 11 12 12 12 13 14 17 21 26 37 47 58 62 65 70 75 59 62 57 56 65 64 66 67 64 71 68 55 68 78 77 81 70 57 42
12 12 12 12 13 12 15 14 13 12 11 12 12 13 13 14 14 14 14 14 16 20 25 33 43 52 62 68 78 74 65 55 61 57 64 72 66 67 60 64 74 71 81 86 92 76 79 54 47
12 15 13 13 13 14 13 16 15 11 10 12 12 14 14 13 12 13 14 14 13 15 18 26 34 43 57 68 79 76 66 59 57 59 70 71 77 73 66 67 79 80 92 90 93 77 76 58 53
15 15 18 13 11 10 12 18 12 9 10 12 12 13 14 14 12 10 12 12 11 13 15 15 14 34 49 57 70 79 75 69 61 67 75 76 79 73 76 71 73 86 90 96 97 86 85 59 48
16 18 16 13 9 9 11 14 10 8 11 12 12 12 10 10 10 10 9 10 10 12 14 19 21 28 43 50 53 70 84 84 73 62 67 84 83 80 81 81 83 84 86 96 97 98 83 55 48
16 14 13 13 10 10 13 13 11 10 11 13 10 10 9 8 8 9 9 11 16 26 28 27 25 31 35 47 56 54 70 78 83 75 58 72 79 82 82 88 87 86 92 94 97 94 79 49 50
12 13 13 10 8 10 11 12 11 9 10 12 10 10 8 8 7 8 11 16 21 25 29 29 32 38 33 36 48 56 68 84 84 83 67 76 84 80 90 90 91 92 95 92 93 92 84 61 57
12 14 14 11 8 9 12 13 10 8 9 9 9 8 7 8 9 11 16 21 26 28 31 35 34 37 36 34 43 54 71 83 82 78 71 67 73 87 84 86 94 92 96 94 95 93 86 66 69
10 14 16 14 10 10 12 14 12 8 6 6 7 7 7 10 12 17 21 23 29 33 44 39 35 36 41 42 46 75 81 86 91 84 75 69 71 75 82 88 94 95 93 96 94 94 88 69 66
20 13 13 15 18 20 13 16 11 9 7 8 8 10 12 15 20 20 20 22 27 35 45 44 41 38 43 49 57 81 84 85 84 80 79 70 69 69 69 76 89 96 94 94 94 93 90 74 68
19 15 17 18 22 20 14 14 12 10 12 11 11 13 17 23 24 22 22 23 24 35 40 52 48 45 50 58 59 74 84 69 70 68 77 77 74 68 69 80 89 97 96 94 92 95 90 75 70
17 22 19 23 27 32 23 18 13 13 13 11 12 19 24 24 25 22 23 24 24 40 47 42 53 54 69 74 75 80 81 70 68 65 74 74 81 80 75 78 89 92 96 94 94 93 90 83 71
18 27 46 44 49 50 19 18 16 12 10 10 17 27 26 26 27 25 25 27 30 37 44 44 39 54 66 76 77 83 81 77 66 68 72 79 90 86 83 84 95 96 94 95 93 93 91 81 72
23 26 43 55 49 34 21 26 17 11 21 23 24 25 28 27 28 25 25 28 30 35 40 50 42 43 60 70 78 88 82 76 58 60 68 69 79 87 87 92 92 92 95 96 93 93 92 85 86
30 45 27 41 36 40 27 22 27 24 28 27 23 24 29 29 27 24 24 27 29 28 35 51 54 44 60 72 73 86 88 77 62 58 72 65 80 80 87 89 92 92 95 96 97 95 95 94 90
60 34 59 63 83 58 27 26 31 31 26 22 19 17 16 17 19 20 23 26 26 29 34 46 53 54 56 64 74 87 88 80 69 64 70 72 68 83 89 90 91 93 93 95 96 96 94 94 90
59 64 38 45 58 44 39 26 20 30 23 17 15 14 13 12 12 17 23 26 27 32 37 45 50 60 67 67 74 83 90 87 78 70 72 71 75 73 85 92 94 95 94 93 94 95 92 90 84
44 57 98 92 50 42 36 33 32 25 19 20 18 14 12 13 11 12 22 25 29 35 39 42 53 55 67 74 76 79 88 90 80 74 64 68 69 74 88 94 93 93 93 94 92 92 91 89 84

GFSSGP_sfc_rhum_126.txt.gz
RH
49 31 19 15 18 16 12 7 5 7 8 8 7 10 10 10 14 24 18 22 29 36 62 73 92 92 92 92 92 94 92 92 91 93 94 93 92 92 92 90 88 85 83 81 81 80 81 81 86
21 16 13 11 18 14 9 6 5 7 8 8 8 11 10 11 10 16 24 25 30 41 55 66 93 92 93 93 94 94 92 92 92 93 93 92 90 91 91 88 86 83 76 77 78 79 81 85 89
35 20 10 14 13 14 9 5 6 9 10 10 10 8 9 9 11 12 23 26 24 36 42 71 92 92 94 94 94 95 94 93 93 93 92 92 91 88 90 85 85 90 89 84 77 79 84 88 92
19 16 10 14 14 9 7 5 6 9 8 8 8 9 8 8 10 13 19 19 23 28 47 88 92 93 94 93 93 95 94 95 94 93 92 91 90 86 89 91 90 87 83 74 94 76 86 92 91
17 12 14 12 10 7 5 4 7 8 8 8 8 9 9 10 11 14 20 19 27 38 71 81 92 92 94 92 92 92 94 90 93 92 93 91 88 89 83 91 89 79 74 73 86 85 84 92 90
17 13 17 14 10 7 6 5 6 9 9 8 9 10 10 11 14 16 23 26 36 67 72 80 89 92 95 94 93 92 94 92 93 87 93 91 90 89 79 82 88 83 80 85 89 87 90 92 90
17 15 15 12 12 9 7 6 7 7 9 10 8 11 10 13 19 25 24 32 44 59 74 80 83 86 95 96 94 94 94 89 95 95 95 93 93 92 86 87 84 84 87 90 86 89 92 92 90
14 15 17 14 13 11 7 6 6 6 7 5 8 12 14 20 22 29 31 37 51 65 73 80 81 84 88 92 96 94 91 88 92 96 96 96 94 89 87 92 90 90 91 89 94 94 93 94 94
12 18 19 16 14 12 8 7 6 5 6 5 9 9 10 12 15 26 35 40 51 62 71 79 80 82 84 83 90 96 92 90 90 96 96 98 84 83 85 84 89 90 90 92 96 96 95 95 95
16 20 18 13 11 10 8 8 7 8 8 7 10 9 10 10 13 20 30 40 49 60 69 73 79 82 82 69 86 89 86 88 87 86 93 89 83 79 67 76 89 92 93 95 96 96 95 88 92
15 18 14 12 11 10 10 10 7 8 9 9 9 10 10 10 15 20 22 25 41 51 59 66 77 82 83 76 82 81 79 82 83 83 86 89 79 81 78 90 83 94 95 96 95 95 90 82 78
16 14 13 13 12 12 12 10 10 10 9 8 8 8 9 11 14 20 24 26 24 41 54 61 69 81 82 78 80 79 74 78 79 77 81 84 84 86 85 76 87 89 81 93 92 93 91 85 74
15 13 11 11 12 12 12 13 13 12 10 9 8 10 13 13 14 19 21 23 26 30 46 59 66 78 79 82 82 79 76 73 76 76 78 79 81 81 77 80 84 86 88 90 84 91 82 81 76
13 12 11 11 12 12 14 14 14 14 12 12 12 14 14 14 14 20 20 19 20 26 36 58 65 73 76 78 82 80 79 73 76 74 74 79 79 80 77 79 85 89 88 90 88 92 88 91 92
14 18 16 14 12 12 12 16 15 12 11 12 12 13 14 14 13 14 17 16 18 24 34 54 64 70 75 76 78 79 77 76 74 73 79 78 80 82 77 79 84 89 89 92 95 92 92 95 94
17 17 21 15 13 12 13 20 14 12 12 13 12 12 14 15 14 14 16 16 19 25 31 41 40 60 73 75 79 80 76 75 76 74 74 80 82 79 82 80 82 90 92 97 94 97 94 93 86
17 24 22 18 12 12 13 16 12 10 10 11 11 12 13 14 17 15 14 16 16 21 25 32 37 58 66 73 78 81 82 80 75 79 76 80 84 82 81 80 83 90 95 95 95 98 96 92 93
20 18 17 18 13 12 12 14 11 10 10 11 12 13 14 14 13 13 13 17 25 36 36 40 43 46 54 71 75 82 82 81 80 80 81 84 87 86 86 86 88 90 93 94 95 96 98 95 96
15 16 15 13 10 12 20 18 15 11 11 13 13 15 13 13 10 10 16 20 26 34 36 41 46 52 52 61 68 71 88 85 84 80 83 83 83 86 88 92 92 88 94 93 94 95 94 97 93
13 15 16 13 11 14 14 19 15 12 12 11 11 14 13 12 10 10 17 28 32 37 41 42 46 51 51 45 51 61 68 83 84 84 84 83 83 84 89 93 94 90 96 93 94 93 95 92 97
17 17 16 14 11 12 16 20 17 11 10 11 10 9 11 11 10 14 25 31 40 42 52 48 48 50 56 53 49 72 86 89 94 93 91 83 89 89 89 90 95 94 95 95 94 92 89 90 94
17 13 15 15 16 20 14 24 18 13 12 11 10 10 11 14 16 20 25 30 38 50 50 54 56 53 50 60 58 84 89 90 87 86 86 85 82 87 89 87 92 93 94 95 93 92 90 84 91
19 15 16 19 22 23 21 26 22 15 15 12 11 10 13 18 24 25 25 28 34 51 53 57 58 60 58 64 70 78 86 82 84 85 89 89 82 81 82 87 90 94 94 95 93 93 93 89 83
16 18 20 22 28 38 27 26 24 18 13 14 12 15 20 28 28 26 28 33 35 56 59 64 56 59 71 77 81 81 84 84 85 86 89 86 86 84 81 81 90 94 95 96 94 92 92 92 87
19 24 36 62 54 50 26 30 27 18 15 16 14 18 29 29 33 32 30 32 37 45 54 55 54 52 69 79 84 84 84 84 81 82 84 87 88 86 86 87 91 96 96 95 95 95 95 93 92
33 48 46 44 46 40 27 40 26 17 14 20 16 27 28 30 32 30 30 33 36 40 46 55 54 57 65 76 82 88 89 88 83 90 81 79 86 88 88 89 94 93 95 95 95 95 96 94 92
50 51 39 56 39 44 45 29 23 20 17 26 27 28 30 32 33 29 30 32 36 38 48 57 55 56 61 70 79 81 88 91 90 85 78 78 85 85 88 91 92 90 95 96 96 96 97 95 93
37 36 65 66 79 59 37 35 40 34 26 29 31 30 31 29 27 26 27 30 33 38 45 58 56 57 60 68 76 78 82 88 91 88 83 80 88 87 91 94 94 95 95 96 97 95 95 94 93
46 55 46 59 86 55 54 33 30 50 60 36 28 22 20 19 18 18 24 29 31 41 46 54 60 58 62 68 78 81 83 89 91 90 84 78 86 87 90 92 92 94 96 96 97 96 97 97 91
27 89 98 86 88 66 55 46 33 37 54 54 18 16 18 19 18 17 16 25 30 37 41 50 60 60 66 66 72 82 87 89 92 91 89 90 86 88 90 91 93 94 94 95 96 96 94 97 95

GFSSGP_sfc_rhum_129.txt.gz
RH
75 65 49 31 37 39 36 22 15 12 14 13 11 14 15 18 25 41 40 49 64 80 89 87 93 92 93 93 94 93 93 92 92 94 94 94 93 92 92 91 88 83 80 76 78 79 77 84 88
50 33 34 30 32 40 28 18 15 12 17 13 11 14 14 24 24 29 44 51 64 76 83 88 94 94 93 93 94 94 93 93 93 94 94 93 93 92 91 89 88 83 84 75 72 73 79 86 90
49 33 44 28 32 34 30 17 12 17 13 14 14 12 15 16 25 30 38 55 59 65 77 85 94 95 94 94 94 95 94 94 94 95 93 92 92 92 89 90 87 81 81 83 83 76 78 88 89
34 37 28 26 28 21 17 12 9 14 13 12 14 14 12 14 22 28 34 46 54 61 74 93 94 95 94 94 95 96 95 94 95 95 94 92 91 91 90 90 88 83 77 81 82 80 79 91 89
32 37 28 31 23 15 11 8 8 13 12 12 11 17 16 22 24 24 28 37 50 78 83 90 94 95 93 93 95 96 96 96 95 94 94 93 91 92 90 92 86 83 79 84 83 86 85 90 88
37 30 36 32 22 15 11 9 10 12 14 11 13 16 21 24 25 26 31 43 69 84 88 90 92 95 95 94 95 96 95 94 96 95 94 92 92 91 93 92 84 82 84 87 88 89 87 89 88
56 38 35 28 21 16 12 10 9 12 13 17 11 16 18 24 31 32 33 67 78 84 90 95 95 95 95 95 95 96 94 94 95 83 94 94 94 88 86 91 85 84 84 88 86 88 91 90 89
31 34 34 29 24 21 13 12 10 10 13 12 11 15 20 32 30 35 45 71 84 88 91 94 97 98 99 98 95 96 92 95 95 93 94 96 95 87 88 89 87 87 88 91 90 92 92 91 91
25 32 32 28 23 20 14 13 12 8 10 10 11 14 23 27 27 34 48 73 83 90 91 92 96 97 98 98 96 96 93 90 95 92 97 98 94 86 88 88 90 91 91 91 93 95 96 96 94
29 33 30 22 19 18 14 15 15 10 12 12 20 14 21 23 31 38 46 62 80 89 95 91 95 96 96 90 97 98 94 92 80 87 95 97 95 91 80 89 92 91 92 94 96 96 96 93 95
22 25 21 19 17 16 16 16 15 14 14 13 15 15 14 19 21 34 47 51 61 74 84 89 91 94 95 91 99 99 99 98 92 82 91 94 92 91 87 95 89 97 96 98 96 96 96 92 88
23 18 18 18 16 16 17 18 17 22 15 13 12 14 14 13 22 24 29 40 55 70 78 86 86 90 94 94 98 96 97 97 98 95 97 97 96 96 92 91 95 97 98 97 96 98 97 91 80
20 17 16 15 15 15 16 17 18 16 16 15 14 15 18 18 17 25 24 26 33 63 70 80 84 86 87 91 98 93 91 92 93 93 95 95 95 93 92 92 95 96 98 97 99 98 93 88 84
21 20 19 18 16 15 16 16 20 16 17 16 14 18 20 21 19 21 24 23 27 30 63 74 85 84 82 90 93 91 96 93 91 90 89 92 90 93 89 90 95 96 95 96 94 95 94 95 94
18 20 19 19 19 19 18 19 18 17 16 14 15 14 14 18 18 19 21 21 22 25 43 72 81 85 84 88 90 90 84 92 89 86 90 87 91 90 88 89 93 94 96 96 97 96 95 93 94
20 21 27 20 19 18 18 24 17 16 16 16 14 13 13 14 18 18 20 21 21 26 33 66 68 82 84 81 91 90 89 84 92 89 91 86 91 88 90 90 90 93 96 96 97 95 98 97 96
27 32 27 22 17 19 19 21 16 16 15 14 14 14 14 14 20 20 20 21 23 27 40 57 71 84 86 89 89 91 86 86 86 91 84 92 87 90 88 87 92 94 96 97 97 96 92 96 98
29 31 23 24 19 19 19 19 19 18 16 17 14 13 15 14 19 21 20 20 32 39 38 40 46 70 91 94 94 95 96 89 94 96 90 92 91 92 91 92 93 94 97 97 95 93 95 94 94
18 20 21 18 15 17 16 25 24 21 18 18 15 12 13 19 18 18 19 24 33 39 39 44 46 53 65 91 98 98 96 96 93 88 88 92 93 93 94 94 94 96 95 94 94 95 96 97 95
21 21 21 17 16 18 17 15 20 19 14 14 13 13 13 11 14 12 22 35 41 48 60 60 61 62 62 60 81 94 94 96 89 91 92 94 91 94 96 94 94 94 96 95 95 94 96 97 96
19 24 26 24 19 16 14 17 21 19 15 13 12 10 11 12 14 23 34 47 44 64 63 62 65 71 71 66 59 86 96 98 98 95 91 85 95 92 92 95 94 94 94 96 95 93 91 94 98
22 20 22 22 22 29 25 31 20 21 19 16 13 11 13 13 22 26 33 45 62 63 60 60 61 66 68 74 70 85 94 99 98 95 92 91 93 95 94 94 94 94 96 96 95 93 92 88 94
16 15 20 26 31 33 28 34 26 20 21 17 14 12 12 15 27 31 38 49 55 55 56 60 65 65 76 82 88 94 95 96 98 98 95 92 96 95 96 96 97 96 97 95 94 94 92 89 85
15 16 20 28 34 42 33 38 33 27 22 19 15 13 11 22 31 33 32 52 60 63 60 58 63 68 74 80 85 89 94 95 96 97 94 92 91 95 96 95 97 96 96 96 95 94 92 92 88
28 53 63 56 51 50 32 41 35 26 22 19 18 34 27 31 35 38 39 41 52 60 62 56 64 65 78 84 88 89 90 93 92 92 93 92 92 94 94 95 96 96 94 95 92 93 93 92 92
34 66 94 89 70 52 38 48 34 24 20 18 18 35 34 37 36 38 38 39 45 57 63 61 62 67 67 84 88 89 91 96 94 92 93 88 89 88 90 91 91 94 93 92 95 95 94 94 94
31 52 69 93 81 90 56 39 28 24 25 23 19 33 44 50 47 41 36 39 39 60 66 63 66 67 72 79 79 83 84 91 92 94 95 91 89 91 93 94 96 97 96 95 96 98 98 97 96
40 51 81 85 96 89 61 49 50 35 57 63 52 46 47 52 40 32 36 40 46 58 65 71 67 68 74 76 79 76 84 90 94 96 97 93 92 89 92 95 95 97 97 97 97 97 96 96 96
40 59 72 84 80 76 90 64 85 91 75 73 64 58 40 36 28 23 29 33 46 52 60 71 73 74 78 79 82 85 84 87 94 96 97 95 92 91 93 93 95 95 96 95 98 96 95 98 97
39 74 100 98 93 87 87 87 73 86 76 65 70 43 42 18 17 15 16 30 35 54 65 71 74 73 78 82 84 84 86 86 92 95 94 95 94 92 94 94 95 94 95 96 97 97 96 98 97

GFSSGP_sfc_rhum_132.txt.gz
RH
80 68 48 32 34 44 52 30 23 17 16 15 14 15 16 22 26 39 50 50 74 90 91 90 93 93 93 92 93 93 93 93 92 94 93 93 92 92 92 90 88 87 82 76 76 78 81 83 87
56 43 36 33 36 40 29 28 22 17 16 14 16 20 19 34 36 55 52 67 76 88 91 91 94 93 93 94 94 94 92 93 94 94 94 93 92 91 90 88 89 84 81 77 73 76 81 87 89
46 37 51 32 41 38 32 22 15 13 14 15 16 16 18 28 44 48 46 69 79 85 87 90 94 94 93 94 94 94 94 94 95 95 94 94 92 90 90 88 88 86 80 74 72 75 85 89 90
36 41 43 31 32 28 24 18 16 13 12 13 17 15 15 24 38 38 49 65 70 80 83 95 95 94 93 93 94 95 95 95 95 95 94 94 92 90 91 88 87 86 82 78 74 82 87 90 91
38 41 44 40 28 22 15 15 17 10 13 13 12 16 20 26 33 47 57 53 68 80 90 95 96 95 94 93 94 95 95 95 95 95 95 94 93 91 92 90 88 86 86 84 83 82 87 91 91
40 40 44 42 28 19 17 16 15 13 13 14 16 17 24 36 40 49 53 56 71 81 91 94 95 95 94 95 95 97 96 96 96 96 95 94 94 94 92 88 88 87 89 89 89 85 85 90 91
52 49 44 38 30 25 17 16 16 15 14 16 14 20 30 36 35 43 51 71 82 83 92 96 96 94 95 97 97 98 97 97 96 96 96 95 95 95 93 86 87 88 89 92 89 87 90 90 91
47 47 61 46 35 33 20 18 17 15 11 14 14 17 28 34 35 54 74 85 90 89 92 97 98 96 97 97 97 98 95 98 97 96 96 97 95 95 94 88 87 83 89 88 89 89 92 90 92
32 47 54 46 35 29 19 19 17 14 15 11 12 18 20 32 43 68 86 96 96 92 95 96 98 98 98 98 97 98 95 97 95 92 96 99 93 89 91 90 88 84 92 90 90 93 93 93 92
35 49 42 30 26 25 20 20 20 17 17 15 16 29 34 32 41 66 78 89 94 95 97 97 97 98 98 94 98 98 94 97 96 84 96 98 97 90 81 88 89 90 92 92 93 95 95 94 92
31 33 30 25 23 23 21 20 17 21 19 17 21 17 31 33 38 56 69 76 82 85 90 95 95 97 98 97 94 98 98 98 94 81 93 97 96 95 92 98 94 98 94 98 98 99 99 96 94
27 21 22 22 19 20 21 18 19 21 18 15 17 16 17 18 36 44 59 68 69 87 88 91 91 95 97 98 93 89 95 91 93 86 83 92 97 98 96 94 98 98 97 93 93 93 98 96 91
27 23 20 19 18 19 19 20 20 17 18 16 16 18 20 21 19 23 42 56 68 81 85 94 93 93 95 98 97 94 90 88 85 93 86 80 91 94 94 96 96 97 93 94 92 97 98 97 92
25 24 24 25 23 22 22 21 22 18 18 18 17 21 23 23 22 23 31 32 52 70 81 90 93 90 92 95 96 98 98 96 96 94 88 93 85 92 96 96 97 98 97 95 95 98 96 98 95
16 21 20 20 23 24 23 24 23 20 17 20 19 18 17 20 20 22 21 26 28 50 70 88 90 91 91 90 97 96 95 96 97 96 96 88 95 97 96 95 97 97 98 98 98 98 97 98 96
16 20 31 24 21 20 25 27 21 18 18 18 16 14 17 16 18 20 22 24 24 30 62 80 77 90 88 88 91 95 92 95 95 95 94 96 95 95 95 94 96 97 98 98 98 98 98 97 96
25 26 26 21 19 21 24 24 23 18 18 20 20 18 16 16 18 17 21 21 22 24 52 81 80 90 90 91 94 95 94 90 95 95 93 93 95 93 93 93 94 96 97 97 97 98 93 94 97
27 32 29 29 24 18 22 22 17 19 22 21 21 19 18 15 13 13 13 20 29 42 55 84 86 90 93 96 97 98 98 95 97 95 93 94 92 94 94 94 95 94 96 97 98 96 94 91 94
19 22 22 19 16 23 20 19 16 15 22 20 22 21 18 15 12 11 20 31 42 46 46 52 82 96 98 99 99 100 98 98 97 98 92 95 94 94 94 95 96 94 95 95 96 97 95 97 96
23 22 22 19 18 22 22 21 16 15 21 17 16 19 17 15 12 12 25 40 45 51 59 67 64 64 75 88 97 97 97 97 92 93 96 95 96 96 95 95 96 95 95 97 96 93 95 97 95
18 29 30 29 25 25 25 24 21 17 20 18 17 17 17 14 13 31 42 53 75 76 72 69 74 78 76 65 70 97 98 99 99 99 97 96 97 97 94 94 96 95 93 96 96 94 92 95 97
17 18 18 19 23 30 25 36 24 24 22 20 18 17 19 14 22 34 43 80 73 75 69 65 64 69 83 87 74 90 97 96 97 94 95 95 95 96 97 95 95 95 94 95 95 94 92 91 97
24 28 27 27 25 39 26 46 29 28 26 24 21 18 18 15 32 36 56 62 65 68 74 66 65 65 76 87 91 95 93 96 98 98 95 95 95 91 96 97 96 96 95 94 95 96 94 91 90
24 36 40 40 36 47 32 35 40 26 28 24 18 18 18 16 37 46 55 61 71 71 67 65 66 78 83 86 90 91 93 95 99 99 98 98 98 95 95 97 96 95 96 97 96 95 94 95 91
23 54 84 75 56 43 26 34 31 27 28 26 25 23 22 25 36 52 61 63 66 66 65 61 64 72 81 85 91 92 92 94 96 98 98 97 98 99 98 97 98 98 97 96 95 95 96 94 94
32 65 88 98 74 84 60 60 35 37 58 61 57 22 31 42 39 55 56 59 65 66 64 65 67 72 75 83 89 92 91 95 94 96 98 94 93 93 93 97 97 96 97 97 96 96 95 94 95
39 49 45 77 64 78 62 54 38 71 79 74 59 42 49 58 48 47 50 59 64 66 69 68 67 75 79 84 88 85 91 90 94 93 97 96 92 90 94 94 96 97 97 97 97 96 96 96 95
40 36 70 84 90 83 84 86 93 77 90 87 81 78 65 64 56 56 52 63 63 66 70 71 70 75 78 79 84 86 88 88 89 93 95 98 96 95 95 96 95 96 97 96 96 95 94 95 96
60 59 66 73 90 82 75 80 81 88 89 95 88 76 77 58 71 63 49 59 62 74 75 76 75 76 84 84 82 87 91 89 92 94 96 96 96 97 96 96 97 98 98 98 97 97 97 98 97
51 66 94 98 93 95 91 87 68 79 77 81 95 92 76 74 62 68 66 63 71 73 72 74 76 78 81 82 83 86 88 89 87 87 88 94 96 97 95 94 95 96 98 98 98 98 98 98 97

GFSSGP_sfc_rhum_135.txt.gz
RH
84 64 47 33 29 44 53 32 29 22 20 14 17 17 26 30 29 36 49 56 79 88 94 94 95 93 93 93 93 93 93 92 92 93 93 93 93 92 91 90 89 87 82 76 76 79 77 80 86
68 46 36 34 34 34 22 33 25 19 18 18 17 20 23 37 43 58 52 74 76 89 93 93 94 94 93 93 94 94 92 92 93 93 93 93 92 92 90 90 90 87 82 78 76 77 79 86 90
49 41 45 34 46 34 25 25 18 17 13 16 18 17 29 37 53 48 54 79 82 89 90 91 94 94 94 94 94 94 94 94 95 94 93 93 92 91 88 89 87 86 82 79 75 80 86 90 91
38 44 44 40 37 32 26 24 20 16 12 12 18 15 24 33 49 46 64 77 84 90 90 94 94 94 94 94 95 95 95 95 96 96 94 93 92 90 88 89 88 86 82 79 81 85 90 91 90
41 46 57 50 38 27 22 20 16 15 14 16 14 16 22 38 43 53 64 71 80 89 91 95 95 94 93 94 94 96 95 95 95 96 96 94 92 92 90 90 89 89 86 83 87 90 91 90 90
39 44 52 53 34 23 20 20 19 18 20 17 16 22 28 39 52 51 64 70 76 85 95 94 95 94 93 94 95 96 96 96 96 96 96 96 94 94 91 90 88 90 90 88 86 89 91 90 89
42 48 58 48 34 29 25 23 22 21 20 18 16 21 33 48 53 59 62 76 85 91 96 97 96 95 94 96 97 97 96 96 96 96 97 97 97 94 92 90 88 88 92 91 86 87 91 91 91
52 55 71 48 35 37 27 23 21 20 19 14 15 20 38 39 55 67 82 92 92 95 97 98 98 97 97 96 98 98 97 97 97 97 97 98 98 96 92 89 89 89 93 92 88 88 93 92 92
43 57 71 54 46 39 25 25 24 20 19 19 15 22 25 47 62 81 94 97 97 92 98 99 99 99 99 98 98 99 98 98 98 97 98 99 97 97 93 89 87 87 90 91 89 90 90 93 93
38 60 52 39 37 32 26 27 24 22 23 20 20 19 26 44 57 70 81 83 89 93 97 97 98 97 98 98 95 95 97 97 97 97 98 97 98 98 91 90 89 87 90 90 90 92 93 95 98
37 42 38 31 27 28 26 23 22 26 24 21 21 17 17 26 43 71 74 74 77 80 91 97 98 98 95 95 91 91 98 96 96 97 98 93 96 98 96 98 96 98 94 98 97 98 98 96 97
27 24 24 27 21 23 25 24 21 25 22 17 17 17 16 20 24 35 65 80 79 90 86 93 96 98 97 96 88 89 91 94 92 97 97 96 96 98 98 96 99 99 99 100 97 100 98 96 94
32 29 25 24 23 24 22 23 23 21 20 19 16 20 21 20 20 22 31 47 75 87 84 94 95 96 97 92 88 86 90 89 91 97 92 97 93 95 98 98 99 99 99 98 92 93 99 97 96
24 20 20 22 24 23 22 22 28 23 20 21 21 24 25 24 22 23 25 30 56 74 84 93 94 92 96 96 89 86 85 80 83 86 80 79 86 94 93 98 98 99 95 96 92 93 99 98 97
17 18 18 20 21 24 24 23 27 22 21 22 22 20 22 26 24 25 23 22 30 54 72 94 93 90 94 95 93 89 88 84 82 83 82 85 91 93 93 96 98 98 92 92 93 98 98 99 96
22 24 30 24 20 18 27 25 24 19 22 22 21 21 20 21 21 21 23 23 27 42 66 87 84 94 93 90 94 92 93 90 89 86 86 82 90 92 95 94 94 96 97 96 97 99 99 99 98
26 32 27 23 19 22 26 26 26 20 17 18 19 22 19 18 20 18 20 23 23 32 52 74 88 96 95 93 95 95 94 97 95 95 94 88 89 91 91 93 96 96 96 97 97 99 98 99 99
31 29 28 33 23 20 22 21 16 18 18 22 22 22 22 20 17 14 13 16 18 24 31 63 84 91 94 96 97 98 98 98 98 98 96 96 90 91 95 97 97 98 97 98 98 98 98 97 95
26 26 27 22 18 24 22 20 18 16 21 22 23 22 23 20 16 15 14 26 27 35 46 87 92 95 96 98 98 98 97 98 98 98 96 96 95 93 96 96 97 96 96 96 96 98 97 99 96
36 37 33 26 22 24 27 25 20 19 20 21 20 20 21 20 17 16 28 52 65 59 61 84 89 98 94 94 96 98 98 97 94 97 97 96 95 95 94 95 96 96 97 97 98 95 97 97 95
15 27 28 31 22 24 28 27 25 23 20 20 20 20 20 20 18 17 40 81 83 83 85 77 79 90 96 92 99 99 99 99 100 99 98 97 96 96 94 94 95 96 96 98 97 95 93 96 97
22 27 35 30 33 39 26 28 19 20 25 23 22 23 23 21 19 19 59 81 77 75 76 79 81 87 83 76 74 90 98 98 97 96 95 96 97 98 96 96 95 96 96 95 95 95 93 91 96
34 30 42 43 47 40 26 46 26 26 25 26 23 22 21 22 19 24 56 68 71 72 76 79 77 86 90 92 82 90 90 96 97 98 98 98 97 96 96 97 96 96 95 94 95 97 95 92 92
23 29 42 49 49 53 29 43 31 23 42 48 61 61 57 39 21 36 69 69 80 75 77 85 82 87 89 89 90 92 93 96 98 99 99 98 97 98 96 94 94 94 95 95 96 94 94 95 92
29 45 58 67 71 48 47 52 52 81 76 81 80 68 64 55 35 37 73 78 75 77 73 74 75 80 86 92 94 94 94 92 96 97 98 96 95 98 99 97 97 96 94 93 94 95 95 95 95
38 56 71 81 60 58 44 58 43 57 58 71 70 68 70 65 45 43 66 71 72 79 76 68 69 76 80 81 85 88 91 97 97 96 98 98 98 98 97 98 98 96 95 95 96 97 96 96 96
42 50 45 75 61 72 58 52 54 58 64 75 76 75 78 77 75 72 74 77 82 86 82 75 72 76 80 84 83 87 90 90 94 96 97 98 97 96 96 97 97 97 98 97 97 97 98 98 96
48 43 64 82 90 76 63 77 96 76 76 80 87 91 85 76 81 83 83 84 84 81 76 78 76 79 78 80 84 87 91 92 94 97 98 97 97 98 97 97 98 98 97 98 98 98 97 98 98
78 78 79 76 89 75 79 85 80 72 77 84 88 84 87 84 80 90 88 82 79 75 74 77 76 75 79 81 83 90 92 92 91 91 92 93 97 96 98 96 97 97 98 98 98 98 97 98 96
56 73 95 98 90 93 95 72 74 79 88 80 84 80 81 86 84 89 90 87 83 76 74 75 74 73 79 83 86 89 90 88 90 90 88 90 93 94 96 98 97 97 96 97 97 98 97 97 97